[[{"header":{"parameterUnit":"m.s-1","parameterCategory":1,"la1":31.0,"la2":29.5877,"lo1":-88.7671,"lo2":-86.6584,"dy":0.0162,"dx":0.0185,"nx":115,"ny":88,"refTime":"2023-05-27T12:00:00:Z","depth":0,"parameterNumber":2,"parameterNumberName":"U-component_of_WINDS"},"data":[0.0,0.0,0.0,0.0,0.0,0.0,0.0,0.0,0.0,0.0,0.0,0.0,0.0,0.0,0.0,0.0,0.0,0.0,0.0,0.0,0.0,0.0,0.0,0.0,0.0,0.0,0.0,0.0,0.0,0.0,0.0,0.0,0.0,0.0,0.0,0.0,0.0,0.0,0.0,0.0,0.0,0.0,0.0,0.0,0.0,0.0,0.0,0.0,0.0,0.0,0.0,0.0,0.0,0.0,0.0,0.0,0.0,0.0,0.0,0.0,0.0,0.0,0.0,0.0,0.0,0.0,0.0,0.0,0.0,0.0,0.0,0.0,0.0,0.0,0.0,0.0,0.0,0.0,0.0,0.0,0.0,0.0,0.0,0.0,0.0,0.0,0.0,0.0,0.0,0.0,0.0,0.0,0.0,0.0,0.0,0.0,0.0,0.0,0.0,0.0,0.0,0.0,0.0,0.0,0.0,0.0,0.0,0.0,0.0,0.0,0.0,0.0,0.0,0.0,0.0,0.0,0.0,0.0,0.0,0.0,0.0,0.0,0.0,0.0,0.0,0.0,0.0,0.0,0.0,0.0,0.0,0.0,0.0,0.0,0.0,0.0,0.0,0.0,0.0,0.0,0.0,0.0,0.0,0.0,0.0,0.0,0.0,0.0,0.0,0.0,0.0,0.0,0.0,0.0,0.0,0.0,0.0,0.0,0.0,0.0,0.0,0.0,0.0,0.0,0.0,0.0,0.0,0.0,0.0,0.0,0.0,0.0,0.0,0.0,0.0,0.0,0.0,0.0,0.0,0.0,0.0,0.0,0.0,0.0,0.0,0.0,0.0,0.0,0.0,0.0,0.0,0.0,0.0,0.0,0.0,0.0,0.0,0.0,0.0,0.0,0.0,0.0,0.0,0.0,0.0,0.0,0.0,0.0,0.0,0.0,0.0,0.0,0.0,0.0,0.0,0.0,0.0,0.0,0.0,0.0,0.0,0.0,0.0,0.0,0.0,0.0,0.0,0.0,0.0,0.0,0.0,0.0,0.0,0.0,0.0,0.0,0.0,0.0,0.0,0.0,0.0,0.0,0.0,0.0,0.0,0.0,0.0,0.0,0.0,0.0,0.0,0.0,0.0,0.0,0.0,0.0,0.0,0.0,0.0,0.0,0.0,0.0,0.0,0.0,0.0,0.0,0.0,0.0,0.0,0.0,0.0,0.0,0.0,0.0,0.0,0.0,0.0,0.0,0.0,0.0,0.0,0.0,0.0,0.0,0.0,0.0,0.0,0.0,0.0,0.0,0.0,0.0,0.0,0.0,0.0,0.0,0.0,0.0,0.0,0.0,0.0,0.0,0.0,0.0,0.0,0.0,0.0,0.0,0.0,0.0,0.0,0.0,0.0,0.0,0.0,0.0,0.0,0.0,0.0,0.0,0.0,0.0,0.0,0.0,0.0,0.0,0.0,0.0,0.0,0.0,0.0,0.0,0.0,0.0,0.0,0.0,0.0,0.0,0.0,0.0,0.0,0.0,0.0,0.0,0.0,0.0,0.0,0.0,0.0,0.0,0.0,0.0,0.0,0.0,0.0,0.0,0.0,0.0,0.0,0.0,0.0,0.0,0.0,0.0,0.0,0.0,0.0,0.0,0.0,0.0,0.0,0.0,0.0,0.0,0.0,0.0,0.0,0.0,0.0,0.0,0.0,0.0,0.0,0.0,0.0,0.0,0.0,0.0,0.0,0.0,0.0,0.0,0.0,0.0,0.0,0.0,0.0,0.0,0.0,0.0,0.0,0.0,0.0,0.0,0.0,0.0,0.0,0.0,0.0,0.0,0.0,0.0,0.0,0.0,0.0,0.0,0.0,0.0,0.0,0.0,0.0,0.0,0.0,0.0,0.0,0.0,0.0,0.0,0.0,0.0,0.0,0.0,0.0,0.0,0.0,0.0,0.0,0.0,0.0,0.0,0.0,0.0,0.0,0.0,0.0,0.0,0.0,0.0,0.0,0.0,0.0,0.0,0.0,0.0,0.0,0.0,0.0,0.0,0.0,0.0,0.0,0.0,0.0,0.0,0.0,0.0,0.0,0.0,0.0,0.0,0.0,0.0,0.0,0.0,0.0,0.0,0.0,0.0,0.0,0.0,0.0,0.0,0.0,0.0,0.0,0.0,0.0,0.0,0.0,0.0,0.0,0.0,0.0,0.0,0.0,0.0,0.0,0.0,0.0,0.0,0.0,0.0,0.0,0.0,0.0,0.0,0.0,0.0,0.0,0.0,0.0,0.0,0.0,0.0,0.0,0.0,0.0,0.0,0.0,0.0,0.0,0.0,0.0,0.0,0.0,0.0,0.0,0.0,0.0,0.0,0.0,0.0,0.0,0.0,0.0,0.0,0.0,0.0,0.0,0.0,0.0,0.0,0.0,0.0,0.0,0.0,0.0,0.0,0.0,0.0,0.0,0.0,0.0,0.0,0.0,0.0,0.0,0.0,0.0,0.0,0.0,0.0,0.0,0.0,0.0,0.0,0.0,0.0,0.0,0.0,0.0,0.0,0.0,0.0,0.0,0.0,0.0,0.0,0.0,0.0,0.0,0.0,0.0,0.0,0.0,0.0,0.0,0.0,0.0,0.0,0.0,0.0,0.0,0.0,0.0,0.0,0.0,0.0,0.0,0.0,0.0,0.0,0.0,0.0,0.0,0.0,0.0,0.0,0.0,0.0,0.0,0.0,0.0,0.0,0.0,0.0,0.0,0.0,0.0,0.0,0.0,0.0,0.0,0.0,0.0,0.0,0.0,0.0,0.0,0.0,0.0,0.0,0.0,0.0,0.0,0.0,0.0,0.0,0.0,0.0,0.0,0.0,0.0,0.0,0.0,0.0,0.0,0.0,0.0,0.0,0.0,0.0,0.0,0.0,0.0,0.0,0.0,0.0,0.0,0.0,0.0,0.0,0.0,0.0,0.0,0.0,0.0,0.0,0.0,0.0,0.0,0.0,0.0,0.0,0.0,0.0,0.0,0.0,0.0,0.0,0.0,0.0,0.0,0.0,0.0,0.0,0.0,0.0,0.0,0.0,0.0,0.0,0.0,0.0,0.0,0.0,0.0,0.0,0.0,0.0,0.0,0.0,0.0,0.0,0.0,0.0,0.0,0.0,0.0,0.0,0.0,0.0,0.0,0.0,0.0,0.0,0.0,0.0,0.0,0.0,0.0,0.0,0.0,0.0,0.0,0.0,0.0,0.0,0.0,0.0,0.0,0.0,0.0,0.0,0.0,0.0,0.0,0.0,0.0,0.0,0.0,0.0,0.0,0.0,0.0,0.0,0.0,0.0,0.0,0.0,0.0,0.0,0.0,0.0,0.0,0.0,0.0,0.0,0.0,0.0,0.0,0.0,0.0,0.0,0.0,0.0,0.0,0.0,0.0,0.0,0.0,0.0,0.0,0.0,0.0,0.0,0.0,0.0,0.0,0.0,0.0,0.0,0.0,0.0,0.0,0.0,0.0,0.0,0.0,0.0,0.0,0.0,0.0,0.0,0.0,0.0,0.0,0.0,0.0,0.0,0.0,0.0,0.0,0.0,0.0,0.0,0.0,0.0,0.0,0.0,0.0,0.0,0.0,0.0,0.0,0.0,0.0,0.0,0.0,0.0,0.0,0.0,0.0,0.0,0.0,0.0,0.0,0.0,0.0,0.0,0.0,0.0,0.0,0.0,0.0,0.0,0.0,0.0,0.0,0.0,0.0,0.0,0.0,0.0,0.0,0.0,0.0,0.0,0.0,0.0,0.0,0.0,0.0,0.0,0.0,0.0,0.0,0.0,0.0,0.0,0.0,0.0,0.0,0.0,0.0,0.0,0.0,0.0,0.0,0.0,0.0,0.0,0.0,0.0,0.0,0.0,0.0,0.0,0.0,0.0,0.0,0.0,0.0,0.0,0.0,0.0,0.0,0.0,0.0,0.0,0.0,0.0,0.0,0.0,0.0,0.0,0.0,0.0,0.0,0.0,0.0,0.0,0.0,0.0,0.0,0.0,0.0,0.0,0.0,0.0,0.0,0.0,0.0,0.0,0.0,0.0,0.0,0.0,0.0,0.0,0.0,0.0,0.0,0.0,0.0,0.0,0.0,0.0,0.0,0.0,0.0,0.0,0.0,0.0,0.0,0.0,0.0,0.0,0.0,0.0,0.0,0.0,0.0,0.0,0.0,0.0,0.0,0.0,0.0,0.0,0.0,0.0,0.0,0.0,0.0,0.0,0.0,0.0,0.0,0.0,0.0,0.0,0.0,0.0,0.0,0.0,0.3557,0.0,0.0,0.0,0.0,0.0,0.0,0.0,0.0,0.0,0.0,0.0,0.0,0.0,0.0,0.0,0.0,0.0,0.0,0.0,0.0,0.0,0.0,0.0,0.0,0.0,0.0,0.0,0.0,0.0,0.0,0.0,0.0,0.0,0.0,0.0,0.0,0.0,0.0,0.0,0.0,0.0,0.0,0.0,0.0,0.0,0.0,0.0,0.0,0.0,0.0,0.0,0.0,0.0,0.0,0.0,0.0,0.0,0.0,0.0,0.0,0.0,0.0,0.0,0.0,0.0,0.0,0.0,0.0,0.0,0.0,0.0,0.0,0.0,0.0,0.0,0.0,0.0,0.0,0.0,0.0,0.0,0.0,0.0,0.0,0.0,0.0,0.0,0.0,0.0,0.0,0.0,0.0,0.0,0.0,0.0,0.0,0.0,0.0,0.0,0.0,0.0,0.0,0.0,0.0,0.0,0.0,0.0,0.0,0.0,0.0,0.4182,0.4129,0.3941,0.3773,0.3616,0.0,0.0,0.0,0.0,0.0,0.0,0.0,0.0,0.0,0.0,0.0,0.0,0.0,0.0,0.0,0.0,0.0,0.0,0.0,0.0,0.0,0.0,0.0,0.0,0.0,0.0,0.0,0.0,0.0,0.0,0.0,0.0,0.0,0.0,0.0,0.0,0.0,0.0,0.0,0.0,0.0,0.0,0.0,0.0,0.0,0.0,0.0,0.0,0.0,0.0,0.0,0.0,0.0,0.0,0.0,0.0,0.0,0.0,0.0,0.0,0.0,0.0,0.0,0.0,0.0,0.0,0.0,0.0,0.0,0.0,0.0,0.0,0.0,0.0,0.0,0.0,0.0,0.0,0.0,0.0,0.0,0.0,0.0,0.0,0.0,0.0,0.0,0.0,0.0,0.0,0.0,0.0,0.0,0.0,0.0,0.0,0.0,0.0,0.0,0.0,0.0,0.0,0.0,0.0,0.0,0.0,0.0,0.0,0.0,0.0,0.0,0.0,0.3906,0.369,0.3492,0.0,0.0,0.0,0.0,0.0,0.0,0.0,0.0,0.0,0.0,0.0,0.0,0.0,0.0,0.0,0.0,0.0,0.0,0.0,0.0,0.0,0.0,0.0,0.0,0.0,0.0,0.0,0.0,0.0,0.0,0.0,0.0,0.0,0.0,0.0,0.0,0.0,0.0,0.0,0.0,0.0,0.0,0.0,0.0,0.0,0.0,0.0,0.0,0.0,0.0,0.0,0.0,0.0,0.0,0.0,0.0,0.0,0.0,0.0,0.0,0.0,0.0,0.0,0.0,0.0,0.0,0.0,0.0,0.0,0.0,0.0,0.0,0.0,0.0,0.0,0.0,0.0,0.0,0.0,0.0,0.0,0.0,0.0,0.0,0.0,0.0,0.0,0.0,0.0,0.0,0.0,0.0,0.0,0.0,0.0,0.0,0.0,0.0,0.0,0.0,0.0,0.0,0.0,0.0,0.0,0.0,0.0,0.0,0.0,0.0,0.3934,0.3924,0.3557,0.0,0.2885,0.0,0.0,0.0,0.0,0.0,0.0,0.0,0.0,0.0,0.0,0.0,0.0,0.0,0.0,0.0,0.0,0.0,0.0,0.0,0.0,0.0,0.0,0.0,0.0,0.0,0.0,0.0,0.0,0.0,0.0,0.0,0.0,0.0,0.0,0.0,0.0,0.0,0.0,0.0,0.0,0.0,0.0,0.0,0.0,0.0,0.0,0.0,0.0,0.0,0.0,0.0,0.0,0.0,0.0,0.0,0.0,0.0,0.0,0.0,0.0,0.0,0.0,0.0,0.0,0.0,0.0,0.0,0.0,0.0,0.0,0.0,0.0,0.0,0.0,0.0,0.0,0.0,0.0,0.0,0.0,0.0,0.0,0.0,0.0,0.0,0.0,0.0,0.0,0.0,0.0,0.0,0.0,0.0,0.0,0.0,0.0,0.0,0.0,0.0,0.0,0.0,0.0,0.0,0.0,0.0,0.0,0.0,0.0,0.0,0.0,0.4414,0.42,0.3572,0.312,0.0,0.0,0.0,0.0,0.0,0.0,0.0,0.0,0.0,0.0,0.0,0.0,0.0,0.0,0.0,0.0,0.0,0.0,0.0,0.0,0.0,0.0,0.0,0.0,0.0,0.0,0.0,0.0,0.0,0.0,0.0,0.0,0.0,0.0,0.0,0.0,0.0,0.0,0.0,0.0,0.0,0.0,0.0,0.0,0.0,0.0,0.0,0.0,0.0,0.0,0.0,0.0,0.0,0.0,0.0,0.0,0.0,0.0,0.0,0.0,0.0,0.0,0.0,0.0,0.0,0.0,0.0,0.0,0.0,0.0,0.0,0.0,0.0,0.0,0.0,0.0,0.0,0.0,0.0,0.0,0.0,0.0,0.0,0.0,0.0,0.0,0.0,0.0,0.0,0.0,0.0,0.0,0.0,0.0,0.0,0.0,0.0,0.0,0.0,0.0,0.0,0.0,0.0,0.0,0.0,0.0,0.0,0.0,0.0,0.0,0.5306,0.4723,0.432,0.366,0.3185,0.2948,0.0,0.0,0.0,0.0,0.0,0.0,0.0,0.0,0.0,0.0,0.0,0.0,0.0,0.0,0.0,0.0,0.0,0.0,0.0,0.0,0.0,0.0,0.0,0.0,0.0,0.0,0.0,0.0,0.0,0.0,0.0,0.0,0.0,0.0,0.0,0.0,0.0,0.0,0.0,0.0,0.0,0.0,0.0,0.0,0.0,0.0,0.0,0.0,0.0,0.0,0.0,0.0,0.0,0.0,0.0,0.0,0.0,0.0,0.0,0.0,0.0,0.0,0.0,0.0,0.0,0.0,0.0,0.0,0.0,0.0,0.0,0.0,0.0,0.0,0.0,0.0,0.0,0.0,0.0,0.0,0.0,0.0,0.0,0.0,0.0,0.0,0.0,0.0,0.0,0.0,0.0,0.0,0.0,0.0,0.0,0.0,0.0,0.0,0.0,0.0,0.0,0.0,0.0,0.0,0.0,0.0,0.0,0.0,0.5572,0.5138,0.4646,0.4124,0.3695,0.333,0.0,0.0,0.0,0.0,0.0,0.0,0.0,0.0,0.0,0.0,0.0,0.0,0.0,0.0,0.0,0.0,0.0,0.0,0.0,0.0,0.0,0.0,0.0,0.0,0.0,0.0,0.0,0.0,0.0,0.0,0.0,0.0,0.0,0.0,0.0,0.0,0.0,0.0,0.0,0.0,0.0,0.0,0.0,0.0,0.0,0.0,0.0,0.0,0.0,0.0,0.0,0.0,0.0,0.0,0.0,0.0,0.0,0.0,0.0,0.0,0.0,0.0,0.0,0.0,0.0,0.0,0.0,0.0,0.0,0.0,0.0,0.0,0.0,0.0,0.0,0.0,0.0,0.0,0.0,0.0,0.0,0.0,0.0,0.0,0.0,0.0,0.0,0.0,0.0,0.0,0.0,0.0,0.0,0.0,0.0,0.0,0.0,0.0,0.0,0.0,0.0,0.0,0.0,0.0,0.0,0.0,0.0,0.0,0.0,0.6604,0.5433,0.4406,0.3682,0.3333,0.3047,0.0,0.0,0.0,0.0,0.0,0.0,0.0,0.0,0.0,0.0,0.0,0.0,0.0,0.0,0.0,0.0,0.0,0.0,0.0,0.0,0.0,0.0,0.0,0.0,0.0,0.0,0.0,0.0,0.0,0.0,0.0,0.0,0.0,0.0,0.0,0.0,0.0,0.0,0.0,0.0,0.0,0.0,0.0,0.0,0.0,0.0,0.0,0.0,0.0,0.0,0.0,0.0,0.0,0.0,0.0,0.0,0.0,0.0,0.0,0.0,0.0,0.0,0.0,0.0,0.0,0.0,0.0,0.0,0.0,0.0,0.0,0.0,0.0,0.0,0.0,0.0,0.0,0.0,0.0,0.0,0.0,0.0,0.0,0.0,0.0,0.0,0.0,0.0,0.0,0.0,0.0,0.0,0.0,0.0,0.0,0.0,0.0,0.0,0.0,0.0,0.0,0.0,0.0,0.0,0.0,0.0,0.0,0.0,0.0,0.6859,0.0,0.4275,0.3657,0.3225,0.2917,0.0,0.0,0.0,0.0,0.0,0.0,0.0,0.0,0.0,0.0,0.0,0.0,0.0,0.0,0.0,0.0,0.0,0.0,0.0,0.0,0.0,0.0,0.0,0.0,0.0,0.0,0.0,0.0,0.0,0.0,0.0,0.0,0.0,0.0,0.0,0.0,0.0,0.0,0.0,0.0,0.0,0.0,0.0,0.0,0.0,0.0,0.0,0.0,0.0,0.0,0.0,0.0,0.0,0.0,0.0,0.0,0.0,0.0,0.0,0.0,0.0,0.0,0.0,0.0,0.0,0.0,0.0,0.0,0.0,0.0,0.0,0.0,0.0,0.0,0.0,0.0,0.0,0.0,0.0,0.0,0.0,0.0,0.0,0.0,0.0,0.0,0.0,0.0,0.0,0.0,0.0,0.0,0.0,0.0,0.0,0.0,0.0,0.0,0.0,0.0,0.0,0.0,0.0,0.0,0.0,0.0,0.0,0.0,0.6457,0.6074,0.4971,0.4244,0.4061,0.3402,0.2926,0.0,0.0,0.0,0.0,0.0,0.0,0.0,0.0,0.0,0.0,0.0,0.0,0.0,0.0,0.0,0.0,0.0,0.0,0.0,0.0,0.0,0.0,0.0,0.0,0.0,0.0,0.0,0.0,0.0,0.0,0.0,0.0,0.0,0.0,0.0,0.0,0.0,0.0,0.0,0.0,0.0,0.0,0.0,0.0,0.0,0.0,0.0,0.0,0.0,0.0,0.0,0.0,0.0,0.0,0.0,0.0,0.0,0.0,0.0,0.0,0.0,0.0,0.0,0.0,0.0,0.0,0.0,0.0,0.0,0.0,0.0,0.0,0.0,0.0,0.0,0.0,0.0,0.0,0.0,0.0,0.0,0.0,0.0,0.0,0.0,0.0,0.0,0.0,0.0,0.0,0.0,0.0,0.0,0.0,0.0,0.0,0.0,0.0,0.0,0.0,0.0,0.0,0.0,0.0,0.0,0.0,0.0,0.0,0.0,0.5685,0.4405,0.355,0.3201,0.2823,0.2572,0.0,0.0,0.0,0.0,0.0,0.0,0.0,0.0,0.0,0.0,0.0,0.0,0.0,0.0,0.0,0.0,0.0,0.0,0.0,0.0,0.0,0.0,0.0,0.0,0.0,0.0,0.0,0.0,0.0,0.0,0.0,0.0,0.0,0.0,0.0,0.0,0.0,0.0,0.0,0.0,0.0,0.0,0.0,0.0,0.0,0.0,0.0,0.0,0.0,0.0,0.0,0.0,0.0,0.0,0.0,0.0,0.0,0.0,0.0,0.0,0.0,0.0,0.0,0.0,0.0,0.0,0.0,0.0,0.0,0.0,0.0,0.0,0.0,0.0,0.0,0.0,0.0,0.0,0.0,0.0,0.0,0.0,0.0,0.0,0.0,0.0,0.0,0.0,0.0,0.0,0.0,0.0,0.0,0.0,0.0,0.0,0.0,0.0,0.0,0.0,0.0,0.0,0.0,0.0,0.0,0.0,0.0,0.0,0.0,0.3833,0.2637,0.1818,0.1398,0.085,0.1103,0.2265,0.0,0.0,0.0,0.0,0.0,0.0,0.0,0.0,0.0,0.0,0.0,0.0,0.0,0.0,0.0,0.0,0.0,0.0,0.0,0.0,0.0,0.0,0.0,0.0,0.0,0.0,0.0,0.0,0.0,0.0,0.0,0.0,0.0,0.0,0.0,0.0,0.0,0.0,0.0,0.0,0.0,0.0,0.0,0.0,0.0,0.0,0.0,0.0,0.0,0.0,0.0,0.0,0.0,0.0,0.0,0.0,0.0,0.0,0.0,0.0,0.0,0.0,0.0,0.0,0.0,0.0,0.0,0.0,0.0,0.0,0.0,0.0,0.0,0.0,0.0,0.0,0.0,0.0,0.0,0.0,0.0,0.0,0.0,0.0,0.0,0.0,0.0,0.0,0.0,0.0,0.0,0.0,0.0,0.0,0.0,0.0,0.0,0.0,0.0,0.0,0.0,0.0,0.0,0.0,0.0,0.0,0.0,0.0,0.0802,-0.0255,-0.0938,-0.1229,-0.2078,-0.1156,0.0,0.0,0.0,0.0,0.0,0.0,0.0,0.0,0.0,0.0,0.0,0.0,0.0,0.0,0.0,0.0,0.0,0.0,0.0,0.0,0.0,0.0,0.0,0.0,0.0,0.0,0.0,0.0,0.0,0.0,0.0,0.0,0.0,0.0,0.0,0.0,0.0,0.0,0.0,0.0,0.0,0.0,0.0,0.0,0.0,0.0,0.0,0.0,0.0,0.0,0.0,0.0,0.0,0.0,0.0,0.0,0.0,0.0,0.0,0.0,0.0,0.0,0.0,0.0,0.0,0.0,0.0,0.0,0.0,0.0,0.0,0.0,0.0,0.0,0.0,0.0,0.0,0.0,0.0,0.0,0.0,0.0,0.0,0.0,0.0,0.0,0.0,0.0,0.0,0.0,0.0,0.0,0.0,0.0,0.0,0.0,0.0,0.0,0.0,0.0,0.0,0.0,0.0,0.0,0.0,0.0,0.0,0.0,0.0,-0.1856,-0.5,-0.5808,-0.4091,-0.3046,-0.1876,0.0,0.0,0.0,0.0,0.0,0.0,0.0,0.0,0.0,0.0,0.0,0.0,0.0,0.0,0.0,0.0,0.0,0.0,0.0,0.0,0.0,0.0,0.0,0.0,0.0,0.0,0.0,0.0,0.0,0.0,0.0,0.0,0.0,0.0,0.0,0.0,0.0,0.0,0.0,0.0,0.0,0.0,0.0,0.0,0.0,0.0,0.0,0.0,0.0,0.0,0.0,0.0,0.0,0.0,0.0,0.0,0.0,0.0,0.0,0.0,0.0,0.0,0.0,0.0,0.0,0.0,0.0,0.0,0.0,0.0,0.0,0.0,0.0,0.0,0.0,0.0,0.0,0.0,0.0,0.0,0.0,0.0,0.0,0.0,0.0,0.0,0.0,0.0,0.0,0.0,0.0,0.0,0.0,0.0,0.0,0.0,0.0,0.0,0.0,0.0,0.0,0.0,0.0,0.0,0.0,0.0,0.0,0.0,-0.0502,-0.2931,-0.7307,-0.9053,-0.7882,-0.5506,-0.3247,0.0,0.0,0.0,0.0,0.0,0.0,0.0,0.0,0.0,0.0,0.0,0.0,0.0,0.0,0.0,0.0,0.0,0.0,0.0,0.0,0.0,0.0,0.0,0.0,0.0,0.0,0.0,0.0,0.0,0.0,0.0,0.0,0.0,0.0,0.0,0.0,0.0,0.0,0.0,0.0,0.0,0.0,0.0,0.0,0.0,0.0,0.0,0.0,0.0,0.0,0.0,0.0,0.0,0.0,0.0,0.0,0.0,0.0,0.0,0.0,0.0,0.0,0.0,0.0,0.0,0.0,0.0,0.0,0.0,0.0,0.0,0.0,0.0,0.0,0.0,0.0,0.0,0.0,0.0,0.0,0.0,0.0,0.0,0.0,0.0,0.0,0.0,0.0,0.0,0.0,0.0,0.0,0.0,0.0,0.0,0.0,0.0,0.0,0.0,0.0,0.0,0.0,0.0,0.0,0.0,0.0,0.0,0.0,-0.1917,-0.3331,-0.8079,-1.0942,-1.1496,-0.8241,-0.483,0.0,0.0,0.0,0.0,0.0,0.0,0.0,0.0,0.0,0.0,0.0,0.0,0.0,0.0,0.0,0.0,0.0,0.0,0.0,0.0,0.0,0.0,0.0,0.0,0.0,0.0,0.0,0.0,0.0,0.0,0.0,0.0,0.0,0.0,0.0,0.0,0.0,0.0,0.0,0.0,0.0,0.0,0.0,0.0,0.0,0.0,0.0,0.0,0.0,0.0,0.0,0.0,0.0,0.0,0.0,0.0,0.0,0.0,0.0,0.0,0.0,0.0,0.0,0.0,0.0,0.0,0.0,0.0,0.0,0.0,0.0,0.0,0.0,0.0,0.0,0.0,0.0,0.0,0.0,0.0,0.0,0.0,0.0,0.0,0.0,0.0,0.0,0.0,0.0,0.0,0.0,0.0,0.0,0.0,0.0,0.0,0.0,0.0,0.0,0.0,0.0,0.0,0.0,0.0,0.0,0.0,0.0,0.0,-0.2874,-0.5347,-0.8807,-1.0799,-1.1198,-0.7299,-0.4785,0.0,0.0,0.0,0.0,0.0,0.0,0.0,0.0,0.0,0.0,0.0,0.0,0.0,0.0,0.0,0.0,0.0,0.0,0.0,0.0,0.0,0.0,0.0,0.0,0.0,0.0,0.0,0.0,0.0,0.0,0.0,0.0,0.0,0.0,0.0,0.0,0.0,0.0,0.0,0.0,0.0,0.0,0.0,0.0,0.0,0.0,0.0,0.0,0.0281,0.0,0.0,0.0,0.0,0.0,0.0,0.0,0.0,0.0,0.0,0.0,0.0,0.0,0.0,0.0,0.0,0.0,0.0,0.0,0.0,0.0,0.0,0.0,0.0,0.0,0.0,0.0,0.0,0.0,0.0,0.0,0.0,0.0,0.0,0.0,0.0,0.0,0.0,0.0,0.0,0.0,0.0,0.0,0.0,0.0,0.0,0.0,0.0,0.0,0.0,0.0,0.0,0.0,0.0,0.0,0.0,0.0,0.0,0.0,-0.2736,-0.5674,-0.8325,-0.9959,-1.033,-0.7372,-0.5327,0.0,0.0,0.0,0.0,0.0,0.0,0.0,0.0,0.0,0.0,0.0,0.0,0.0,0.0,0.0,0.0,0.0,0.0,0.0,0.0,0.0,0.0,0.0,0.0,0.0,0.0,0.0,0.0,0.0,0.0,0.0,0.0,0.0,0.0,0.0,0.0,0.0,0.0,0.0,0.0,0.0,0.0,0.0,0.0,0.0,0.0,0.0,0.0,0.0,0.0,0.0,0.0,0.0,0.0,0.0,0.0,0.0,0.0,0.0,0.0,0.0,0.0,0.0,0.0,0.0,0.0,0.0,0.0,0.0,0.0,0.0,0.0,0.0,0.0,0.0,0.0,0.0,0.0,0.0,0.0,0.0,0.0,0.0,0.0,0.0,0.0,0.0,0.0,0.0,0.0,0.0,0.0,0.0,0.0,0.0,0.0,0.0,0.0,0.0,0.0,0.0,0.0,0.0,0.0,0.0,0.0,0.0,0.0445,-0.2422,-0.573,-0.7695,-0.9043,-0.9754,-0.7858,-0.6023,-0.4329,0.0,0.0,0.0,0.0,0.0,0.0,0.0,0.0,0.0,0.0,0.0,0.0,0.0,0.0,0.0,0.0,0.0,0.0,0.0,0.0,0.0,0.0,0.0,0.0,0.0,0.0,0.0,0.0,0.0,0.0,0.0,0.0,0.0,0.0,0.0,0.0,0.0,0.0,0.1276,0.0557,0.0,0.0,0.0,0.0,0.0,0.0,0.0,0.0,0.005,0.0,0.0,0.0,0.0,0.0,0.0,0.0,0.0,0.0,0.0,0.0,0.0,0.0,0.0,0.0,0.0,0.0,0.0,0.0,0.0,0.0,0.0,0.0,0.0,0.0,0.0,0.0,0.0,0.0,0.0,0.0,0.0,0.0,0.0,0.0,0.0,0.0,0.0,0.0,0.0,0.0,0.0,0.0,0.0,0.0,0.0,0.0,0.0,0.0,0.0,0.0,0.0,0.0,0.0,0.0,0.0,0.0778,-0.0437,-0.3219,-0.7621,-0.8314,-0.902,-0.9798,-0.8197,-0.631,-0.4283,0.0,0.0,0.0,0.0,0.0,0.0,0.0,0.0,0.0,0.0,0.0,0.0,0.0,0.0,0.0,0.0,0.0,0.0,0.0,0.0,0.0,0.0,0.0,0.0,0.0,0.0,0.0,0.0,0.0,0.0,0.0,0.0,0.0,0.0,0.0,0.0,0.0,0.0,0.0,-0.0168,-0.0332,0.0,0.0,0.0,0.0,0.0,0.0,0.0,0.0,-0.1473,0.0,0.0,0.0,0.0,0.0,0.0,0.0,0.0,0.0,0.0,0.0,0.0,0.0,0.0,0.0,0.0,0.0,0.0,0.0,0.0,0.0,0.0,0.0,0.0,0.0,0.0,0.0,0.0,0.0,0.0,0.0,0.0,0.0,0.0,0.0,0.0,0.0,0.0,0.0,0.0,0.0,0.0,0.0,0.0,0.0,0.0,0.0,0.0,0.0,0.0,0.0,0.0,0.0,0.0,0.0,0.0739,-0.1134,-0.3719,-0.7089,-0.7954,-0.8591,-0.9085,-0.7642,-0.6018,0.0,0.0,0.0,0.0,0.0,0.0,0.0,0.0,0.0,0.0,0.0,0.0,0.0,0.0,0.0,0.0,0.0,0.0,0.0,0.0,0.0,0.0,0.0,0.0,0.0,0.0,0.0,0.0,0.0,0.0,0.0,0.0,0.0,0.0,0.0,0.0,0.0,0.0,0.0,0.0,-0.0583,-0.1408,-0.3751,0.0,0.0,0.0,0.0,0.0,0.0,-0.2849,-0.2578,0.0,0.0,0.0,0.0,0.0,0.0,0.0,0.0,0.0,0.0,0.0,0.0,0.0,0.0,0.0,0.0,0.0,0.0,0.0,0.0,0.0,0.0,0.0,0.0,0.0,0.0,0.0,0.0,0.0,0.0,0.0,0.0,0.0,0.0,0.0,0.0,0.0,0.0,0.0,0.0,0.0,0.0,0.0,0.0,0.0,0.0,0.0,0.0,0.0,0.0,0.0,0.0,0.0,0.0,0.0,0.0905,-0.1687,-0.4105,-0.635,-0.7529,-0.8236,-0.8479,-0.6757,-0.5334,0.0,0.0,0.0,0.0,0.0,0.0,0.0,0.0,0.0,0.0,0.0,0.0,0.0,0.0,0.0,0.0,0.0,0.0,0.0,0.0,0.0,0.0,0.0,0.0,0.0,0.0,0.0,0.0,0.0,0.0,0.0,0.0,0.0,0.0,0.0,0.0,0.0,0.0,0.0,0.0,0.0,-0.2252,-0.46,-0.3781,0.0,0.0,0.0,0.0,-0.3284,-0.3808,0.0,0.0,0.0,0.0,0.0,0.0,0.0,0.0,0.0,0.0,0.0,0.0,0.0,0.0,0.0,0.0,0.0,0.0,0.0,0.0,0.0,0.0,0.0,0.0,0.0,0.0,0.0,0.0,0.0,0.0,0.0,0.0,0.0,0.0,0.0,0.0,0.0,0.0,0.0,0.0,0.0,0.0,0.0,0.0,0.0,0.0,0.0,0.0,0.0,0.0,0.0,0.0,0.0,0.0,0.0,0.0,0.0479,-0.2051,-0.4526,-0.68,-0.764,-0.8303,-0.8859,-0.5845,-0.4105,0.0,0.0,0.0,0.0,0.0,0.0,0.0,0.0,0.0,0.0,0.0,0.0,0.0,0.0,0.0,0.0,0.0,0.0,0.0,0.0,0.0,0.0,0.0,0.0,0.0,0.0,0.0,0.0,0.0,0.0,0.0,0.0,0.0,0.0,0.0,0.0,0.0,0.0,0.0,0.0,0.0,-0.1565,-0.4122,-0.3417,-0.2421,0.0,0.0,-0.5587,-0.5298,-0.7173,0.0,0.0,0.0,0.0,0.0,0.0,0.0,0.0,0.0,0.0,0.0,0.0,0.0,0.0,0.0,0.0,0.0,0.0,0.0,0.0,0.0,0.0,0.0,0.0,0.0,0.0,0.0,0.0,0.0,0.0,0.0,0.0,0.0,0.0,0.0,0.0,0.0,0.0,0.0,0.0,0.0,0.0,0.0,0.0,0.0,0.0,0.0,0.0,0.0,0.0,0.0,0.0,0.0,0.0,0.0,0.2031,0.0566,-0.2609,-0.5019,-0.6442,-0.7341,-0.807,-0.8694,-0.5366,-0.3684,0.0,0.0,0.0,0.0,0.0,0.0,0.0,0.0,0.0,0.0,0.0,0.0,0.0,0.0,0.0,0.0,0.0,0.0,0.0,0.0,0.0,0.0,0.0,0.0,0.0,0.0,0.0,0.0,0.0,0.0,0.0,0.0,0.0,0.0,0.0,0.0,0.0,0.0,0.0,0.0,0.0,0.0,-0.366,-0.3769,0.0,0.0,0.0,-0.5273,-0.4085,0.0,0.0,0.0,0.0,0.0,0.0,0.0,0.0,0.0,0.0,0.0,0.0,0.0,0.0,0.0,0.0,0.0,0.0,0.0,0.0,0.0,0.0,0.0,0.0,0.0,0.0,0.0,0.0,0.0,0.0,0.0,0.0,0.0,0.0,0.0,0.0,0.0,0.0,0.0,0.0,0.0,0.0,0.0,0.0,0.0,0.0,0.0,0.0,0.0,0.0,0.0,0.0,0.0,0.0,0.0,0.0,0.0,0.0851,-0.3089,-0.5484,-0.6201,-0.7208,-0.8008,-0.8548,-0.5716,0.0,0.0,0.0,0.0,0.0,0.0,0.0,0.0,0.0,0.0,0.0,0.0,0.0,0.0,0.0,0.0,0.0,0.0,0.0,0.0,0.0,0.0,0.0,0.0,0.0,0.0,0.0,0.0577,0.0,0.0,0.0,0.0,0.0,0.0,0.0,0.0,0.0,0.0,0.0,0.0,0.0,0.0,-0.2745,-0.3138,-0.389,-0.4571,0.0,0.0,-0.5056,-0.4033,-0.7183,-0.8414,0.0,0.0,0.0,0.0,0.0,0.0,0.0,0.0,0.0,0.0,0.0,0.0,0.0,0.0,0.0,0.0,0.0,0.0,0.0,0.0,0.0,0.0,0.0,0.0,0.0,0.0,0.0,0.0,0.0,0.0,0.0,0.0,0.0,0.0,0.0,0.0,0.0,0.0,0.0,0.0,0.0,0.0,0.0,0.0,0.0,0.0,0.0,0.0,0.0,0.0,0.0,0.0,0.0,0.0,0.0,0.1038,-0.3275,-0.5828,-0.6479,-0.7509,-0.8345,-0.8913,-0.7341,-0.5786,0.0,0.0,0.0,0.0,0.0,0.0,0.0,0.0,0.0,0.0,0.0,0.0,0.0,0.0,0.0,0.0,0.0,0.0,0.0,0.0,0.0,0.0,0.0,0.0,0.0,0.0,0.0,0.0,0.0,0.0,0.0,0.0,0.0,0.0,0.0,0.0,0.0,0.0,0.0,0.0,0.0,-0.2187,-0.26,-0.3337,-0.4396,0.0,0.0,-0.5715,-0.7123,-0.9716,-1.029,-0.6485,0.0,0.0,0.0,0.0,0.0,0.0,0.0,0.0,0.0,0.0,0.0,0.0,0.0,0.0,0.0,0.0,0.0,0.0,0.0,0.0,0.0,0.0,0.0,0.0,0.0,0.0,0.0,0.0,0.0,0.0,0.0,0.0,0.0,0.0,0.0,0.0,0.0,0.0,0.0,0.0,0.0,0.0,0.0,0.0,0.0,0.0,0.0,0.0,0.0,0.0,0.0,0.0,0.0,0.141,0.1032,-0.2929,-0.5486,-0.6477,-0.7223,-0.8016,-0.8782,-0.7458,-0.5912,0.0,0.0,0.0,0.0,0.0,0.0,0.0,0.0,0.0,0.0,0.0,0.0,0.0,0.0,0.0,0.0,0.0,0.0,0.0,0.0,0.0,0.0,0.0,0.0,0.0,0.0,0.0,0.0,-0.1841,-0.1986,-0.1359,0.0,0.0,0.0,0.0,0.0,0.0,0.0,0.0,0.0,0.0,-0.1679,-0.2971,-0.4364,0.0,0.0,-0.5241,-0.5011,-0.5414,-0.7213,-0.7515,-0.449,-0.5443,0.0,0.0,0.0,0.0,0.0,0.0,0.0,0.0,0.0,0.0,0.0,0.0,0.0,0.0,0.0,0.0,0.0,0.0,0.0,0.0,0.0,0.0,0.0,0.0,0.0,0.0,0.0,0.0,0.0,0.0,0.0,0.0,0.0,0.0,0.0,0.0,0.0,0.0,0.0,0.0,0.0,0.0,0.0,0.0,0.0,0.0,0.0,0.0,0.0,0.0,0.0,0.0,0.146,0.1254,-0.2634,-0.5205,-0.6264,-0.6923,-0.7693,-0.8502,-0.7856,-0.6734,0.0,0.0,0.0,0.0,0.0,0.0,0.0,0.0,0.0,0.0,0.0,0.0,0.0,0.0,0.0,0.0,0.0,0.0,0.0,0.0,0.0,0.0,0.0,0.0,0.0,0.0,0.0,0.0,-0.2374,-0.2339,-0.1289,0.0,0.0,0.0,0.0,0.0,0.0,0.0,0.0,0.0,0.0,-0.1515,-0.238,-0.4097,-0.5148,-0.4792,-0.4132,-0.3805,-0.418,-0.5149,-0.5249,-0.3434,0.0,0.0,0.0,0.0,0.0,0.0,0.0,0.0,0.0,0.0,0.0,0.0,0.0,0.0,0.0,0.0,0.0,0.0,0.0,0.0,0.0,0.0,0.0,0.0,0.0,0.0,0.0,0.0,0.0,0.0,0.4022,0.0,0.0,0.0,0.0,0.0,0.0,0.0,0.0,0.0,0.0,0.0,0.0,0.0,0.0,0.0,0.0,0.0,0.0,0.0,0.0,0.0,0.0,0.1564,0.179,-0.2533,-0.5101,-0.5809,-0.6719,-0.7543,-0.8273,-0.8847,-0.8675,-0.7668,0.0,0.0,0.0,0.0,0.0,0.0,0.0,0.0,0.0,0.0,0.0,0.0,0.0,0.0,0.0,0.0,0.0,0.0,0.0,0.0,0.0,0.0,0.0,0.0,0.0,0.0,0.0171,-0.0768,-0.1341,0.0,0.0,0.0,0.0,0.0,0.0,0.0,0.0,0.0,0.0,-0.0169,-0.1817,-0.046,-0.1947,-0.3343,-0.3482,-0.2331,-0.2151,-0.4226,-0.4484,-0.4369,0.0,0.0,0.0,0.0,0.0,0.0,0.0,0.0,0.0,0.0,0.0,0.0,0.0,0.0,0.0,0.0,0.0,0.0,0.0,0.0,0.0,0.0,0.0,0.0,0.0,0.0,0.0,0.0867,0.045,0.0,0.0,0.0,0.0,0.0,0.0,0.0,0.0,0.0,0.0,0.0,-0.2578,-0.305,0.0,0.0,0.0,0.0,0.0,0.0,0.0,0.0,0.0,0.0,0.0,0.0,0.1356,0.1125,-0.254,-0.4797,-0.534,-0.6258,-0.7028,-0.7619,-0.8355,-0.8428,-0.7745,0.0,0.0,0.0,0.0,0.0,0.0,0.0,0.0,0.0,0.0,0.0,0.0,0.0,0.0,0.0,0.0,0.0,0.0,0.0,0.0,0.0,0.0,0.0,0.0,0.0,-0.1753,0.0,0.0,0.0,0.0,0.0,0.0,0.0,0.0,0.0,0.0,0.0,0.0444,0.0449,-0.0741,-0.1487,-0.1136,-0.1532,-0.246,0.0,0.0,0.0,0.0,0.0,0.0,0.0,0.0,0.0,0.0,0.0,0.0,0.0,0.0,-0.0744,0.0043,-0.0266,-0.0441,0.0137,0.0,0.0,0.0,0.0,0.0,0.0,0.0,0.0,0.0,0.0,0.0,0.0,0.0,0.0,-0.0937,0.0,-0.1515,0.0,0.0,0.0,0.0,0.0,0.0,0.0,0.0,-0.2827,-0.3753,-0.4023,-0.4548,-0.4957,0.0,-0.4802,-0.2858,0.0,0.0,0.0,0.0,0.0,0.0,0.0,0.0,0.1167,0.0703,-0.2593,-0.4635,-0.5186,-0.5864,-0.6535,-0.7189,-0.8182,-0.8658,-0.8557,-0.7202,-0.6185,0.0,0.0,0.0,0.0,0.0,0.0,0.0,0.0,0.0,0.0,0.0,0.0,0.0,0.0,0.0,0.0,0.0,0.0,0.0,0.0,0.0,0.0,0.0,-0.2113,0.0,0.0,0.0,0.0,0.0,0.0,0.0,0.0,0.0,-0.0024,-0.0245,-0.0354,-0.0104,-0.066,-0.1079,-0.1054,0.0,0.0,0.0,0.0,0.0,0.0,0.0,-0.1463,-0.134,-0.1838,-0.271,-0.4084,-0.3809,-0.3492,-0.3808,0.0,0.0,-0.1934,-0.2194,-0.2435,-0.1897,-0.1415,-0.1053,-0.0927,-0.0516,-0.0207,0.0,0.0,0.0,0.0,0.0,0.0,0.0,0.0,-0.0887,-0.1382,0.0,-0.2911,0.0,0.0,0.0,0.0,0.0,-0.2037,0.0,0.0,-0.5514,-0.654,-0.5516,-0.5626,-0.594,-0.6247,-0.5261,-0.4606,-0.4306,-0.3602,0.0,0.0,0.0,0.0,0.0,0.0,0.0935,0.0325,-0.2709,-0.4638,-0.5319,-0.5577,-0.6105,-0.6979,-0.8317,-0.9345,-1.0031,-0.8972,-0.8686,-0.9238,-0.6329,0.0,0.0,0.0,0.0,0.0,0.0,0.0,0.0,0.0,0.0,0.0,0.0,0.0,0.0,0.0,0.0,0.0,0.0,0.0,0.0,-0.1779,0.0,0.0,0.0,0.0,0.0,0.0,0.0,0.0,0.0,0.0,-0.0575,-0.1156,-0.0955,0.0962,0.0,0.0,0.0,0.0,0.0659,0.0308,0.0431,0.0254,-0.0381,-0.12,-0.2232,-0.3542,0.0,0.0,-0.6835,-0.5067,-0.3783,-0.5517,-0.513,-0.4186,-0.3018,-0.2959,-0.2815,-0.2308,-0.2195,-0.1867,-0.1228,-0.1059,-0.0753,-0.2596,0.0,0.0,0.0,0.0,-0.0116,-0.1215,-0.2836,-0.3741,-0.4496,-0.5066,-0.5504,0.0,0.0,0.0,0.0,0.0,0.0,-0.2549,-0.3202,-0.4572,-0.5345,-0.5577,-0.6,-0.6442,-0.6861,-0.6879,-0.6821,-0.6727,-0.669,-0.4355,0.0111,0.0,0.0,0.0,0.0,0.0022,-0.114,-0.3187,-0.4353,-0.4455,-0.5195,-0.5943,-0.6768,-0.7551,-0.8244,-0.8815,-0.9127,-0.8958,-0.8343,-0.8022,0.0,0.0,0.0,0.0,0.0,0.0,0.0,0.0,0.0,0.0,0.0,0.0,0.0,0.0,0.0,0.0,0.0,0.0,0.0,-0.2731,-0.3319,-0.314,0.0,0.0,0.0,0.0,0.0,0.0,0.0,0.0,0.0,-0.206,-0.1405,-0.0759,0.0,0.0,-0.0084,-0.0391,-0.0796,-0.1401,-0.2186,-0.2618,0.0,-0.4187,-0.3674,-0.3248,-0.3668,-0.3745,-0.464,-0.7058,-0.6428,-0.5602,-0.5835,-0.5853,-0.5661,-0.5084,-0.5071,-0.5022,-0.4614,-0.4319,-0.4053,-0.3752,-0.3191,-0.2628,-0.2245,-0.1966,-0.185,-0.1742,-0.1646,-0.1918,-0.2693,-0.3873,-0.4734,-0.527,-0.5555,-0.6313,-0.593,-0.4716,-0.4162,0.0,0.0,0.0,-0.2908,-0.3645,-0.398,-0.4427,-0.4948,-0.533,-0.5816,-0.6337,-0.6901,-0.7128,-0.7048,-0.6701,-0.4817,-0.1537,0.0,0.0,0.0865,0.0089,-0.077,-0.1729,-0.3354,-0.4245,-0.4266,-0.5102,-0.5847,-0.6517,-0.6862,-0.7377,-0.8133,-0.8824,-0.9067,-0.8785,-0.9755,-0.885,0.0,0.0,0.0,0.0,0.0,0.0,0.0,0.0,0.0,0.0,0.0,-0.1598,-0.0717,0.0,0.0,0.0,-0.3064,-0.3244,-0.3499,-0.3564,0.0,0.0,0.0,0.0,0.0,0.0,0.0,-0.1339,-0.2127,-0.2734,-0.2763,-0.2035,-0.1416,-0.1255,-0.1031,-0.1013,-0.1385,0.0,-0.2906,-0.3125,-0.3442,-0.3912,-0.4645,-0.4418,-0.426,-0.4697,-0.5044,-0.5568,-0.6648,-0.6601,-0.6131,-0.5696,-0.5761,-0.5868,-0.5494,-0.5589,-0.5649,-0.5238,-0.4923,-0.4608,-0.4261,-0.3753,-0.3251,-0.1024,-0.1307,-0.1616,-0.2163,-0.2861,-0.3187,-0.3243,-0.3231,-0.4182,-0.4268,-0.3867,-0.5662,-0.5646,-0.4213,-0.3751,0.0,-0.4198,-0.3563,-0.3449,-0.373,-0.3711,-0.3745,-0.3849,-0.4008,-0.4433,-0.5088,-0.5704,-0.5995,-0.5868,-0.4691,-0.3837,-0.3353,-0.3395,-0.2467,-0.0718,-0.103,-0.142,-0.1733,-0.3207,-0.4124,-0.4473,-0.5138,-0.5726,-0.6199,-0.6237,-0.6721,-0.7707,-0.8209,-0.8879,-0.9828,-1.1157,-1.1003,-0.9123,0.0,0.0,0.0,0.0,0.0,0.0,0.0,0.0,0.0,0.0,0.0,0.0,0.0,0.0,0.0,-0.4057,0.0,-0.4204,-0.321,0.0,0.0,0.0,-0.2269,-0.302,-0.3068,-0.3029,-0.2926,0.0,0.0,-0.2972,-0.2879,-0.2723,-0.2491,-0.2645,-0.2858,-0.3003,-0.3807,-0.4009,-0.3087,-0.3061,-0.3155,-0.3704,-0.437,-0.5208,-0.5948,-0.6321,-0.6203,-0.6079,-0.5981,-0.5649,-0.5218,-0.5256,-0.5322,-0.4916,-0.4967,-0.4888,-0.4577,-0.4381,-0.4048,-0.3411,-0.3109,-0.2806,0.1223,0.1303,0.1199,-0.0203,-0.2359,-0.2387,-0.2561,-0.2815,-0.2969,-0.332,-0.3822,-0.4402,-0.456,-0.4398,-0.4142,-0.3883,-0.3605,-0.3277,-0.3158,-0.3105,-0.3006,-0.3084,-0.3293,-0.3234,-0.3411,-0.3854,-0.4211,-0.4391,-0.4412,-0.4143,-0.3661,-0.2963,-0.2653,-0.1925,-0.0803,-0.0866,-0.1266,-0.1906,-0.244,-0.3271,-0.4314,-0.4513,-0.4906,-0.5516,-0.5586,-0.5909,-0.6582,-0.6912,-0.7589,-0.8678,-0.9939,-0.9806,-0.8092,-0.6842,0.0,0.0,0.0,0.0,0.0,0.0,0.0,0.0,0.0,-0.1735,-0.0689,0.0,-0.2662,0.0,-0.455,-0.5543,-0.5052,-0.4849,0.0,0.0,-0.2973,-0.2859,-0.316,-0.3476,-0.3484,-0.2961,-0.3263,-0.3576,-0.372,-0.3816,-0.4018,-0.4456,-0.3504,-0.3461,-0.5509,-0.5272,-0.4706,-0.4322,-0.5276,-0.6238,-0.5883,-0.5958,-0.5902,-0.5683,-0.5624,-0.5624,-0.5591,-0.5629,-0.5652,-0.5545,-0.5524,-0.5398,-0.5074,-0.4625,-0.4164,-0.383,-0.3828,-0.3792,-0.3293,-0.2857,-0.2421,0.3487,0.3556,0.3264,0.2104,0.0494,0.018,-0.0268,-0.0774,-0.0872,-0.1475,-0.2448,-0.2945,-0.3501,-0.4011,-0.3655,-0.3366,-0.311,-0.2703,-0.2469,-0.2306,-0.208,-0.2133,-0.2428,-0.2275,-0.2387,-0.2768,-0.2991,-0.3179,-0.3363,-0.3396,-0.3219,-0.2857,-0.2572,-0.1917,-0.0976,-0.0731,-0.0783,-0.1084,-0.1803,-0.2796,-0.4105,-0.4174,-0.418,-0.4228,-0.4204,-0.4256,-0.4372,-0.4608,-0.5162,-0.6044,-0.7085,-0.7314,-0.6532,-0.5655,-0.4529,0.0,0.0,0.0,0.0,0.0,0.0,0.0,0.0,0.0,0.0,0.0,-0.3202,-0.2871,-0.4542,-0.5272,-0.4354,-0.4401,-0.4292,-0.3853,-0.3649,-0.375,-0.4284,-0.4396,-0.4311,-0.4012,-0.419,-0.4444,-0.4611,-0.4693,-0.4869,-0.5273,-0.4508,-0.4525,-0.6015,-0.6055,-0.5639,-0.5259,-0.6078,-0.6708,-0.6486,-0.6284,-0.602,-0.5591,-0.5488,-0.5455,-0.5395,-0.5393,-0.5392,-0.5416,-0.5334,-0.5148,-0.4798,-0.4377,-0.3897,-0.3563,-0.3324,-0.3054,-0.2688,-0.2388,-0.2018,0.562,0.559,0.5,0.46,0.4336,0.363,0.2748,0.1739,0.1408,0.0568,-0.0581,-0.1529,-0.2407,-0.3112,-0.2607,-0.2409,-0.2425,-0.1808,-0.146,-0.1256,-0.1059,-0.1116,-0.137,-0.1286,-0.1454,-0.1874,-0.2015,-0.2238,-0.2541,-0.2541,-0.251,-0.2526,-0.2391,-0.1804,-0.079,-0.0356,-0.0075,0.01,-0.1175,-0.246,-0.3624,-0.3549,-0.3216,-0.2659,-0.2498,-0.2285,-0.1996,-0.2154,-0.2518,-0.3135,-0.3849,-0.4558,-0.5163,-0.4112,-0.3473,0.0,-0.1877,0.0,0.0,0.0,0.0,0.0,0.0,0.0,0.0,-0.3761,-0.3855,-0.3592,-0.4309,-0.4366,-0.3369,-0.3464,-0.3894,-0.4688,-0.4631,-0.4889,-0.5724,-0.5456,-0.5223,-0.531,-0.5194,-0.5221,-0.5343,-0.5392,-0.5399,-0.5383,-0.5324,-0.5396,-0.5818,-0.621,-0.6297,-0.5921,-0.5892,-0.6086,-0.6057,-0.5987,-0.5921,-0.5752,-0.5617,-0.5554,-0.5458,-0.5259,-0.509,-0.5096,-0.497,-0.4737,-0.44,-0.4131,-0.383,-0.3496,-0.2922,-0.2351,-0.2084,-0.1884,-0.1648,0.7014,0.7384,0.7181,0.7056,0.7038,0.679,0.5137,0.2627,0.2196,0.1402,0.0366,-0.0677,-0.1241,-0.1385,-0.1292,-0.0962,-0.0524,-0.0295,0.0054,0.0419,0.0,-0.0245,-0.0336,-0.0756,-0.1037,-0.1122,-0.1345,-0.1598,-0.1824,-0.1654,-0.1214,-0.0562,-0.0349,0.0184,0.1042,0.0,0.0,0.0,-0.0643,-0.1331,-0.1782,-0.1133,-0.088,-0.1096,-0.1027,0.0,-0.1282,-0.1328,-0.1662,-0.2292,-0.2785,0.0,0.0,0.0,0.0,0.0,0.0,0.0,0.0,0.0,0.0,0.0,-0.2877,-0.2693,-0.2711,-0.2637,-0.3006,-0.3965,-0.4313,-0.4583,-0.4858,-0.5346,-0.5684,-0.5791,-0.6014,-0.6127,-0.6074,-0.5876,-0.567,-0.5411,-0.5342,-0.5362,-0.5445,-0.5397,-0.5406,-0.5382,-0.5395,-0.5431,-0.5507,-0.5855,-0.5954,-0.5719,-0.5951,-0.6185,-0.6284,-0.6214,-0.6152,-0.6185,-0.5881,-0.565,-0.5587,-0.5322,-0.5087,-0.5087,-0.4927,-0.4728,-0.4561,-0.4056,-0.3522,-0.3295,-0.269,-0.222,-0.2153,-0.1748,-0.1344,0.8262,0.0,0.8155,0.7973,0.0,0.7562,0.6312,0.4357,0.365,0.2626,0.1394,0.0667,0.0196,0.0,0.0056,0.0028,0.0,0.0384,0.0632,0.0783,0.0632,0.0496,0.0449,0.0196,-0.0057,-0.0316,-0.0374,-0.0604,-0.0891,-0.0701,-0.0459,-0.0191,0.0,0.0275,0.0611,0.0452,0.021,-0.0052,-0.0428,-0.1071,-0.184,-0.1534,-0.1189,-0.0923,-0.1145,0.0,0.0,0.0,0.0,0.0,0.0,0.0,0.0,0.0,0.0,-0.4865,-0.4154,-0.3994,-0.465,-0.4656,-0.4758,-0.5121,-0.4415,-0.3737,-0.3276,-0.3471,-0.401,-0.4875,-0.5072,-0.5217,-0.5422,-0.6039,-0.6382,-0.6273,-0.6538,-0.667,-0.6506,-0.6363,-0.6256,-0.6152,-0.599,-0.5946,-0.6107,-0.5985,-0.5674,-0.5262,-0.5599,-0.5759,-0.551,-0.5693,-0.5888,-0.5885,-0.6115,-0.6317,-0.6387,-0.6354,-0.6251,-0.6222,-0.5958,-0.5723,-0.5591,-0.5289,-0.5054,-0.496,-0.4791,-0.4625,-0.4328,-0.3792,-0.3291,-0.3092,-0.2555,-0.2085,-0.2052,-0.1748,-0.1378,0.9223,0.9106,0.8738,0.8388,0.8031,0.7578,0.6831,0.5864,0.0,0.0,0.0,0.193,0.1482,0.1146,0.1286,0.1034,0.0614,0.1112,0.1309,0.1259,0.1337,0.131,0.1177,0.1149,0.0882,0.0467,0.0528,0.0324,-0.0059,0.0091,0.006,-0.02,-0.0087,-0.0087,-0.0253,-0.0421,-0.047,-0.0349,-0.0321,-0.0869,-0.2014,-0.2043,-0.1628,-0.0803,-0.131,-0.1158,-0.0332,-0.0663,-0.0966,-0.1213,-0.139,-0.1744,-0.2278,-0.2686,-0.3172,-0.3822,-0.4064,-0.4706,-0.5875,-0.5893,-0.6192,-0.697,-0.5781,-0.4777,-0.4212,-0.4644,-0.516,-0.5699,-0.5797,-0.5823,-0.5731,-0.6354,-0.6701,-0.6619,-0.6909,-0.7114,-0.7002,-0.6913,-0.6857,-0.6841,-0.6598,-0.6551,-0.6764,-0.6575,-0.6151,-0.5549,-0.5886,-0.6195,-0.5752,-0.5855,-0.6053,-0.6148,-0.6445,-0.6581,-0.642,-0.6486,-0.6387,-0.6226,-0.6061,-0.5826,-0.5528,-0.5292,-0.509,-0.4924,-0.4725,-0.4492,-0.4159,-0.3727,-0.3293,-0.3159,-0.2587,-0.2052,-0.1951,-0.1816,-0.158,0.9614,0.9666,0.938,0.9014,0.8613,0.8057,0.6988,0.5591,0.4432,0.371,0.335,0.2488,0.2071,0.2043,0.2212,0.2434,0.2676,0.2929,0.3153,0.3342,0.2763,0.2419,0.2238,0.1595,0.1179,0.0991,0.0844,0.0648,0.0443,0.0486,0.0484,0.0382,0.0412,0.0377,0.0281,0.028,0.0084,-0.0222,0.0,-0.0028,-0.0335,0.0251,0.0501,0.0442,0.0166,0.0055,0.011,-0.0192,-0.0378,-0.0525,-0.0786,-0.1752,-0.3498,-0.3799,-0.4752,-0.6607,-0.6831,-0.6904,-0.6963,-0.7203,-0.6888,-0.597,-0.5137,-0.4724,-0.4854,-0.4532,-0.4641,-0.5376,-0.5658,-0.5842,-0.6117,-0.6687,-0.7129,-0.7312,-0.7762,-0.7856,-0.7479,-0.7395,-0.7231,-0.6865,-0.6677,-0.6683,-0.6795,-0.6634,-0.6568,-0.6479,-0.6398,-0.625,-0.6248,-0.6284,-0.6284,-0.6313,-0.6868,-0.7036,-0.6613,-0.6646,-0.6646,-0.6387,-0.6193,-0.5958,-0.5723,-0.5491,-0.5289,-0.509,-0.4855,-0.4625,-0.4492,-0.4059,-0.3758,-0.3625,-0.3155,-0.2721,-0.2287,-0.2153,-0.1918,1.0344,1.0182,0.9784,0.9413,0.9047,0.8084,0.7203,0.6327,0.5332,0.4591,0.407,0.3627,0.3378,0.3292,0.3375,0.335,0.3262,0.349,0.355,0.34,0.3078,0.2836,0.2683,0.2266,0.1854,0.1565,0.1559,0.1389,0.1093,0.1202,0.1191,0.1007,0.1137,0.113,0.0953,0.0893,0.0668,0.0177,-0.0029,-0.028,-0.0588,-0.0336,-0.0335,-0.0669,-0.0977,-0.1257,-0.1368,-0.181,-0.2145,-0.2348,-0.2597,-0.3313,-0.4456,-0.4601,-0.5245,-0.649,-0.6638,-0.6665,-0.6634,-0.6657,-0.6355,-0.5582,-0.5032,-0.4678,-0.4615,-0.451,-0.4695,-0.5332,-0.5883,-0.6285,-0.6414,-0.7111,-0.7616,-0.7711,-0.8007,-0.8159,-0.8016,-0.7745,-0.7587,-0.7497,-0.7279,-0.7196,-0.7381,-0.7187,-0.7122,-0.7251,-0.6882,-0.6586,-0.6671,-0.6745,-0.6745,-0.6572,-0.6868,-0.697,-0.6642,-0.6679,-0.6679,-0.6453,-0.6226,-0.6061,-0.5925,-0.5727,-0.5491,-0.5326,-0.5123,-0.496,-0.4761,-0.4389,-0.409,-0.3892,-0.3589,-0.3155,-0.2824,-0.249,-0.1985,1.1038,1.0721,1.0217,0.9702,0.9126,0.8051,0.7369,0.7004,0.6268,0.5527,0.4924,0.4684,0.4484,0.4346,0.4291,0.4067,0.379,0.3935,0.3824,0.3574,0.3463,0.3337,0.3163,0.2973,0.2619,0.2222,0.2318,0.2203,0.1897,0.2063,0.2012,0.1731,0.1836,0.1796,0.1549,0.1399,0.1115,0.0676,0.0088,-0.0457,-0.0936,-0.107,-0.1317,-0.1624,-0.2045,-0.2354,-0.2551,-0.3095,-0.3542,-0.3778,-0.4045,-0.4402,-0.4883,-0.4938,-0.5199,-0.5734,-0.5914,-0.6009,-0.6046,-0.5888,-0.5657,-0.5359,-0.4921,-0.4589,-0.4428,-0.4522,-0.4855,-0.5392,-0.6104,-0.6571,-0.6725,-0.7352,-0.7879,-0.7854,-0.8036,-0.8166,-0.8252,-0.7954,-0.7759,-0.7977,-0.7717,-0.7582,-0.7792,-0.7657,-0.7554,-0.7563,-0.7307,-0.704,-0.704,-0.7167,-0.7129,-0.7036,-0.7073,-0.7077,-0.6872,-0.6905,-0.6806,-0.6519,-0.6288,-0.616,-0.6061,-0.5892,-0.5686,-0.5491,-0.5359,-0.5193,-0.4927,-0.4625,-0.4392,-0.4228,-0.3959,-0.3589,-0.3194,-0.2825,-0.222,1.1482,1.126,1.0728,0.9805,0.8685,0.8117,0.7536,0.6955,0.6522,0.6241,0.5991,0.5226,0.4897,0.4814,0.4594,0.4598,0.4732,0.4656,0.4715,0.4822,0.4543,0.4279,0.403,0.3648,0.3287,0.3006,0.2995,0.2906,0.2789,0.2973,0.2839,0.2523,0.234,0.2188,0.2026,0.1688,0.1414,0.1231,0.0706,0.0151,-0.044,-0.0655,-0.0869,-0.115,-0.1515,-0.1794,-0.2049,-0.259,-0.2955,-0.3087,-0.3355,-0.3794,-0.4382,-0.4461,-0.4748,-0.5382,-0.5554,-0.5716,-0.5855,-0.5627,-0.5326,-0.5123,-0.4628,-0.4395,-0.4528,-0.4697,-0.4927,-0.5395,-0.5918,-0.6433,-0.6822,-0.7288,-0.7609,-0.7752,-0.7897,-0.7954,-0.7862,-0.7731,-0.7661,-0.7559,-0.7554,-0.7526,-0.7559,-0.7521,-0.7526,-0.7563,-0.7531,-0.7498,-0.7466,-0.7419,-0.7484,-0.7559,-0.7727,-0.7596,-0.7302,-0.7405,-0.7171,-0.6585,-0.6387,-0.6288,-0.616,-0.5991,-0.5822,-0.562,-0.5352,-0.519,-0.509,-0.4891,-0.4761,-0.4597,-0.4331,-0.3997,-0.3429,-0.3092,-0.2723,1.1647,1.1709,1.1014,1.0028,0.9009,0.885,0.84,0.7655,0.73,0.7079,0.6918,0.6426,0.5987,0.566,0.555,0.5527,0.5563,0.5485,0.5426,0.5371,0.5093,0.4882,0.4692,0.4154,0.3845,0.3683,0.3499,0.3259,0.3084,0.3047,0.2929,0.2741,0.2781,0.2706,0.2411,0.2468,0.2262,0.1779,0.1568,0.1266,0.0927,0.0267,-0.0202,-0.0433,-0.0664,-0.0952,-0.136,-0.1813,-0.2254,-0.2575,-0.2892,-0.33,-0.3823,-0.376,-0.3944,-0.4522,-0.4625,-0.4791,-0.5093,-0.4725,-0.4461,-0.4459,-0.4192,-0.4131,-0.4398,-0.4467,-0.4731,-0.5362,-0.5954,-0.6449,-0.6745,-0.7232,-0.7559,-0.7699,-0.7792,-0.7824,-0.7889,-0.7694,-0.7596,-0.7596,-0.7559,-0.7493,-0.7493,-0.7493,-0.7526,-0.7596,-0.7596,-0.7624,-0.7722,-0.7652,-0.7554,-0.7629,-0.7629,-0.7563,-0.7466,-0.74,-0.7171,-0.6815,-0.6519,-0.6354,-0.6288,-0.6057,-0.5855,-0.5789,-0.5517,-0.5352,-0.5292,-0.5193,-0.5096,-0.4897,-0.4534,-0.4167,-0.3727,-0.3426,-0.3025,1.2099,1.1995,1.1266,1.0279,0.9299,0.9445,0.9024,0.826,0.7863,0.7649,0.7547,0.7426,0.7084,0.6593,0.6349,0.6182,0.6114,0.6142,0.6,0.5772,0.5582,0.5413,0.5238,0.468,0.438,0.4336,0.4092,0.3809,0.3624,0.3432,0.3279,0.323,0.3311,0.3228,0.3006,0.313,0.2927,0.2436,0.2319,0.2202,0.1938,0.1272,0.0692,0.0328,0.0,-0.0296,-0.0627,-0.1166,-0.1574,-0.1931,-0.2335,-0.2728,-0.3084,-0.3025,-0.3157,-0.3591,-0.3658,-0.3792,-0.4192,-0.3758,-0.3623,-0.3894,-0.3758,-0.3792,-0.4131,-0.4267,-0.46,-0.5163,-0.5789,-0.6218,-0.6609,-0.7068,-0.7368,-0.747,-0.7536,-0.7634,-0.7727,-0.7559,-0.7493,-0.7596,-0.7559,-0.7493,-0.7493,-0.7493,-0.7526,-0.7596,-0.7661,-0.7624,-0.7754,-0.7619,-0.7517,-0.7563,-0.7302,-0.7302,-0.7531,-0.7433,-0.7138,-0.6979,-0.6749,-0.6679,-0.6482,-0.6156,-0.5958,-0.5888,-0.5719,-0.555,-0.5359,-0.5329,-0.5163,-0.4831,-0.4531,-0.4231,-0.3894,-0.3594,-0.336,1.3019,1.2289,1.1584,1.0571,0.9396,0.9513,0.9079,0.8374,0.7937,0.7723,0.7776,0.7948,0.7826,0.743,0.6798,0.6413,0.6405,0.6458,0.6388,0.6201,0.6103,0.5936,0.5633,0.5143,0.4948,0.5046,0.481,0.4727,0.4792,0.4527,0.4365,0.4182,0.3906,0.3756,0.3678,0.3411,0.3222,0.3119,0.2869,0.2606,0.2433,0.2342,0.1863,0.111,0.0389,0.006,-0.0062,-0.0633,-0.103,-0.1064,-0.1619,-0.2013,-0.2147,-0.2348,-0.2517,-0.272,-0.2753,-0.2889,-0.3125,-0.2922,-0.3021,-0.3556,-0.3357,-0.3426,-0.3894,-0.4131,-0.44,-0.4797,-0.5229,-0.5727,-0.6251,-0.6679,-0.6946,-0.7012,-0.7138,-0.7232,-0.7232,-0.7265,-0.7302,-0.7461,-0.7493,-0.7493,-0.7493,-0.7493,-0.7493,-0.7591,-0.7862,-0.7965,-0.7461,-0.7437,-0.7372,-0.7232,-0.7077,-0.704,-0.7363,-0.7265,-0.7073,-0.6946,-0.6942,-0.7068,-0.6712,-0.6354,-0.6156,-0.5954,-0.5686,-0.5488,-0.5392,-0.5226,-0.499,-0.4725,-0.4561,-0.4295,-0.3928,-0.3894,-0.3661,1.2295,1.1982,1.1929,1.1151,0.9975,1.0022,0.948,0.8533,0.8527,0.855,0.8591,0.864,0.8619,0.8492,0.7928,0.7408,0.6993,0.7007,0.6915,0.6776,0.6656,0.6558,0.6434,0.5973,0.5739,0.5744,0.543,0.5169,0.4953,0.4665,0.4408,0.4284,0.4069,0.3928,0.3928,0.3928,0.3897,0.3863,0.3658,0.3489,0.3347,0.2973,0.2582,0.2275,0.1457,0.0816,0.0381,0.0033,-0.0231,-0.0364,-0.0769,-0.1076,-0.1276,-0.1545,-0.1713,-0.1814,-0.1781,-0.1848,-0.1949,-0.2016,-0.2083,-0.2351,-0.252,-0.2723,-0.3155,-0.3658,-0.4125,-0.4459,-0.4794,-0.5193,-0.5587,-0.6152,-0.6651,-0.6881,-0.6946,-0.6979,-0.7045,-0.7106,-0.7232,-0.7297,-0.7428,-0.7493,-0.7493,-0.7493,-0.7493,-0.7493,-0.7629,-0.7596,-0.7428,-0.7223,-0.7055,-0.697,-0.6782,-0.6613,-0.6605,-0.6806,-0.6843,-0.6778,-0.6745,-0.6548,-0.6222,-0.6057,-0.5859,-0.5752,-0.5517,-0.5355,-0.5226,-0.5093,-0.4827,-0.4528,-0.4361,-0.4192,-0.3861,-0.3761,-0.3629,1.1887,1.1725,1.1969,1.1371,1.0309,1.0406,0.9896,0.9029,0.9035,0.9091,0.9133,0.9126,0.9118,0.9039,0.8817,0.8366,0.7734,0.7553,0.7367,0.7176,0.7056,0.698,0.6824,0.6388,0.6164,0.6224,0.5989,0.5641,0.5355,0.5143,0.4861,0.4549,0.4337,0.4261,0.4228,0.4264,0.4334,0.4331,0.4195,0.4064,0.3951,0.3528,0.316,0.2939,0.2408,0.1765,0.0982,0.0699,0.0538,0.037,0.0034,-0.0302,-0.0538,-0.0739,-0.0908,-0.0942,-0.0875,-0.0907,-0.1109,-0.1177,-0.1312,-0.158,-0.1849,-0.2153,-0.2519,-0.3157,-0.3656,-0.4023,-0.4292,-0.4561,-0.4957,-0.5455,-0.5984,-0.635,-0.6515,-0.6581,-0.6581,-0.6741,-0.6872,-0.6933,-0.7134,-0.7265,-0.733,-0.7423,-0.7461,-0.7428,-0.7293,-0.7162,-0.7167,-0.7031,-0.6741,-0.6679,-0.6416,-0.6251,-0.6181,-0.628,-0.6346,-0.635,-0.6383,-0.6123,-0.5892,-0.576,-0.5624,-0.5488,-0.5355,-0.519,-0.506,-0.493,-0.4631,-0.43,-0.4131,-0.4028,-0.3761,-0.356,-0.3469,1.1922,1.1542,1.1642,1.1136,1.0364,1.0447,1.0234,0.9642,0.9323,0.9201,0.9219,0.9344,0.9271,0.9082,0.9234,0.9032,0.8466,0.8023,0.7631,0.7322,0.7262,0.7107,0.6885,0.6405,0.6224,0.6398,0.6473,0.6348,0.6048,0.5959,0.5681,0.5172,0.4907,0.4728,0.4628,0.4464,0.4431,0.4495,0.4398,0.42,0.4028,0.3905,0.3637,0.3155,0.3078,0.2706,0.1913,0.1412,0.1176,0.121,0.0773,0.0336,0.0101,0.0034,-0.0067,-0.0101,0.0101,-0.0067,-0.0538,-0.0438,-0.0639,-0.1176,-0.1512,-0.1715,-0.2052,-0.2688,-0.3188,-0.3422,-0.3689,-0.3992,-0.4428,-0.4592,-0.4891,-0.5359,-0.5756,-0.5921,-0.5954,-0.6086,-0.6276,-0.647,-0.6741,-0.6909,-0.6979,-0.7265,-0.7396,-0.7134,-0.6811,-0.6576,-0.6708,-0.6666,-0.6568,-0.6276,-0.605,-0.5951,-0.5818,-0.5752,-0.5822,-0.5855,-0.5888,-0.5826,-0.5624,-0.5458,-0.5292,-0.519,-0.5156,-0.5027,-0.4761,-0.4631,-0.4495,-0.4195,-0.4061,-0.3863,-0.3598,-0.3402,-0.3351,1.1602,1.1522,1.1104,1.0726,1.0332,1.0111,0.9691,0.9292,0.9211,0.9277,0.9411,0.9542,0.9465,0.9272,0.9339,0.9101,0.8616,0.8408,0.8063,0.7639,0.7568,0.7351,0.7047,0.6842,0.6647,0.6475,0.6623,0.6606,0.6479,0.6348,0.6173,0.5933,0.5463,0.5256,0.5253,0.4861,0.4697,0.4694,0.4595,0.4398,0.4187,0.3984,0.3783,0.3678,0.3429,0.3062,0.2651,0.2153,0.1816,0.1715,0.1311,0.1008,0.0941,0.1008,0.111,0.1212,0.1312,0.1277,0.0907,0.0672,0.0471,0.0034,-0.0504,-0.0907,-0.1311,-0.2217,-0.2721,-0.2824,-0.3125,-0.3493,-0.3594,-0.3658,-0.4025,-0.4888,-0.5219,-0.5322,-0.5425,-0.5723,-0.6156,-0.6519,-0.6585,-0.6618,-0.6811,-0.7129,-0.7232,-0.6778,-0.6515,-0.642,-0.6346,-0.6247,-0.6079,-0.5815,-0.5719,-0.5686,-0.5624,-0.5591,-0.5591,-0.5624,-0.5627,-0.5591,-0.5392,-0.5126,-0.496,-0.4894,-0.4894,-0.4794,-0.4531,-0.4398,-0.4328,-0.4125,-0.3928,-0.3665,-0.3404,-0.328,-0.326,1.1879,1.1765,1.1174,1.0761,1.048,1.0091,0.982,0.9647,0.9553,0.9606,0.9728,0.975,0.9583,0.9293,0.9239,0.9022,0.8676,0.8526,0.8176,0.7777,0.7756,0.7568,0.7219,0.695,0.6785,0.6643,0.6802,0.69,0.6899,0.6885,0.6759,0.6465,0.5954,0.5653,0.5653,0.519,0.4927,0.499,0.4815,0.4647,0.4461,0.424,0.4108,0.4066,0.3893,0.3633,0.332,0.2958,0.252,0.2085,0.1748,0.1648,0.1714,0.1882,0.2049,0.2083,0.2118,0.2051,0.1781,0.1344,0.1143,0.0873,0.0101,-0.0403,-0.0706,-0.1646,-0.2218,-0.2287,-0.2622,-0.2926,-0.3023,-0.3092,-0.3458,-0.402,-0.4456,-0.4725,-0.4924,-0.5259,-0.5561,-0.5859,-0.5958,-0.6115,-0.6342,-0.6704,-0.6872,-0.6449,-0.6387,-0.6321,-0.6119,-0.5855,-0.5719,-0.5587,-0.5557,-0.5524,-0.5425,-0.5428,-0.5428,-0.5428,-0.5462,-0.5359,-0.5223,-0.4864,-0.4597,-0.4597,-0.4597,-0.4564,-0.4367,-0.44,-0.4331,-0.4061,-0.3792,-0.3594,-0.3402,-0.3286,-0.3267,1.2586,1.2157,1.1627,1.1127,1.0663,1.0327,1.0255,1.0439,1.0179,0.9953,0.9977,0.9861,0.9578,0.9208,0.9034,0.8891,0.869,0.8384,0.8059,0.7815,0.7783,0.7708,0.7413,0.6869,0.6706,0.6887,0.7056,0.722,0.7373,0.7506,0.7396,0.6773,0.6375,0.6046,0.5888,0.5385,0.5289,0.5375,0.5107,0.4925,0.4848,0.4631,0.4499,0.4353,0.4422,0.4279,0.3854,0.3689,0.3257,0.2421,0.2253,0.2321,0.2485,0.2653,0.2653,0.2651,0.2718,0.2618,0.2249,0.1981,0.1579,0.1411,0.0604,-0.0168,-0.0168,-0.0941,-0.1613,-0.1849,-0.2119,-0.2421,-0.2621,-0.2822,-0.2989,-0.309,-0.3692,-0.4159,-0.4528,-0.4731,-0.493,-0.5027,-0.5193,-0.5458,-0.565,-0.6083,-0.6214,-0.6214,-0.6218,-0.609,-0.5921,-0.569,-0.5557,-0.5491,-0.5458,-0.5458,-0.5395,-0.5395,-0.5395,-0.5395,-0.5362,-0.5226,-0.5057,-0.4664,-0.44,-0.4367,-0.4367,-0.43,-0.4267,-0.4267,-0.4164,-0.3861,-0.3661,-0.3558,-0.3439,-0.3328,-0.3287,1.2737,1.2268,1.1249,1.0806,1.0663,1.0102,0.9794,0.979,0.9821,0.9798,0.9632,0.9616,0.9383,0.8938,0.8826,0.8551,0.8242,0.8096,0.8003,0.7848,0.775,0.7643,0.7461,0.7117,0.7046,0.7285,0.7423,0.7589,0.7642,0.7827,0.7712,0.7297,0.6872,0.6548,0.6251,0.5855,0.5785,0.5851,0.5486,0.5304,0.5285,0.4851,0.4628,0.4665,0.4618,0.4461,0.4163,0.4018,0.3654,0.3025,0.2824,0.2989,0.3389,0.3393,0.3527,0.3889,0.3756,0.3692,0.3618,0.332,0.2887,0.235,0.151,0.0873,0.0235,-0.0403,-0.0974,-0.1344,-0.158,-0.1816,-0.2218,-0.2388,-0.2589,-0.2958,-0.3393,-0.383,-0.4231,-0.4434,-0.4564,-0.4927,-0.5087,-0.5256,-0.5422,-0.5557,-0.5723,-0.5752,-0.5756,-0.5727,-0.5657,-0.5557,-0.5458,-0.5425,-0.5428,-0.5428,-0.5395,-0.5395,-0.5395,-0.5395,-0.5329,-0.5196,-0.4927,-0.4564,-0.44,-0.4336,-0.4267,-0.4233,-0.4131,-0.4097,-0.3861,-0.3661,-0.3596,-0.3498,-0.3387,-0.3275,-0.3346,1.3031,1.2357,1.1523,1.1106,1.0911,1.0342,1.0051,1.0035,1.0115,1.0038,0.9882,0.9879,0.9575,0.9112,0.8868,0.8509,0.8117,0.7888,0.7755,0.7699,0.7536,0.7456,0.743,0.7296,0.7389,0.7672,0.7702,0.7847,0.8008,0.8101,0.7945,0.7679,0.7335,0.6979,0.6585,0.6288,0.6148,0.6154,0.587,0.5732,0.569,0.5269,0.5015,0.4954,0.4823,0.4745,0.464,0.4619,0.4356,0.3925,0.3789,0.399,0.4392,0.4361,0.4564,0.509,0.4794,0.4625,0.4522,0.4256,0.3723,0.3019,0.2246,0.151,0.084,0.0134,-0.0605,-0.0806,-0.1109,-0.1445,-0.1748,-0.2052,-0.2388,-0.2788,-0.3125,-0.3496,-0.403,-0.4131,-0.4364,-0.4661,-0.4858,-0.4957,-0.5126,-0.516,-0.5292,-0.5422,-0.5491,-0.5491,-0.5491,-0.5425,-0.5395,-0.5395,-0.5395,-0.5395,-0.5395,-0.5395,-0.5395,-0.5395,-0.516,-0.503,-0.4764,-0.4431,-0.4367,-0.4303,-0.4233,-0.4133,-0.403,-0.3928,-0.3761,-0.3627,-0.3565,-0.3435,-0.332,-0.3264,-0.3305,1.3293,1.2488,1.2132,1.1662,1.1148,1.0851,1.0534,1.0565,1.0579,1.0432,1.0219,1.0249,0.9885,0.9479,0.8988,0.8673,0.8367,0.7954,0.7685,0.7563,0.7421,0.7378,0.7645,0.7594,0.7761,0.8032,0.7891,0.8132,0.8366,0.832,0.817,0.7981,0.7697,0.7381,0.7031,0.6712,0.6519,0.6596,0.6402,0.622,0.6136,0.5859,0.5605,0.5275,0.514,0.5157,0.5223,0.5309,0.5259,0.4858,0.4851,0.4954,0.5329,0.5428,0.5591,0.5789,0.5624,0.5355,0.5219,0.4855,0.4256,0.362,0.2681,0.1879,0.1377,0.047,-0.0168,-0.0403,-0.0875,-0.1144,-0.1412,-0.1816,-0.2253,-0.2587,-0.2855,-0.3257,-0.3658,-0.3894,-0.4064,-0.4267,-0.4495,-0.4658,-0.4761,-0.4861,-0.4994,-0.5392,-0.5428,-0.5428,-0.5359,-0.5263,-0.5329,-0.5395,-0.5395,-0.5359,-0.5395,-0.5395,-0.5395,-0.5362,-0.5027,-0.4794,-0.4567,-0.4334,-0.4334,-0.4267,-0.4167,-0.4064,-0.3961,-0.3828,-0.3661,-0.3527,-0.3395,-0.3328,-0.3265,-0.3238,-0.3267,1.3391,1.2469,1.2012,1.1567,1.1086,1.061,1.0087,0.9659,1.0078,1.0063,0.964,0.9753,0.9708,0.9417,0.9081,0.8735,0.8495,0.8224,0.8089,0.779,0.7644,0.779,0.8018,0.8022,0.8178,0.8446,0.8543,0.8627,0.866,0.8485,0.8358,0.8292,0.7858,0.7624,0.766,0.7242,0.7269,0.7479,0.7182,0.687,0.6752,0.6529,0.6149,0.5708,0.5488,0.5491,0.5714,0.5915,0.6115,0.602,0.5587,0.5418,0.5756,0.5686,0.5918,0.6313,0.6181,0.6079,0.6181,0.5785,0.519,0.4389,0.3518,0.2649,0.1445,0.0907,0.0269,-0.0135,-0.0438,-0.074,-0.111,-0.1614,-0.2018,-0.2319,-0.2721,-0.3125,-0.3493,-0.3727,-0.3997,-0.4267,-0.4464,-0.4658,-0.4794,-0.5063,-0.5229,-0.5362,-0.5395,-0.5395,-0.5296,-0.513,-0.5163,-0.5229,-0.5226,-0.5193,-0.5229,-0.5229,-0.5196,-0.513,-0.4827,-0.4628,-0.44,-0.4233,-0.42,-0.4167,-0.4131,-0.3997,-0.3861,-0.3663,-0.3496,-0.3395,-0.3261,-0.3228,-0.3159,-0.3159,-0.2991,1.2545,1.17,1.1473,1.1225,1.0955,1.0753,1.0298,0.9912,1.0325,1.0245,0.986,1.0078,1.0056,0.9779,0.9425,0.9118,0.8705,0.8409,0.8206,0.7987,0.7926,0.8109,0.8416,0.8516,0.8622,0.8855,0.8783,0.8757,0.8655,0.8487,0.8307,0.8275,0.7921,0.7835,0.789,0.7575,0.7506,0.7602,0.7383,0.7117,0.6993,0.6701,0.6285,0.5946,0.5807,0.5938,0.6043,0.6359,0.6638,0.6745,0.6474,0.6309,0.6519,0.6346,0.6511,0.6937,0.6839,0.6704,0.6773,0.6478,0.5848,0.4984,0.412,0.3153,0.2048,0.131,0.074,0.0337,-0.0034,-0.0505,-0.0909,-0.1346,-0.1716,-0.2085,-0.2554,-0.2989,-0.3326,-0.3661,-0.3997,-0.4267,-0.4498,-0.4592,-0.4791,-0.503,-0.5193,-0.5193,-0.5093,-0.5093,-0.5156,-0.5027,-0.493,-0.496,-0.4994,-0.4994,-0.506,-0.503,-0.4927,-0.4797,-0.4564,-0.4467,-0.4334,-0.4167,-0.4064,-0.3997,-0.3961,-0.383,-0.3663,-0.3498,-0.3362,-0.3295,-0.3228,-0.3125,-0.3025,-0.2956,-0.2654,1.1414,1.071,1.0717,1.069,1.0656,1.0767,1.0506,1.0187,1.0733,1.0472,1.0323,1.0577,1.0456,1.0197,0.9897,0.9482,0.9016,0.8635,0.8388,0.8273,0.8112,0.8326,0.8593,0.8711,0.8789,0.9035,0.8956,0.8834,0.8712,0.8483,0.8402,0.8167,0.7953,0.7925,0.7859,0.7665,0.7572,0.7572,0.7539,0.7242,0.7032,0.6745,0.6458,0.6164,0.6298,0.6441,0.6515,0.6798,0.7101,0.7293,0.7489,0.7624,0.7559,0.7171,0.7068,0.7694,0.7433,0.7265,0.7171,0.6872,0.6309,0.5441,0.4417,0.3522,0.2618,0.1646,0.1042,0.0673,0.0269,-0.0371,-0.0708,-0.1044,-0.1413,-0.1817,-0.2318,-0.2787,-0.3159,-0.3627,-0.3997,-0.4164,-0.4295,-0.4395,-0.4528,-0.4731,-0.4894,-0.499,-0.4861,-0.4827,-0.4891,-0.4891,-0.4761,-0.4794,-0.4827,-0.4824,-0.4861,-0.4703,-0.4637,-0.4561,-0.4331,-0.4167,-0.4133,-0.403,-0.3894,-0.3828,-0.3761,-0.3663,-0.3529,-0.3395,-0.3295,-0.3228,-0.3159,-0.3092,-0.2922,-0.272,-0.2319,1.0923,1.0342,1.0046,0.9873,0.9826,0.998,0.9836,0.9518,1.0057,0.9977,0.9714,1.0314,1.0445,1.0126,1.0078,0.9705,0.9234,0.8921,0.8836,0.8623,0.841,0.846,0.8712,0.8672,0.8696,0.8974,0.9065,0.9049,0.8889,0.8795,0.851,0.855,0.8046,0.7826,0.7938,0.7795,0.7585,0.7671,0.7797,0.768,0.73,0.7345,0.7209,0.68,0.6952,0.7022,0.7101,0.7358,0.7647,0.7869,0.7999,0.8318,0.8409,0.7869,0.7717,0.7912,0.7824,0.7629,0.7596,0.7138,0.6609,0.5844,0.4749,0.3618,0.2751,0.1814,0.1143,0.0773,0.037,-0.0169,-0.0506,-0.0673,-0.1078,-0.158,-0.2049,-0.2519,-0.2956,-0.3357,-0.3694,-0.3725,-0.3928,-0.4128,-0.4231,-0.4298,-0.4428,-0.4525,-0.4528,-0.4528,-0.4595,-0.4595,-0.4498,-0.4561,-0.4691,-0.4658,-0.4658,-0.4439,-0.4311,-0.4298,-0.4095,-0.3727,-0.3694,-0.3758,-0.3725,-0.3658,-0.3627,-0.3563,-0.3429,-0.3295,-0.3261,-0.3228,-0.3159,-0.3092,-0.2788,-0.2453,-0.1982,1.0279,0.959,0.9436,0.9395,0.9487,0.9725,0.9599,0.9414,0.9782,0.9816,0.9766,1.0157,1.0327,1.0133,1.0163,0.985,0.9319,0.9098,0.9025,0.8849,0.8735,0.8716,0.8953,0.8728,0.8792,0.8946,0.8993,0.8842,0.8622,0.8433,0.8372,0.8149,0.7771,0.7767,0.7932,0.7907,0.7705,0.7748,0.7876,0.7825,0.7378,0.7655,0.7563,0.7347,0.7514,0.767,0.7689,0.7939,0.8199,0.8393,0.856,0.8909,0.8967,0.8748,0.8306,0.8463,0.8209,0.8019,0.7959,0.7503,0.6839,0.6207,0.4978,0.3816,0.2883,0.1946,0.121,0.0874,0.0774,0.0438,0.0101,-0.0135,-0.0471,-0.0975,-0.1478,-0.1882,-0.2252,-0.2619,-0.2855,-0.3056,-0.3293,-0.3527,-0.3763,-0.3863,-0.3961,-0.4028,-0.4095,-0.4128,-0.4195,-0.4161,-0.4064,-0.4159,-0.4198,-0.4113,-0.4081,-0.3917,-0.372,-0.3732,-0.3761,-0.336,-0.3259,-0.3357,-0.3424,-0.3424,-0.3395,-0.3395,-0.3362,-0.3228,-0.3228,-0.3192,-0.3125,-0.2991,-0.2589,-0.2151,-0.1648,0.9652,0.8921,0.8933,0.899,0.9101,0.9449,0.9531,0.9467,0.9821,0.992,0.9847,1.0251,1.0323,1.0083,0.9987,0.9735,0.9144,0.9032,0.9045,0.8949,0.8948,0.9049,0.9029,0.8927,0.8779,0.8673,0.8483,0.8355,0.8279,0.8198,0.7932,0.7744,0.766,0.7595,0.7594,0.7717,0.7739,0.77,0.7735,0.7642,0.7561,0.7736,0.7776,0.746,0.8028,0.8366,0.8274,0.8495,0.8721,0.8856,0.9022,0.928,0.9606,0.9291,0.9092,0.9081,0.8657,0.8501,0.8312,0.7889,0.7228,0.6634,0.5279,0.4181,0.3249,0.2281,0.1344,0.1008,0.1042,0.0975,0.0571,0.0403,0.0067,-0.037,-0.0806,-0.1176,-0.1512,-0.1848,-0.2084,-0.2319,-0.2622,-0.2857,-0.3056,-0.3326,-0.3391,-0.3527,-0.3594,-0.3155,-0.3222,-0.3491,-0.3502,-0.358,-0.3605,-0.3457,-0.3362,-0.3263,-0.3014,-0.2827,-0.2958,-0.2824,-0.2857,-0.2924,-0.2991,-0.3056,-0.3159,-0.3159,-0.3159,-0.3192,-0.3159,-0.3125,-0.3092,-0.2824,-0.2353,-0.1816,-0.1278,0.9182,0.8874,0.8551,0.834,0.8352,0.8828,0.912,0.9313,0.992,1.0254,1.0098,1.0483,1.0325,0.9886,0.9649,0.9258,0.897,0.9079,0.9119,0.8958,0.8958,0.8958,0.8804,0.8456,0.8381,0.8318,0.7921,0.7958,0.8062,0.8137,0.8009,0.7663,0.7429,0.7295,0.722,0.7384,0.7301,0.7318,0.7739,0.7937,0.792,0.8207,0.8257,0.8368,0.8731,0.9043,0.892,0.9049,0.9177,0.921,0.9344,0.9542,0.974,0.9734,0.9766,0.9664,0.9338,0.8888,0.8732,0.8209,0.7619,0.6868,0.5712,0.4749,0.3618,0.2653,0.1715,0.1143,0.1344,0.1344,0.0941,0.0638,0.0336,0.0,-0.037,-0.074,-0.1076,-0.1043,-0.1278,-0.1481,-0.1748,-0.2049,-0.2283,-0.2586,-0.2855,-0.2956,-0.2956,-0.2519,-0.2351,-0.2686,-0.2963,-0.3065,-0.2993,-0.2845,-0.2576,-0.2475,-0.2377,-0.2079,-0.2168,-0.2331,-0.2488,-0.2589,-0.2522,-0.2621,-0.2755,-0.2922,-0.2958,-0.2991,-0.3058,-0.2991,-0.279,-0.2455,-0.2018,-0.148,-0.0942,0.8886,0.8551,0.8334,0.8305,0.8444,0.8854,0.9128,0.9385,0.9726,0.9856,0.9833,1.0052,0.9989,0.9673,0.9444,0.9198,0.9024,0.9098,0.9145,0.9016,0.8982,0.8936,0.8738,0.8407,0.8168,0.7955,0.7714,0.7589,0.7757,0.7741,0.7606,0.7409,0.7268,0.7079,0.7004,0.709,0.7144,0.7252,0.758,0.7976,0.8202,0.8485,0.8759,0.8908,0.9431,0.9532,0.9504,0.9504,0.9504,0.9472,0.9478,0.958,0.974,0.9798,0.9862,1.0117,0.9792,0.9434,0.9049,0.8371,0.7722,0.6933,0.5811,0.4553,0.3487,0.2688,0.2153,0.1782,0.1849,0.1748,0.1479,0.1244,0.0974,0.0605,0.0202,-0.0067,-0.0303,-0.0404,-0.0472,-0.064,-0.0841,-0.1177,-0.1479,-0.1781,-0.2049,-0.2217,-0.2217,-0.1949,-0.1882,-0.2118,-0.2362,-0.2512,-0.2404,-0.2249,-0.19,-0.1655,-0.1719,-0.1546,-0.1624,-0.182,-0.2162,-0.2253,-0.2186,-0.222,-0.2388,-0.2555,-0.269,-0.2824,-0.2891,-0.269,-0.2421,-0.2017,-0.1648,-0.1244,-0.0673,0.8823,0.8518,0.8385,0.8433,0.8518,0.8883,0.9086,0.9251,0.9531,0.9545,0.9378,0.9426,0.9451,0.943,0.9163,0.8944,0.8956,0.8923,0.8982,0.9035,0.8982,0.8883,0.8646,0.8354,0.7975,0.7848,0.7521,0.7376,0.729,0.7263,0.7241,0.7106,0.7133,0.7025,0.695,0.7112,0.7279,0.7413,0.7639,0.7928,0.8229,0.8663,0.8953,0.9296,0.97,0.9958,0.9868,0.9836,0.9734,0.9612,0.9574,0.9644,0.9708,0.9804,0.9958,1.0085,0.9888,0.9664,0.921,0.8598,0.7722,0.6863,0.5741,0.442,0.3188,0.2555,0.2322,0.2221,0.2287,0.2186,0.2018,0.1816,0.1479,0.1176,0.0908,0.0707,0.0472,0.0236,0.0067,-0.0101,-0.027,-0.0371,-0.0674,-0.0942,-0.1178,-0.1446,-0.1412,-0.1344,-0.1447,-0.1616,-0.1733,-0.1917,-0.1762,-0.1666,-0.154,-0.1211,-0.1168,-0.1084,-0.1138,-0.1257,-0.1579,-0.1761,-0.1751,-0.1851,-0.1985,-0.2085,-0.2151,-0.2453,-0.2656,-0.2285,-0.1916,-0.1613,-0.1244,-0.0874,-0.0437,0.9167,0.9109,0.8864,0.857,0.8327,0.865,0.8856,0.9018,0.9469,0.9462,0.9168,0.8906,0.8906,0.8931,0.8751,0.8559,0.8501,0.8573,0.8738,0.8771,0.8692,0.8685,0.8507,0.8156,0.775,0.7643,0.7375,0.7192,0.7139,0.7166,0.7139,0.7106,0.7085,0.7079,0.7112,0.7252,0.7542,0.7676,0.7842,0.7919,0.8233,0.8632,0.9057,0.9201,0.9655,0.9989,0.9983,0.9989,0.9926,0.9804,0.974,0.9676,0.9676,0.9804,0.9989,0.9919,0.9754,0.9594,0.9312,0.8727,0.8144,0.726,0.5972,0.4453,0.3357,0.3192,0.2926,0.2557,0.2589,0.2522,0.2321,0.2085,0.1748,0.1513,0.1278,0.1043,0.0808,0.0607,0.0472,0.0405,0.027,0.0101,-0.0101,-0.0438,-0.0909,-0.1211,-0.111,-0.1009,-0.1012,-0.1117,-0.1166,-0.1183,-0.1109,-0.1101,-0.1275,-0.109,-0.0825,-0.0739,-0.0799,-0.0819,-0.0942,-0.1067,-0.1315,-0.1381,-0.1514,-0.1581,-0.1614,-0.1748,-0.1816,-0.1648,-0.1378,-0.1042,-0.074,-0.037,-0.0034,0.9524,0.942,0.933,0.9097,0.8831,0.9144,0.9292,0.9321,0.9438,0.9286,0.8956,0.8728,0.8754,0.8821,0.8621,0.856,0.8692,0.8527,0.8633,0.8692,0.8692,0.8553,0.8315,0.8023,0.7649,0.7461,0.7219,0.7106,0.7112,0.7112,0.7106,0.7085,0.7058,0.6982,0.709,0.7386,0.7649,0.7883,0.8047,0.817,0.8527,0.8887,0.932,0.9597,1.0053,1.0288,1.0212,1.018,1.0085,0.9958,0.9868,0.9772,0.9708,0.9836,0.983,0.9754,0.9556,0.9434,0.9087,0.8436,0.7591,0.647,0.5448,0.4589,0.3727,0.3627,0.336,0.3092,0.2857,0.2757,0.2423,0.2119,0.1816,0.1715,0.158,0.1412,0.1244,0.1077,0.0876,0.0842,0.0674,0.0472,0.0236,0.0,-0.0505,-0.0975,-0.0841,-0.0708,-0.0712,-0.0685,-0.073,-0.0742,-0.0653,-0.0591,-0.0755,-0.061,0.0,-0.0454,-0.0482,-0.0545,-0.0604,-0.0755,-0.0945,-0.0977,-0.098,-0.0983,-0.1017,-0.1012,-0.0976,-0.0942,-0.074,-0.0471,-0.0168,0.0101,0.0337,0.9895,0.9803,0.9751,0.955,0.9316,0.9413,0.9465,0.9389,0.9274,0.911,0.8846,0.8683,0.8798,0.8884,0.8659,0.8613,0.8718,0.856,0.856,0.856,0.8474,0.8368,0.8156,0.7889,0.7622,0.7359,0.7225,0.7166,0.7106,0.7139,0.7139,0.7112,0.7068,0.7068,0.7198,0.7494,0.7809,0.8043,0.8201,0.8487,0.8852,0.9233,0.9613,0.9972,1.0401,1.0541,1.0434,1.0371,1.0269,1.0142,1.0021,0.9926,0.9894,0.983,0.9766,0.9626,0.946,0.9236,0.8765,0.7954,0.697,0.5848,0.5455,0.4791,0.4228,0.3894,0.3627,0.3328,0.3125,0.2924,0.2591,0.2421,0.2218,0.2151,0.2285,0.2151,0.1915,0.1747,0.148,0.1278,0.1111,0.091,0.0472,0.0236,-0.0169,-0.0506,-0.0269,-0.0306,-0.0483,-0.0453,-0.0425,-0.0397,-0.0368,-0.0261,-0.0227,0.0,0.0,-0.0231,-0.0264,-0.0334,-0.0434,-0.0525,-0.0621,-0.0698,-0.0628,-0.0483,-0.0446,-0.0481,-0.0408,-0.0269,-0.0101,0.0067,0.0202,0.0438,0.0506,1.029,1.0239,1.0076,0.9784,0.9446,0.9263,0.9185,0.9106,0.8944,0.8931,0.8959,0.8744,0.8844,0.9018,0.8738,0.8666,0.8692,0.846,0.8374,0.8474,0.8315,0.8189,0.8109,0.7943,0.7649,0.7494,0.7333,0.7198,0.7139,0.7225,0.7198,0.7246,0.7306,0.7419,0.7521,0.7928,0.8248,0.8374,0.8427,0.8695,0.9087,0.9497,0.9885,1.0151,1.0626,1.0769,1.0618,1.0561,1.0491,1.0364,1.0238,1.011,0.9951,0.9919,0.9824,0.967,0.937,0.9145,0.8856,0.7819,0.6708,0.5752,0.5491,0.509,0.4325,0.4025,0.4028,0.3828,0.3493,0.3157,0.2989,0.2922,0.2788,0.2721,0.2822,0.2788,0.2552,0.2283,0.2016,0.1889,0.1685,0.1381,0.0844,0.0406,0.0102,0.0,0.0236,0.0171,-0.007,-0.0143,-0.0073,-0.011,-0.0075,-0.0114,0.0,0.0,0.0,0.0,-0.0077,-0.0189,-0.0187,-0.022,-0.0327,-0.0399,-0.0323,-0.0177,-0.007,-0.0035,0.0139,0.0276,0.0372,0.0505,0.0641,0.0708,0.0775,1.0573,1.0573,1.0393,1.0213,0.9973,0.9688,0.9472,0.9237,0.9041,0.8971,0.8971,0.8798,0.8884,0.8984,0.8845,0.8685,0.8725,0.8507,0.8448,0.8421,0.8262,0.8129,0.8055,0.7949,0.7708,0.7521,0.7365,0.7359,0.7381,0.7392,0.7365,0.7413,0.7681,0.7901,0.8029,0.8321,0.8606,0.887,0.8904,0.8998,0.9377,0.9796,1.0098,1.0255,1.0819,1.0982,1.0737,1.0744,1.0649,1.0555,1.0428,1.018,0.9919,0.9824,0.9524,0.9183,0.8791,0.8333,0.7917,0.7171,0.6651,0.6057,0.5756,0.5554,0.5027,0.4954,0.4791,0.4492,0.4092,0.3854,0.3856,0.3623,0.3456,0.3355,0.3355,0.3255,0.3021,0.2753,0.252,0.2538,0.2409,0.1966,0.1459,0.1037,0.0691,0.0594,0.084,0.0662,0.0389,0.0329,0.0337,0.0188,0.0153,0.0077,0.0,0.0,0.0,0.0,0.0039,-0.0039,-0.0038,0.0,0.0037,-0.0037,0.0037,0.0109,0.0254,0.0433,0.0646,0.0817,0.0799,0.082,0.0887,0.095,0.1009,1.0744,1.059,1.0462,1.0324,1.011,0.9929,0.9714,0.9413,0.9204,0.9133,0.9061,0.8989,0.9035,0.9054,0.8923,0.8765,0.8857,0.858,0.8468,0.8474,0.8421,0.8295,0.8135,0.8008,0.7869,0.7655,0.7574,0.7547,0.7568,0.7553,0.7634,0.7815,0.8088,0.8262,0.8421,0.8653,0.887,0.9087,0.9115,0.9335,0.9771,1.0172,1.0418,1.0732,1.104,1.1185,1.0958,1.0832,1.0769,1.0649,1.0434,1.0117,0.9856,0.9594,0.93,0.8888,0.8242,0.7787,0.733,0.7073,0.6683,0.635,0.6276,0.6017,0.569,0.5517,0.5385,0.512,0.4818,0.4589,0.4422,0.4189,0.4192,0.4092,0.4033,0.3933,0.3684,0.3414,0.3211,0.3229,0.3066,0.2584,0.2146,0.174,0.1344,0.1362,0.1415,0.1157,0.0866,0.0744,0.0649,0.0461,0.0386,0.035,0.0313,0.0,0.0,0.0,0.0157,0.0079,0.0235,0.0309,0.0341,0.0374,0.0376,0.0414,0.0634,0.0852,0.0952,0.1048,0.1067,0.1086,0.1143,0.1131,0.1154,1.0812,1.0429,1.036,1.0162,0.9903,0.9973,0.9792,0.9439,0.9413,0.9342,0.9211,0.9211,0.9185,0.9159,0.9035,0.8982,0.8956,0.8712,0.8659,0.8573,0.8527,0.8421,0.8368,0.8268,0.8109,0.7975,0.7895,0.7815,0.775,0.7842,0.8008,0.8162,0.8348,0.8553,0.8758,0.8916,0.9087,0.9166,0.9292,0.9626,1.0092,1.0401,1.074,1.1086,1.137,1.1327,1.1115,1.0958,1.0769,1.0555,1.0276,1.0079,0.9888,0.9652,0.9332,0.8791,0.7944,0.7591,0.7232,0.7007,0.7012,0.6811,0.6634,0.6309,0.6115,0.6013,0.5914,0.5683,0.5385,0.509,0.4824,0.4864,0.4933,0.4909,0.4888,0.4708,0.447,0.4233,0.4042,0.3918,0.3737,0.3388,0.2938,0.2525,0.2078,0.2219,0.2132,0.1651,0.1353,0.099,0.0855,0.0662,0.0586,0.0588,0.0589,0.0511,0.0629,0.0629,0.0314,0.0236,0.0393,0.0589,0.062,0.0654,0.0662,0.0739,0.0919,0.1054,0.1148,0.1209,0.1249,0.1264,0.1288,0.1186,0.1207,1.0794,1.0744,1.0718,1.0573,1.0316,1.0239,0.9999,0.9714,0.9688,0.9603,0.9465,0.9387,0.9316,0.9211,0.9133,0.9035,0.8929,0.8877,0.8824,0.8745,0.8666,0.8606,0.8527,0.8468,0.8368,0.8268,0.8162,0.8109,0.8182,0.8242,0.8295,0.8474,0.8613,0.8844,0.8995,0.9126,0.9211,0.9237,0.9361,0.9787,1.0202,1.0492,1.0894,1.1224,1.1642,1.15,1.124,1.1115,1.0895,1.0555,1.0339,1.0079,0.962,0.93,0.8882,0.8047,0.7689,0.7531,0.7269,0.7269,0.7302,0.7302,0.7195,0.7003,0.6778,0.6581,0.6515,0.6247,0.6043,0.5796,0.5647,0.5654,0.5626,0.5569,0.5518,0.5308,0.5073,0.4927,0.4734,0.4545,0.4402,0.4157,0.3734,0.3167,0.2824,0.2978,0.2883,0.2345,0.1819,0.1484,0.1177,0.0982,0.0904,0.0943,0.0825,0.0746,0.0904,0.0983,0.0746,0.0629,0.0904,0.1061,0.0983,0.0982,0.0983,0.1059,0.1171,0.1268,0.1326,0.1341,0.1382,0.1392,0.14,0.1373,0.1419,1.0433,1.0677,1.058,1.0431,1.0231,1.0138,0.9936,0.9715,0.981,0.9792,0.9681,0.9577,0.9472,0.929,0.9263,0.9159,0.8903,0.8956,0.8936,0.8883,0.8837,0.8692,0.8633,0.8547,0.8421,0.8321,0.8268,0.8221,0.8348,0.8421,0.848,0.8666,0.8857,0.9054,0.9283,0.9498,0.955,0.9465,0.9516,0.9846,1.0247,1.0605,1.0872,1.127,1.1712,1.15,1.1233,1.1108,1.0706,1.0263,0.9977,0.9536,0.9113,0.8759,0.8501,0.7787,0.7624,0.7526,0.7363,0.7493,0.7493,0.7559,0.7624,0.7531,0.7335,0.7138,0.704,0.6881,0.6747,0.6601,0.6524,0.6421,0.631,0.6154,0.6004,0.5817,0.5672,0.5561,0.5368,0.5173,0.5011,0.4844,0.4407,0.3823,0.3546,0.3699,0.3568,0.309,0.2544,0.2035,0.1688,0.1454,0.1375,0.1336,0.1179,0.11,0.1297,0.1454,0.1375,0.1336,0.1533,0.1493,0.1415,0.1375,0.1375,0.1412,0.1489,0.1412,0.1443,0.1533,0.165,0.1738,0.1791,0.1705,0.1828,0.9891,1.0357,1.0105,0.9967,0.9814,0.9804,0.968,0.9452,0.9775,0.9895,0.9799,0.9799,0.9629,0.9394,0.9361,0.9211,0.9035,0.8989,0.9015,0.8989,0.8883,0.8771,0.8606,0.8501,0.8454,0.8295,0.8242,0.8321,0.8268,0.8348,0.8533,0.8785,0.9035,0.9239,0.9475,0.993,1.0023,0.9907,0.9909,1.012,1.0591,1.081,1.088,1.1311,1.1356,1.1195,1.093,1.0591,1.0168,0.9684,0.9274,0.8867,0.8506,0.8306,0.8079,0.7917,0.7689,0.7624,0.7559,0.7661,0.7657,0.7689,0.7824,0.7792,0.7661,0.7563,0.7461,0.7395,0.7243,0.7133,0.7039,0.69,0.6745,0.6611,0.6446,0.6244,0.6059,0.5939,0.5842,0.567,0.5587,0.5452,0.5327,0.4809,0.457,0.4604,0.4284,0.3827,0.3385,0.2781,0.2316,0.2004,0.1728,0.1689,0.169,0.165,0.1768,0.1886,0.1847,0.1807,0.1846,0.1847,0.1887,0.1769,0.1612,0.1729,0.1767,0.1768,0.1767,0.1925,0.2042,0.2159,0.2151,0.2141,0.228,0.9945,0.9999,0.9903,0.9826,0.9804,0.9801,0.9632,0.9434,0.9603,0.9777,0.9895,0.9825,0.9662,0.942,0.9361,0.9211,0.8962,0.9035,0.9015,0.8962,0.891,0.8771,0.8659,0.8613,0.8507,0.8448,0.8421,0.8395,0.8348,0.8401,0.8448,0.856,0.9002,0.9463,0.9674,1.0207,1.0432,1.0325,1.0526,1.0327,1.0326,1.0667,1.087,1.0956,1.0872,1.0756,1.0536,1.0403,0.9958,0.9498,0.9183,0.87,0.8149,0.8139,0.7944,0.7722,0.7787,0.7754,0.7759,0.7824,0.7889,0.7889,0.7954,0.7954,0.7922,0.7884,0.7851,0.7784,0.77,0.7631,0.753,0.7362,0.7193,0.7054,0.6939,0.6682,0.6455,0.6349,0.6245,0.6153,0.6099,0.6057,0.597,0.5848,0.5687,0.5378,0.4993,0.459,0.4274,0.3763,0.3137,0.2746,0.2079,0.1961,0.2081,0.2238,0.2395,0.2316,0.2237,0.2198,0.2118,0.2081,0.2043,0.1926,0.1848,0.2081,0.2198,0.2118,0.2196,0.2393,0.255,0.2668,0.2708,0.2698,0.2812,0.9751,1.0019,0.9806,0.967,0.9604,0.9561,0.9416,0.9304,0.9504,0.9647,0.9681,0.9532,0.9375,0.929,0.9256,0.9211,0.8982,0.9061,0.9035,0.8956,0.8877,0.8765,0.8712,0.8659,0.8553,0.8474,0.8448,0.8448,0.8374,0.8586,0.8692,0.8679,0.9223,0.9814,1.0031,1.0524,1.0837,1.0705,1.101,1.0697,1.0157,1.0422,1.057,1.0555,1.0269,1.0134,0.9988,0.9836,0.9429,0.9009,0.8635,0.8312,0.7922,0.7852,0.7847,0.7819,0.7884,0.7954,0.7987,0.8052,0.8117,0.8084,0.8182,0.822,0.818,0.8163,0.823,0.8165,0.8073,0.7974,0.7924,0.7819,0.7653,0.7513,0.7493,0.7382,0.703,0.6785,0.6619,0.6433,0.637,0.6293,0.6209,0.6135,0.5973,0.5815,0.5473,0.5243,0.4932,0.4623,0.4036,0.3567,0.3017,0.2782,0.2981,0.3059,0.3059,0.294,0.2705,0.247,0.2314,0.2237,0.2161,0.2318,0.2473,0.2588,0.2665,0.2782,0.2899,0.3175,0.3215,0.3255,0.3294,0.3295,0.3368,0.9555,1.011,0.972,0.9467,0.937,0.9236,0.9109,0.9077,0.9343,0.9387,0.9249,0.9061,0.9061,0.9106,0.9106,0.9133,0.9133,0.9106,0.9035,0.8903,0.8824,0.8718,0.8606,0.8553,0.8501,0.8448,0.8421,0.8368,0.8295,0.8606,0.8857,0.895,0.9617,1.0426,1.0582,1.0938,1.123,1.0872,1.0821,1.0615,1.0425,1.0263,1.0191,0.9908,0.9567,0.9354,0.9205,0.9081,0.8751,0.8537,0.8247,0.7954,0.7824,0.7759,0.7787,0.7852,0.8052,0.8117,0.8177,0.8312,0.8247,0.8247,0.8414,0.8463,0.8392,0.841,0.8508,0.8523,0.8399,0.8394,0.8346,0.8244,0.811,0.7927,0.797,0.7893,0.7514,0.7173,0.6945,0.6714,0.6641,0.6563,0.6412,0.6296,0.6219,0.606,0.5941,0.5747,0.5515,0.5207,0.4776,0.4504,0.4229,0.4073,0.3841,0.3763,0.3722,0.3526,0.3292,0.2862,0.2588,0.2744,0.2902,0.3061,0.3176,0.329,0.3522,0.372,0.3878,0.3956,0.3995,0.3995,0.3995,0.3997,0.3919,0.9903,0.9718,0.94,0.9275,0.9217,0.9094,0.9023,0.8978,0.8948,0.8877,0.8811,0.8758,0.8837,0.9178,0.9309,0.9283,0.914,0.9087,0.8896,0.8705,0.8771,0.8639,0.8533,0.8501,0.8448,0.8407,0.8414,0.8381,0.8424,0.8679,0.885,0.8884,0.9674,1.0304,1.0599,1.0912,1.0996,1.0746,1.0638,1.0473,0.9743,0.9595,0.9579,0.9339,0.9067,0.8763,0.8592,0.8646,0.862,0.8463,0.8182,0.7889,0.7792,0.7792,0.7824,0.7922,0.8122,0.8247,0.8306,0.8409,0.8349,0.8382,0.8511,0.8517,0.8484,0.8532,0.8643,0.8797,0.8752,0.8831,0.8803,0.8643,0.8496,0.8297,0.8185,0.8003,0.7663,0.7437,0.7215,0.7061,0.6911,0.6679,0.6377,0.6338,0.6338,0.6219,0.6219,0.6025,0.5864,0.5634,0.544,0.5285,0.5126,0.4696,0.4226,0.4345,0.4307,0.4112,0.3956,0.368,0.3524,0.3522,0.3641,0.3684,0.3878,0.4029,0.4304,0.454,0.4618,0.4657,0.4735,0.4771,0.4735,0.4657,0.4501]},{"header":{"parameterUnit":"m.s-1","parameterCategory":1,"la1":31.0,"la2":29.5877,"lo1":-88.7671,"lo2":-86.6584,"dy":0.0162,"dx":0.0185,"nx":115,"ny":88,"refTime":"2023-05-27T12:00:00:Z","depth":0,"parameterNumber":3,"parameterNumberName":"V-component_of_WINDS"},"data":[0.0,0.0,0.0,0.0,0.0,0.0,0.0,0.0,0.0,0.0,0.0,0.0,0.0,0.0,0.0,0.0,0.0,0.0,0.0,0.0,0.0,0.0,0.0,0.0,0.0,0.0,0.0,0.0,0.0,0.0,0.0,0.0,0.0,0.0,0.0,0.0,0.0,0.0,0.0,0.0,0.0,0.0,0.0,0.0,0.0,0.0,0.0,0.0,0.0,0.0,0.0,0.0,0.0,0.0,0.0,0.0,0.0,0.0,0.0,0.0,0.0,0.0,0.0,0.0,0.0,0.0,0.0,0.0,0.0,0.0,0.0,0.0,0.0,0.0,0.0,0.0,0.0,0.0,0.0,0.0,0.0,0.0,0.0,0.0,0.0,0.0,0.0,0.0,0.0,0.0,0.0,0.0,0.0,0.0,0.0,0.0,0.0,0.0,0.0,0.0,0.0,0.0,0.0,0.0,0.0,0.0,0.0,0.0,0.0,0.0,0.0,0.0,0.0,0.0,0.0,0.0,0.0,0.0,0.0,0.0,0.0,0.0,0.0,0.0,0.0,0.0,0.0,0.0,0.0,0.0,0.0,0.0,0.0,0.0,0.0,0.0,0.0,0.0,0.0,0.0,0.0,0.0,0.0,0.0,0.0,0.0,0.0,0.0,0.0,0.0,0.0,0.0,0.0,0.0,0.0,0.0,0.0,0.0,0.0,0.0,0.0,0.0,0.0,0.0,0.0,0.0,0.0,0.0,0.0,0.0,0.0,0.0,0.0,0.0,0.0,0.0,0.0,0.0,0.0,0.0,0.0,0.0,0.0,0.0,0.0,0.0,0.0,0.0,0.0,0.0,0.0,0.0,0.0,0.0,0.0,0.0,0.0,0.0,0.0,0.0,0.0,0.0,0.0,0.0,0.0,0.0,0.0,0.0,0.0,0.0,0.0,0.0,0.0,0.0,0.0,0.0,0.0,0.0,0.0,0.0,0.0,0.0,0.0,0.0,0.0,0.0,0.0,0.0,0.0,0.0,0.0,0.0,0.0,0.0,0.0,0.0,0.0,0.0,0.0,0.0,0.0,0.0,0.0,0.0,0.0,0.0,0.0,0.0,0.0,0.0,0.0,0.0,0.0,0.0,0.0,0.0,0.0,0.0,0.0,0.0,0.0,0.0,0.0,0.0,0.0,0.0,0.0,0.0,0.0,0.0,0.0,0.0,0.0,0.0,0.0,0.0,0.0,0.0,0.0,0.0,0.0,0.0,0.0,0.0,0.0,0.0,0.0,0.0,0.0,0.0,0.0,0.0,0.0,0.0,0.0,0.0,0.0,0.0,0.0,0.0,0.0,0.0,0.0,0.0,0.0,0.0,0.0,0.0,0.0,0.0,0.0,0.0,0.0,0.0,0.0,0.0,0.0,0.0,0.0,0.0,0.0,0.0,0.0,0.0,0.0,0.0,0.0,0.0,0.0,0.0,0.0,0.0,0.0,0.0,0.0,0.0,0.0,0.0,0.0,0.0,0.0,0.0,0.0,0.0,0.0,0.0,0.0,0.0,0.0,0.0,0.0,0.0,0.0,0.0,0.0,0.0,0.0,0.0,0.0,0.0,0.0,0.0,0.0,0.0,0.0,0.0,0.0,0.0,0.0,0.0,0.0,0.0,0.0,0.0,0.0,0.0,0.0,0.0,0.0,0.0,0.0,0.0,0.0,0.0,0.0,0.0,0.0,0.0,0.0,0.0,0.0,0.0,0.0,0.0,0.0,0.0,0.0,0.0,0.0,0.0,0.0,0.0,0.0,0.0,0.0,0.0,0.0,0.0,0.0,0.0,0.0,0.0,0.0,0.0,0.0,0.0,0.0,0.0,0.0,0.0,0.0,0.0,0.0,0.0,0.0,0.0,0.0,0.0,0.0,0.0,0.0,0.0,0.0,0.0,0.0,0.0,0.0,0.0,0.0,0.0,0.0,0.0,0.0,0.0,0.0,0.0,0.0,0.0,0.0,0.0,0.0,0.0,0.0,0.0,0.0,0.0,0.0,0.0,0.0,0.0,0.0,0.0,0.0,0.0,0.0,0.0,0.0,0.0,0.0,0.0,0.0,0.0,0.0,0.0,0.0,0.0,0.0,0.0,0.0,0.0,0.0,0.0,0.0,0.0,0.0,0.0,0.0,0.0,0.0,0.0,0.0,0.0,0.0,0.0,0.0,0.0,0.0,0.0,0.0,0.0,0.0,0.0,0.0,0.0,0.0,0.0,0.0,0.0,0.0,0.0,0.0,0.0,0.0,0.0,0.0,0.0,0.0,0.0,0.0,0.0,0.0,0.0,0.0,0.0,0.0,0.0,0.0,0.0,0.0,0.0,0.0,0.0,0.0,0.0,0.0,0.0,0.0,0.0,0.0,0.0,0.0,0.0,0.0,0.0,0.0,0.0,0.0,0.0,0.0,0.0,0.0,0.0,0.0,0.0,0.0,0.0,0.0,0.0,0.0,0.0,0.0,0.0,0.0,0.0,0.0,0.0,0.0,0.0,0.0,0.0,0.0,0.0,0.0,0.0,0.0,0.0,0.0,0.0,0.0,0.0,0.0,0.0,0.0,0.0,0.0,0.0,0.0,0.0,0.0,0.0,0.0,0.0,0.0,0.0,0.0,0.0,0.0,0.0,0.0,0.0,0.0,0.0,0.0,0.0,0.0,0.0,0.0,0.0,0.0,0.0,0.0,0.0,0.0,0.0,0.0,0.0,0.0,0.0,0.0,0.0,0.0,0.0,0.0,0.0,0.0,0.0,0.0,0.0,0.0,0.0,0.0,0.0,0.0,0.0,0.0,0.0,0.0,0.0,0.0,0.0,0.0,0.0,0.0,0.0,0.0,0.0,0.0,0.0,0.0,0.0,0.0,0.0,0.0,0.0,0.0,0.0,0.0,0.0,0.0,0.0,0.0,0.0,0.0,0.0,0.0,0.0,0.0,0.0,0.0,0.0,0.0,0.0,0.0,0.0,0.0,0.0,0.0,0.0,0.0,0.0,0.0,0.0,0.0,0.0,0.0,0.0,0.0,0.0,0.0,0.0,0.0,0.0,0.0,0.0,0.0,0.0,0.0,0.0,0.0,0.0,0.0,0.0,0.0,0.0,0.0,0.0,0.0,0.0,0.0,0.0,0.0,0.0,0.0,0.0,0.0,0.0,0.0,0.0,0.0,0.0,0.0,0.0,0.0,0.0,0.0,0.0,0.0,0.0,0.0,0.0,0.0,0.0,0.0,0.0,0.0,0.0,0.0,0.0,0.0,0.0,0.0,0.0,0.0,0.0,0.0,0.0,0.0,0.0,0.0,0.0,0.0,0.0,0.0,0.0,0.0,0.0,0.0,0.0,0.0,0.0,0.0,0.0,0.0,0.0,0.0,0.0,0.0,0.0,0.0,0.0,0.0,0.0,0.0,0.0,0.0,0.0,0.0,0.0,0.0,0.0,0.0,0.0,0.0,0.0,0.0,0.0,0.0,0.0,0.0,0.0,0.0,0.0,0.0,0.0,0.0,0.0,0.0,0.0,0.0,0.0,0.0,0.0,0.0,0.0,0.0,0.0,0.0,0.0,0.0,0.0,0.0,0.0,0.0,0.0,0.0,0.0,0.0,0.0,0.0,0.0,0.0,0.0,0.0,0.0,0.0,0.0,0.0,0.0,0.0,0.0,0.0,0.0,0.0,0.0,0.0,0.0,0.0,0.0,0.0,0.0,0.0,0.0,0.0,0.0,0.0,0.0,0.0,0.0,0.0,0.0,0.0,0.0,0.0,0.0,0.0,0.0,0.0,0.0,0.0,0.0,0.0,0.0,0.0,0.0,0.0,0.0,0.0,0.0,0.0,0.0,0.0,0.0,0.0,0.0,0.0,0.0,0.0,0.0,0.0,0.0,0.0,0.0,0.0,0.0,0.0,0.0,0.0,0.0,0.0,0.0,0.0,0.0,0.0,0.0,0.0,0.0,0.0,0.0,0.0,0.0,0.0,0.0,0.0,0.0,0.0,0.0,0.0,0.0,0.0,0.0,0.0,0.0,0.0,0.0,0.0,0.0,0.0,0.0,0.0,0.0,0.0,0.0,0.0,0.0,0.0,0.0,0.0,0.0,0.0,0.0,0.0,0.0,0.0,0.0,0.0,0.0,0.0,0.0,0.0,0.0,0.0,0.0,0.0,0.0,0.0,0.0,0.0,0.0,0.0,0.0,0.0,0.0,0.0,0.0,0.0,0.0,0.0,0.0,0.0,0.0,0.0,0.0,0.0,0.0,0.0,0.0,0.3651,0.0,0.0,0.0,0.0,0.0,0.0,0.0,0.0,0.0,0.0,0.0,0.0,0.0,0.0,0.0,0.0,0.0,0.0,0.0,0.0,0.0,0.0,0.0,0.0,0.0,0.0,0.0,0.0,0.0,0.0,0.0,0.0,0.0,0.0,0.0,0.0,0.0,0.0,0.0,0.0,0.0,0.0,0.0,0.0,0.0,0.0,0.0,0.0,0.0,0.0,0.0,0.0,0.0,0.0,0.0,0.0,0.0,0.0,0.0,0.0,0.0,0.0,0.0,0.0,0.0,0.0,0.0,0.0,0.0,0.0,0.0,0.0,0.0,0.0,0.0,0.0,0.0,0.0,0.0,0.0,0.0,0.0,0.0,0.0,0.0,0.0,0.0,0.0,0.0,0.0,0.0,0.0,0.0,0.0,0.0,0.0,0.0,0.0,0.0,0.0,0.0,0.0,0.0,0.0,0.0,0.0,0.0,0.0,0.0,0.0,0.2983,0.3055,0.3234,0.3427,0.3593,0.0,0.0,0.0,0.0,0.0,0.0,0.0,0.0,0.0,0.0,0.0,0.0,0.0,0.0,0.0,0.0,0.0,0.0,0.0,0.0,0.0,0.0,0.0,0.0,0.0,0.0,0.0,0.0,0.0,0.0,0.0,0.0,0.0,0.0,0.0,0.0,0.0,0.0,0.0,0.0,0.0,0.0,0.0,0.0,0.0,0.0,0.0,0.0,0.0,0.0,0.0,0.0,0.0,0.0,0.0,0.0,0.0,0.0,0.0,0.0,0.0,0.0,0.0,0.0,0.0,0.0,0.0,0.0,0.0,0.0,0.0,0.0,0.0,0.0,0.0,0.0,0.0,0.0,0.0,0.0,0.0,0.0,0.0,0.0,0.0,0.0,0.0,0.0,0.0,0.0,0.0,0.0,0.0,0.0,0.0,0.0,0.0,0.0,0.0,0.0,0.0,0.0,0.0,0.0,0.0,0.0,0.0,0.0,0.0,0.0,0.0,0.0,0.3306,0.3517,0.3687,0.0,0.0,0.0,0.0,0.0,0.0,0.0,0.0,0.0,0.0,0.0,0.0,0.0,0.0,0.0,0.0,0.0,0.0,0.0,0.0,0.0,0.0,0.0,0.0,0.0,0.0,0.0,0.0,0.0,0.0,0.0,0.0,0.0,0.0,0.0,0.0,0.0,0.0,0.0,0.0,0.0,0.0,0.0,0.0,0.0,0.0,0.0,0.0,0.0,0.0,0.0,0.0,0.0,0.0,0.0,0.0,0.0,0.0,0.0,0.0,0.0,0.0,0.0,0.0,0.0,0.0,0.0,0.0,0.0,0.0,0.0,0.0,0.0,0.0,0.0,0.0,0.0,0.0,0.0,0.0,0.0,0.0,0.0,0.0,0.0,0.0,0.0,0.0,0.0,0.0,0.0,0.0,0.0,0.0,0.0,0.0,0.0,0.0,0.0,0.0,0.0,0.0,0.0,0.0,0.0,0.0,0.0,0.0,0.0,0.0,0.3272,0.3285,0.3651,0.0,0.4227,0.0,0.0,0.0,0.0,0.0,0.0,0.0,0.0,0.0,0.0,0.0,0.0,0.0,0.0,0.0,0.0,0.0,0.0,0.0,0.0,0.0,0.0,0.0,0.0,0.0,0.0,0.0,0.0,0.0,0.0,0.0,0.0,0.0,0.0,0.0,0.0,0.0,0.0,0.0,0.0,0.0,0.0,0.0,0.0,0.0,0.0,0.0,0.0,0.0,0.0,0.0,0.0,0.0,0.0,0.0,0.0,0.0,0.0,0.0,0.0,0.0,0.0,0.0,0.0,0.0,0.0,0.0,0.0,0.0,0.0,0.0,0.0,0.0,0.0,0.0,0.0,0.0,0.0,0.0,0.0,0.0,0.0,0.0,0.0,0.0,0.0,0.0,0.0,0.0,0.0,0.0,0.0,0.0,0.0,0.0,0.0,0.0,0.0,0.0,0.0,0.0,0.0,0.0,0.0,0.0,0.0,0.0,0.0,0.0,0.0,0.4453,0.4029,0.3985,0.4056,0.0,0.0,0.0,0.0,0.0,0.0,0.0,0.0,0.0,0.0,0.0,0.0,0.0,0.0,0.0,0.0,0.0,0.0,0.0,0.0,0.0,0.0,0.0,0.0,0.0,0.0,0.0,0.0,0.0,0.0,0.0,0.0,0.0,0.0,0.0,0.0,0.0,0.0,0.0,0.0,0.0,0.0,0.0,0.0,0.0,0.0,0.0,0.0,0.0,0.0,0.0,0.0,0.0,0.0,0.0,0.0,0.0,0.0,0.0,0.0,0.0,0.0,0.0,0.0,0.0,0.0,0.0,0.0,0.0,0.0,0.0,0.0,0.0,0.0,0.0,0.0,0.0,0.0,0.0,0.0,0.0,0.0,0.0,0.0,0.0,0.0,0.0,0.0,0.0,0.0,0.0,0.0,0.0,0.0,0.0,0.0,0.0,0.0,0.0,0.0,0.0,0.0,0.0,0.0,0.0,0.0,0.0,0.0,0.0,0.0,0.5945,0.5469,0.5069,0.4601,0.4445,0.4606,0.0,0.0,0.0,0.0,0.0,0.0,0.0,0.0,0.0,0.0,0.0,0.0,0.0,0.0,0.0,0.0,0.0,0.0,0.0,0.0,0.0,0.0,0.0,0.0,0.0,0.0,0.0,0.0,0.0,0.0,0.0,0.0,0.0,0.0,0.0,0.0,0.0,0.0,0.0,0.0,0.0,0.0,0.0,0.0,0.0,0.0,0.0,0.0,0.0,0.0,0.0,0.0,0.0,0.0,0.0,0.0,0.0,0.0,0.0,0.0,0.0,0.0,0.0,0.0,0.0,0.0,0.0,0.0,0.0,0.0,0.0,0.0,0.0,0.0,0.0,0.0,0.0,0.0,0.0,0.0,0.0,0.0,0.0,0.0,0.0,0.0,0.0,0.0,0.0,0.0,0.0,0.0,0.0,0.0,0.0,0.0,0.0,0.0,0.0,0.0,0.0,0.0,0.0,0.0,0.0,0.0,0.0,0.0,0.6973,0.6219,0.5987,0.6381,0.5635,0.5381,0.0,0.0,0.0,0.0,0.0,0.0,0.0,0.0,0.0,0.0,0.0,0.0,0.0,0.0,0.0,0.0,0.0,0.0,0.0,0.0,0.0,0.0,0.0,0.0,0.0,0.0,0.0,0.0,0.0,0.0,0.0,0.0,0.0,0.0,0.0,0.0,0.0,0.0,0.0,0.0,0.0,0.0,0.0,0.0,0.0,0.0,0.0,0.0,0.0,0.0,0.0,0.0,0.0,0.0,0.0,0.0,0.0,0.0,0.0,0.0,0.0,0.0,0.0,0.0,0.0,0.0,0.0,0.0,0.0,0.0,0.0,0.0,0.0,0.0,0.0,0.0,0.0,0.0,0.0,0.0,0.0,0.0,0.0,0.0,0.0,0.0,0.0,0.0,0.0,0.0,0.0,0.0,0.0,0.0,0.0,0.0,0.0,0.0,0.0,0.0,0.0,0.0,0.0,0.0,0.0,0.0,0.0,0.0,0.0,0.9132,0.776,0.7173,0.7592,0.6302,0.5613,0.0,0.0,0.0,0.0,0.0,0.0,0.0,0.0,0.0,0.0,0.0,0.0,0.0,0.0,0.0,0.0,0.0,0.0,0.0,0.0,0.0,0.0,0.0,0.0,0.0,0.0,0.0,0.0,0.0,0.0,0.0,0.0,0.0,0.0,0.0,0.0,0.0,0.0,0.0,0.0,0.0,0.0,0.0,0.0,0.0,0.0,0.0,0.0,0.0,0.0,0.0,0.0,0.0,0.0,0.0,0.0,0.0,0.0,0.0,0.0,0.0,0.0,0.0,0.0,0.0,0.0,0.0,0.0,0.0,0.0,0.0,0.0,0.0,0.0,0.0,0.0,0.0,0.0,0.0,0.0,0.0,0.0,0.0,0.0,0.0,0.0,0.0,0.0,0.0,0.0,0.0,0.0,0.0,0.0,0.0,0.0,0.0,0.0,0.0,0.0,0.0,0.0,0.0,0.0,0.0,0.0,0.0,0.0,0.0,1.0192,0.0,0.819,0.8142,0.6858,0.6031,0.0,0.0,0.0,0.0,0.0,0.0,0.0,0.0,0.0,0.0,0.0,0.0,0.0,0.0,0.0,0.0,0.0,0.0,0.0,0.0,0.0,0.0,0.0,0.0,0.0,0.0,0.0,0.0,0.0,0.0,0.0,0.0,0.0,0.0,0.0,0.0,0.0,0.0,0.0,0.0,0.0,0.0,0.0,0.0,0.0,0.0,0.0,0.0,0.0,0.0,0.0,0.0,0.0,0.0,0.0,0.0,0.0,0.0,0.0,0.0,0.0,0.0,0.0,0.0,0.0,0.0,0.0,0.0,0.0,0.0,0.0,0.0,0.0,0.0,0.0,0.0,0.0,0.0,0.0,0.0,0.0,0.0,0.0,0.0,0.0,0.0,0.0,0.0,0.0,0.0,0.0,0.0,0.0,0.0,0.0,0.0,0.0,0.0,0.0,0.0,0.0,0.0,0.0,0.0,0.0,0.0,0.0,0.0,0.9686,0.9839,0.9523,0.8947,0.808,0.7379,0.665,0.0,0.0,0.0,0.0,0.0,0.0,0.0,0.0,0.0,0.0,0.0,0.0,0.0,0.0,0.0,0.0,0.0,0.0,0.0,0.0,0.0,0.0,0.0,0.0,0.0,0.0,0.0,0.0,0.0,0.0,0.0,0.0,0.0,0.0,0.0,0.0,0.0,0.0,0.0,0.0,0.0,0.0,0.0,0.0,0.0,0.0,0.0,0.0,0.0,0.0,0.0,0.0,0.0,0.0,0.0,0.0,0.0,0.0,0.0,0.0,0.0,0.0,0.0,0.0,0.0,0.0,0.0,0.0,0.0,0.0,0.0,0.0,0.0,0.0,0.0,0.0,0.0,0.0,0.0,0.0,0.0,0.0,0.0,0.0,0.0,0.0,0.0,0.0,0.0,0.0,0.0,0.0,0.0,0.0,0.0,0.0,0.0,0.0,0.0,0.0,0.0,0.0,0.0,0.0,0.0,0.0,0.0,0.0,0.0,1.1852,1.0902,1.0345,1.0152,0.8199,0.7066,0.0,0.0,0.0,0.0,0.0,0.0,0.0,0.0,0.0,0.0,0.0,0.0,0.0,0.0,0.0,0.0,0.0,0.0,0.0,0.0,0.0,0.0,0.0,0.0,0.0,0.0,0.0,0.0,0.0,0.0,0.0,0.0,0.0,0.0,0.0,0.0,0.0,0.0,0.0,0.0,0.0,0.0,0.0,0.0,0.0,0.0,0.0,0.0,0.0,0.0,0.0,0.0,0.0,0.0,0.0,0.0,0.0,0.0,0.0,0.0,0.0,0.0,0.0,0.0,0.0,0.0,0.0,0.0,0.0,0.0,0.0,0.0,0.0,0.0,0.0,0.0,0.0,0.0,0.0,0.0,0.0,0.0,0.0,0.0,0.0,0.0,0.0,0.0,0.0,0.0,0.0,0.0,0.0,0.0,0.0,0.0,0.0,0.0,0.0,0.0,0.0,0.0,0.0,0.0,0.0,0.0,0.0,0.0,0.0,1.3591,1.2339,1.1478,1.1182,0.914,0.7971,0.7803,0.0,0.0,0.0,0.0,0.0,0.0,0.0,0.0,0.0,0.0,0.0,0.0,0.0,0.0,0.0,0.0,0.0,0.0,0.0,0.0,0.0,0.0,0.0,0.0,0.0,0.0,0.0,0.0,0.0,0.0,0.0,0.0,0.0,0.0,0.0,0.0,0.0,0.0,0.0,0.0,0.0,0.0,0.0,0.0,0.0,0.0,0.0,0.0,0.0,0.0,0.0,0.0,0.0,0.0,0.0,0.0,0.0,0.0,0.0,0.0,0.0,0.0,0.0,0.0,0.0,0.0,0.0,0.0,0.0,0.0,0.0,0.0,0.0,0.0,0.0,0.0,0.0,0.0,0.0,0.0,0.0,0.0,0.0,0.0,0.0,0.0,0.0,0.0,0.0,0.0,0.0,0.0,0.0,0.0,0.0,0.0,0.0,0.0,0.0,0.0,0.0,0.0,0.0,0.0,0.0,0.0,0.0,0.0,1.4998,1.3728,1.2445,1.1222,1.0101,0.9244,0.0,0.0,0.0,0.0,0.0,0.0,0.0,0.0,0.0,0.0,0.0,0.0,0.0,0.0,0.0,0.0,0.0,0.0,0.0,0.0,0.0,0.0,0.0,0.0,0.0,0.0,0.0,0.0,0.0,0.0,0.0,0.0,0.0,0.0,0.0,0.0,0.0,0.0,0.0,0.0,0.0,0.0,0.0,0.0,0.0,0.0,0.0,0.0,0.0,0.0,0.0,0.0,0.0,0.0,0.0,0.0,0.0,0.0,0.0,0.0,0.0,0.0,0.0,0.0,0.0,0.0,0.0,0.0,0.0,0.0,0.0,0.0,0.0,0.0,0.0,0.0,0.0,0.0,0.0,0.0,0.0,0.0,0.0,0.0,0.0,0.0,0.0,0.0,0.0,0.0,0.0,0.0,0.0,0.0,0.0,0.0,0.0,0.0,0.0,0.0,0.0,0.0,0.0,0.0,0.0,0.0,0.0,0.0,0.0,1.4983,1.4783,1.3851,1.2183,1.0667,0.9325,0.0,0.0,0.0,0.0,0.0,0.0,0.0,0.0,0.0,0.0,0.0,0.0,0.0,0.0,0.0,0.0,0.0,0.0,0.0,0.0,0.0,0.0,0.0,0.0,0.0,0.0,0.0,0.0,0.0,0.0,0.0,0.0,0.0,0.0,0.0,0.0,0.0,0.0,0.0,0.0,0.0,0.0,0.0,0.0,0.0,0.0,0.0,0.0,0.0,0.0,0.0,0.0,0.0,0.0,0.0,0.0,0.0,0.0,0.0,0.0,0.0,0.0,0.0,0.0,0.0,0.0,0.0,0.0,0.0,0.0,0.0,0.0,0.0,0.0,0.0,0.0,0.0,0.0,0.0,0.0,0.0,0.0,0.0,0.0,0.0,0.0,0.0,0.0,0.0,0.0,0.0,0.0,0.0,0.0,0.0,0.0,0.0,0.0,0.0,0.0,0.0,0.0,0.0,0.0,0.0,0.0,0.0,0.0,1.5324,1.5348,1.5492,1.4702,1.2831,1.1979,1.0873,0.0,0.0,0.0,0.0,0.0,0.0,0.0,0.0,0.0,0.0,0.0,0.0,0.0,0.0,0.0,0.0,0.0,0.0,0.0,0.0,0.0,0.0,0.0,0.0,0.0,0.0,0.0,0.0,0.0,0.0,0.0,0.0,0.0,0.0,0.0,0.0,0.0,0.0,0.0,0.0,0.0,0.0,0.0,0.0,0.0,0.0,0.0,0.0,0.0,0.0,0.0,0.0,0.0,0.0,0.0,0.0,0.0,0.0,0.0,0.0,0.0,0.0,0.0,0.0,0.0,0.0,0.0,0.0,0.0,0.0,0.0,0.0,0.0,0.0,0.0,0.0,0.0,0.0,0.0,0.0,0.0,0.0,0.0,0.0,0.0,0.0,0.0,0.0,0.0,0.0,0.0,0.0,0.0,0.0,0.0,0.0,0.0,0.0,0.0,0.0,0.0,0.0,0.0,0.0,0.0,0.0,0.0,0.0,1.59,1.5925,1.5985,1.513,1.3401,1.3481,1.2832,0.0,0.0,0.0,0.0,0.0,0.0,0.0,0.0,0.0,0.0,0.0,0.0,0.0,0.0,0.0,0.0,0.0,0.0,0.0,0.0,0.0,0.0,0.0,0.0,0.0,0.0,0.0,0.0,0.0,0.0,0.0,0.0,0.0,0.0,0.0,0.0,0.0,0.0,0.0,0.0,0.0,0.0,0.0,0.0,0.0,0.0,0.0,0.0,0.0,0.0,0.0,0.0,0.0,0.0,0.0,0.0,0.0,0.0,0.0,0.0,0.0,0.0,0.0,0.0,0.0,0.0,0.0,0.0,0.0,0.0,0.0,0.0,0.0,0.0,0.0,0.0,0.0,0.0,0.0,0.0,0.0,0.0,0.0,0.0,0.0,0.0,0.0,0.0,0.0,0.0,0.0,0.0,0.0,0.0,0.0,0.0,0.0,0.0,0.0,0.0,0.0,0.0,0.0,0.0,0.0,0.0,0.0,0.0,1.6093,1.6642,1.622,1.5352,1.3953,1.3549,1.2264,0.0,0.0,0.0,0.0,0.0,0.0,0.0,0.0,0.0,0.0,0.0,0.0,0.0,0.0,0.0,0.0,0.0,0.0,0.0,0.0,0.0,0.0,0.0,0.0,0.0,0.0,0.0,0.0,0.0,0.0,0.0,0.0,0.0,0.0,0.0,0.0,0.0,0.0,0.0,0.0,0.0,0.0,0.0,0.0,0.0,0.0,0.0,0.0,0.7573,0.0,0.0,0.0,0.0,0.0,0.0,0.0,0.0,0.0,0.0,0.0,0.0,0.0,0.0,0.0,0.0,0.0,0.0,0.0,0.0,0.0,0.0,0.0,0.0,0.0,0.0,0.0,0.0,0.0,0.0,0.0,0.0,0.0,0.0,0.0,0.0,0.0,0.0,0.0,0.0,0.0,0.0,0.0,0.0,0.0,0.0,0.0,0.0,0.0,0.0,0.0,0.0,0.0,0.0,0.0,0.0,0.0,0.0,0.0,1.6572,1.6596,1.6122,1.519,1.3834,1.3265,1.2251,0.0,0.0,0.0,0.0,0.0,0.0,0.0,0.0,0.0,0.0,0.0,0.0,0.0,0.0,0.0,0.0,0.0,0.0,0.0,0.0,0.0,0.0,0.0,0.0,0.0,0.0,0.0,0.0,0.0,0.0,0.0,0.0,0.0,0.0,0.0,0.0,0.0,0.0,0.0,0.0,0.0,0.0,0.0,0.0,0.0,0.0,0.0,0.0,0.0,0.0,0.0,0.0,0.0,0.0,0.0,0.0,0.0,0.0,0.0,0.0,0.0,0.0,0.0,0.0,0.0,0.0,0.0,0.0,0.0,0.0,0.0,0.0,0.0,0.0,0.0,0.0,0.0,0.0,0.0,0.0,0.0,0.0,0.0,0.0,0.0,0.0,0.0,0.0,0.0,0.0,0.0,0.0,0.0,0.0,0.0,0.0,0.0,0.0,0.0,0.0,0.0,0.0,0.0,0.0,0.0,0.0,0.0,1.6986,1.7095,1.6701,1.6043,1.5051,1.3675,1.3143,1.2556,1.1893,0.0,0.0,0.0,0.0,0.0,0.0,0.0,0.0,0.0,0.0,0.0,0.0,0.0,0.0,0.0,0.0,0.0,0.0,0.0,0.0,0.0,0.0,0.0,0.0,0.0,0.0,0.0,0.0,0.0,0.0,0.0,0.0,0.0,0.0,0.0,0.0,0.0,0.0,1.2808,1.2155,0.0,0.0,0.0,0.0,0.0,0.0,0.0,0.0,0.918,0.0,0.0,0.0,0.0,0.0,0.0,0.0,0.0,0.0,0.0,0.0,0.0,0.0,0.0,0.0,0.0,0.0,0.0,0.0,0.0,0.0,0.0,0.0,0.0,0.0,0.0,0.0,0.0,0.0,0.0,0.0,0.0,0.0,0.0,0.0,0.0,0.0,0.0,0.0,0.0,0.0,0.0,0.0,0.0,0.0,0.0,0.0,0.0,0.0,0.0,0.0,0.0,0.0,0.0,0.0,0.0,1.6564,1.6693,1.7261,1.8343,1.6675,1.5428,1.4664,1.3986,1.3155,1.2179,0.0,0.0,0.0,0.0,0.0,0.0,0.0,0.0,0.0,0.0,0.0,0.0,0.0,0.0,0.0,0.0,0.0,0.0,0.0,0.0,0.0,0.0,0.0,0.0,0.0,0.0,0.0,0.0,0.0,0.0,0.0,0.0,0.0,0.0,0.0,0.0,0.0,0.0,0.0,1.2831,1.2671,0.0,0.0,0.0,0.0,0.0,0.0,0.0,0.0,0.993,0.0,0.0,0.0,0.0,0.0,0.0,0.0,0.0,0.0,0.0,0.0,0.0,0.0,0.0,0.0,0.0,0.0,0.0,0.0,0.0,0.0,0.0,0.0,0.0,0.0,0.0,0.0,0.0,0.0,0.0,0.0,0.0,0.0,0.0,0.0,0.0,0.0,0.0,0.0,0.0,0.0,0.0,0.0,0.0,0.0,0.0,0.0,0.0,0.0,0.0,0.0,0.0,0.0,0.0,0.0,1.6507,1.7013,1.722,1.7062,1.6308,1.5224,1.3825,1.3404,1.2688,0.0,0.0,0.0,0.0,0.0,0.0,0.0,0.0,0.0,0.0,0.0,0.0,0.0,0.0,0.0,0.0,0.0,0.0,0.0,0.0,0.0,0.0,0.0,0.0,0.0,0.0,0.0,0.0,0.0,0.0,0.0,0.0,0.0,0.0,0.0,0.0,0.0,0.0,0.0,0.0,1.3699,1.354,1.3411,0.0,0.0,0.0,0.0,0.0,0.0,1.1427,1.1452,0.0,0.0,0.0,0.0,0.0,0.0,0.0,0.0,0.0,0.0,0.0,0.0,0.0,0.0,0.0,0.0,0.0,0.0,0.0,0.0,0.0,0.0,0.0,0.0,0.0,0.0,0.0,0.0,0.0,0.0,0.0,0.0,0.0,0.0,0.0,0.0,0.0,0.0,0.0,0.0,0.0,0.0,0.0,0.0,0.0,0.0,0.0,0.0,0.0,0.0,0.0,0.0,0.0,0.0,0.0,1.6577,1.7517,1.7433,1.6328,1.61,1.513,1.331,1.3261,1.2567,0.0,0.0,0.0,0.0,0.0,0.0,0.0,0.0,0.0,0.0,0.0,0.0,0.0,0.0,0.0,0.0,0.0,0.0,0.0,0.0,0.0,0.0,0.0,0.0,0.0,0.0,0.0,0.0,0.0,0.0,0.0,0.0,0.0,0.0,0.0,0.0,0.0,0.0,0.0,0.0,0.0,1.4632,1.4318,1.4051,0.0,0.0,0.0,0.0,1.2586,1.2601,0.0,0.0,0.0,0.0,0.0,0.0,0.0,0.0,0.0,0.0,0.0,0.0,0.0,0.0,0.0,0.0,0.0,0.0,0.0,0.0,0.0,0.0,0.0,0.0,0.0,0.0,0.0,0.0,0.0,0.0,0.0,0.0,0.0,0.0,0.0,0.0,0.0,0.0,0.0,0.0,0.0,0.0,0.0,0.0,0.0,0.0,0.0,0.0,0.0,0.0,0.0,0.0,0.0,0.0,0.0,0.0,1.6888,1.7832,1.8497,1.8746,1.7059,1.5781,1.5115,1.5079,1.4143,0.0,0.0,0.0,0.0,0.0,0.0,0.0,0.0,0.0,0.0,0.0,0.0,0.0,0.0,0.0,0.0,0.0,0.0,0.0,0.0,0.0,0.0,0.0,0.0,0.0,0.0,0.0,0.0,0.0,0.0,0.0,0.0,0.0,0.0,0.0,0.0,0.0,0.0,0.0,0.0,0.0,1.6253,1.7168,1.6426,1.5733,0.0,0.0,1.4005,1.3363,1.2906,0.0,0.0,0.0,0.0,0.0,0.0,0.0,0.0,0.0,0.0,0.0,0.0,0.0,0.0,0.0,0.0,0.0,0.0,0.0,0.0,0.0,0.0,0.0,0.0,0.0,0.0,0.0,0.0,0.0,0.0,0.0,0.0,0.0,0.0,0.0,0.0,0.0,0.0,0.0,0.0,0.0,0.0,0.0,0.0,0.0,0.0,0.0,0.0,0.0,0.0,0.0,0.0,0.0,0.0,0.0,1.6103,1.6221,1.7719,1.8329,1.7941,1.7295,1.6229,1.4759,1.5152,1.444,0.0,0.0,0.0,0.0,0.0,0.0,0.0,0.0,0.0,0.0,0.0,0.0,0.0,0.0,0.0,0.0,0.0,0.0,0.0,0.0,0.0,0.0,0.0,0.0,0.0,0.0,0.0,0.0,0.0,0.0,0.0,0.0,0.0,0.0,0.0,0.0,0.0,0.0,0.0,0.0,0.0,0.0,1.7692,1.7449,0.0,0.0,0.0,1.605,1.5587,0.0,0.0,0.0,0.0,0.0,0.0,0.0,0.0,0.0,0.0,0.0,0.0,0.0,0.0,0.0,0.0,0.0,0.0,0.0,0.0,0.0,0.0,0.0,0.0,0.0,0.0,0.0,0.0,0.0,0.0,0.0,0.0,0.0,0.0,0.0,0.0,0.0,0.0,0.0,0.0,0.0,0.0,0.0,0.0,0.0,0.0,0.0,0.0,0.0,0.0,0.0,0.0,0.0,0.0,0.0,0.0,0.0,1.6247,1.7979,1.844,1.7571,1.7563,1.6694,1.4956,1.5086,0.0,0.0,0.0,0.0,0.0,0.0,0.0,0.0,0.0,0.0,0.0,0.0,0.0,0.0,0.0,0.0,0.0,0.0,0.0,0.0,0.0,0.0,0.0,0.0,0.0,0.0,0.0,1.3562,0.0,0.0,0.0,0.0,0.0,0.0,0.0,0.0,0.0,0.0,0.0,0.0,0.0,0.0,1.8647,1.8505,1.8502,1.8506,0.0,0.0,1.7853,1.747,1.7129,1.6647,0.0,0.0,0.0,0.0,0.0,0.0,0.0,0.0,0.0,0.0,0.0,0.0,0.0,0.0,0.0,0.0,0.0,0.0,0.0,0.0,0.0,0.0,0.0,0.0,0.0,0.0,0.0,0.0,0.0,0.0,0.0,0.0,0.0,0.0,0.0,0.0,0.0,0.0,0.0,0.0,0.0,0.0,0.0,0.0,0.0,0.0,0.0,0.0,0.0,0.0,0.0,0.0,0.0,0.0,0.0,1.7939,1.9057,1.9519,1.9293,1.8072,1.7204,1.6718,1.539,1.5122,0.0,0.0,0.0,0.0,0.0,0.0,0.0,0.0,0.0,0.0,0.0,0.0,0.0,0.0,0.0,0.0,0.0,0.0,0.0,0.0,0.0,0.0,0.0,0.0,0.0,0.0,0.0,0.0,0.0,0.0,0.0,0.0,0.0,0.0,0.0,0.0,0.0,0.0,0.0,0.0,0.0,2.0803,2.0618,2.0076,1.9831,0.0,0.0,1.884,1.8375,1.8082,1.7513,1.6359,0.0,0.0,0.0,0.0,0.0,0.0,0.0,0.0,0.0,0.0,0.0,0.0,0.0,0.0,0.0,0.0,0.0,0.0,0.0,0.0,0.0,0.0,0.0,0.0,0.0,0.0,0.0,0.0,0.0,0.0,0.0,0.0,0.0,0.0,0.0,0.0,0.0,0.0,0.0,0.0,0.0,0.0,0.0,0.0,0.0,0.0,0.0,0.0,0.0,0.0,0.0,0.0,0.0,1.7424,1.8174,1.931,1.9781,1.9499,1.8817,1.8003,1.7051,1.6605,1.6409,0.0,0.0,0.0,0.0,0.0,0.0,0.0,0.0,0.0,0.0,0.0,0.0,0.0,0.0,0.0,0.0,0.0,0.0,0.0,0.0,0.0,0.0,0.0,0.0,0.0,0.0,0.0,0.0,1.6813,1.6777,1.635,0.0,0.0,0.0,0.0,0.0,0.0,0.0,0.0,0.0,0.0,2.0752,2.1653,2.1814,0.0,0.0,2.1318,2.0771,1.9942,1.9552,1.8955,1.7761,1.6385,0.0,0.0,0.0,0.0,0.0,0.0,0.0,0.0,0.0,0.0,0.0,0.0,0.0,0.0,0.0,0.0,0.0,0.0,0.0,0.0,0.0,0.0,0.0,0.0,0.0,0.0,0.0,0.0,0.0,0.0,0.0,0.0,0.0,0.0,0.0,0.0,0.0,0.0,0.0,0.0,0.0,0.0,0.0,0.0,0.0,0.0,0.0,0.0,0.0,0.0,0.0,0.0,1.7576,1.8512,1.9511,1.9857,1.9569,1.9283,1.863,1.7627,1.739,1.7206,0.0,0.0,0.0,0.0,0.0,0.0,0.0,0.0,0.0,0.0,0.0,0.0,0.0,0.0,0.0,0.0,0.0,0.0,0.0,0.0,0.0,0.0,0.0,0.0,0.0,0.0,0.0,0.0,1.7161,1.7047,1.71,0.0,0.0,0.0,0.0,0.0,0.0,0.0,0.0,0.0,0.0,2.1333,2.2177,2.2799,2.2985,2.2423,2.2157,2.172,2.0895,2.0556,2.0027,1.8989,0.0,0.0,0.0,0.0,0.0,0.0,0.0,0.0,0.0,0.0,0.0,0.0,0.0,0.0,0.0,0.0,0.0,0.0,0.0,0.0,0.0,0.0,0.0,0.0,0.0,0.0,0.0,0.0,0.0,0.0,0.6469,0.0,0.0,0.0,0.0,0.0,0.0,0.0,0.0,0.0,0.0,0.0,0.0,0.0,0.0,0.0,0.0,0.0,0.0,0.0,0.0,0.0,0.0,1.7881,1.9253,1.974,1.9904,1.9688,1.9376,1.9028,1.8637,1.7457,1.7259,1.8175,0.0,0.0,0.0,0.0,0.0,0.0,0.0,0.0,0.0,0.0,0.0,0.0,0.0,0.0,0.0,0.0,0.0,0.0,0.0,0.0,0.0,0.0,0.0,0.0,0.0,0.0,1.5683,1.5997,1.7037,0.0,0.0,0.0,0.0,0.0,0.0,0.0,0.0,0.0,0.0,2.2128,2.3093,2.2202,2.2827,2.3237,2.2624,2.1947,2.1357,2.1005,2.0871,2.0556,0.0,0.0,0.0,0.0,0.0,0.0,0.0,0.0,0.0,0.0,0.0,0.0,0.0,0.0,0.0,0.0,0.0,0.0,0.0,0.0,0.0,0.0,0.0,0.0,0.0,0.0,0.0,0.6426,0.6645,0.0,0.0,0.0,0.0,0.0,0.0,0.0,0.0,0.0,0.0,0.0,1.2889,1.3688,0.0,0.0,0.0,0.0,0.0,0.0,0.0,0.0,0.0,0.0,0.0,0.0,1.7722,1.8736,1.9621,1.9979,1.9841,1.955,1.9245,1.8977,1.8386,1.7922,1.7653,0.0,0.0,0.0,0.0,0.0,0.0,0.0,0.0,0.0,0.0,0.0,0.0,0.0,0.0,0.0,0.0,0.0,0.0,0.0,0.0,0.0,0.0,0.0,0.0,0.0,1.7412,0.0,0.0,0.0,0.0,0.0,0.0,0.0,0.0,0.0,0.0,0.0,2.2613,2.2867,2.3406,2.3879,2.4212,2.4601,2.4702,0.0,0.0,0.0,0.0,0.0,0.0,0.0,0.0,0.0,0.0,0.0,0.0,0.0,0.0,2.198,1.9492,2.0291,2.1265,2.0937,0.0,0.0,0.0,0.0,0.0,0.0,0.0,0.0,0.0,0.0,0.0,0.0,0.0,0.0,0.8385,0.0,0.9113,0.0,0.0,0.0,0.0,0.0,0.0,0.0,0.0,1.3975,1.4644,1.4694,1.5417,1.6151,0.0,1.6544,1.6314,0.0,0.0,0.0,0.0,0.0,0.0,0.0,0.0,1.8107,1.8952,1.9693,2.0178,2.0325,1.9876,1.9459,1.9165,1.8762,1.8202,1.7448,1.7713,1.7286,0.0,0.0,0.0,0.0,0.0,0.0,0.0,0.0,0.0,0.0,0.0,0.0,0.0,0.0,0.0,0.0,0.0,0.0,0.0,0.0,0.0,0.0,0.0,1.8021,0.0,0.0,0.0,0.0,0.0,0.0,0.0,0.0,0.0,2.1738,2.242,2.3161,2.373,2.419,2.4703,2.5408,0.0,0.0,0.0,0.0,0.0,0.0,0.0,2.392,2.3145,2.3032,2.3556,2.508,2.5301,2.5662,2.688,0.0,0.0,2.1829,2.253,2.3409,2.2831,2.314,2.3531,2.3595,2.3647,2.369,0.0,0.0,0.0,0.0,0.0,0.0,0.0,0.0,1.096,1.0495,0.0,1.1008,0.0,0.0,0.0,0.0,0.0,1.3835,0.0,0.0,1.7757,1.8341,1.704,1.7845,1.8627,1.9225,1.8809,1.8558,1.8469,1.7225,0.0,0.0,0.0,0.0,0.0,0.0,1.9039,1.9841,2.0072,2.0497,2.1138,2.0282,1.966,1.9305,1.8681,1.8145,1.7775,1.8093,1.7711,1.6496,1.7213,0.0,0.0,0.0,0.0,0.0,0.0,0.0,0.0,0.0,0.0,0.0,0.0,0.0,0.0,0.0,0.0,0.0,0.0,0.0,0.0,1.7291,0.0,0.0,0.0,0.0,0.0,0.0,0.0,0.0,0.0,0.0,2.1946,2.2529,2.3027,2.3183,0.0,0.0,0.0,0.0,2.5148,2.3533,2.3258,2.3299,2.3298,2.3896,2.4586,2.5201,0.0,0.0,2.9171,2.7506,2.6706,2.9766,2.8368,2.6428,2.5742,2.5473,2.545,2.5423,2.5413,2.5498,2.5556,2.5544,2.5575,1.2148,0.0,0.0,0.0,0.0,1.1796,1.3069,1.3414,1.4021,1.4044,1.364,1.4017,0.0,0.0,0.0,0.0,0.0,0.0,1.5653,1.6867,1.7599,1.8562,1.9775,1.9937,2.0353,2.1038,2.0786,2.0311,1.9745,1.9922,1.8959,1.6914,0.0,0.0,0.0,0.0,2.0039,2.0887,2.101,2.1158,2.1417,2.0363,1.9669,1.938,1.9046,1.8735,1.843,1.8256,1.7772,1.6966,1.74,0.0,0.0,0.0,0.0,0.0,0.0,0.0,0.0,0.0,0.0,0.0,0.0,0.0,0.0,0.0,0.0,0.0,0.0,0.0,1.8984,1.9703,2.0108,0.0,0.0,0.0,0.0,0.0,0.0,0.0,0.0,0.0,2.3543,2.4276,2.4832,0.0,0.0,2.5625,2.5583,2.6062,2.6193,2.563,2.6001,0.0,2.625,2.6563,2.6698,2.6308,2.6435,2.7363,2.954,2.9763,3.0227,3.1872,3.1015,2.9998,2.9784,2.822,2.7097,2.7031,2.708,2.7121,2.7125,2.7216,2.7296,1.5246,1.2503,1.327,1.3009,1.2293,1.4444,1.547,1.5681,1.6441,1.6339,1.5686,1.6447,1.5966,1.4568,1.4695,0.0,0.0,0.0,1.7732,1.9665,1.956,2.0284,2.1649,2.1578,2.1897,2.2564,2.2398,2.2019,2.1532,2.2092,2.1398,1.9529,0.0,0.0,1.9336,2.0469,2.1373,2.1963,2.1952,2.2096,2.247,2.1051,2.0389,2.0513,1.9719,1.9281,1.9336,1.903,1.859,1.8011,1.8061,1.7848,0.0,0.0,0.0,0.0,0.0,0.0,0.0,0.0,0.0,0.0,0.0,1.8741,1.8248,0.0,0.0,0.0,1.9625,1.9517,1.9969,2.0473,0.0,0.0,0.0,0.0,0.0,0.0,0.0,2.2284,2.3713,2.4712,2.4729,2.5505,2.5938,2.5555,2.5526,2.5781,2.6429,0.0,2.7366,2.7165,2.754,2.7832,2.7758,2.8092,2.8294,2.8067,2.8423,2.8982,2.9835,3.0565,3.118,3.1699,3.1469,3.1092,3.116,2.9793,2.8727,2.8785,2.8841,2.8893,2.8946,2.8996,2.9096,1.8389,1.7588,1.6228,1.6026,1.665,1.7406,1.7713,1.7755,1.8298,1.7776,1.6667,1.8447,1.7839,1.5452,1.555,0.0,1.9035,1.9223,2.0612,2.2901,2.2786,2.2839,2.3,2.2874,2.3213,2.3938,2.3758,2.3606,2.3537,2.372,2.3398,2.2604,2.2381,2.1657,2.0573,2.1948,2.2807,2.2982,2.2823,2.3092,2.3842,2.2146,2.1557,2.2258,2.0559,1.9871,2.041,2.0192,1.9885,1.9499,1.9178,1.9154,1.9343,0.0,0.0,0.0,0.0,0.0,0.0,0.0,0.0,0.0,0.0,0.0,0.0,0.0,0.0,0.0,2.1118,0.0,2.0212,2.0413,0.0,0.0,0.0,2.2051,2.275,2.292,2.3005,2.2998,0.0,0.0,2.559,2.6288,2.6462,2.5582,2.5429,2.6094,2.7984,2.8438,2.8528,2.8191,2.8233,2.8242,2.8372,2.8811,2.9346,2.9902,3.0225,3.015,3.0215,3.0414,3.0477,3.0772,3.0587,3.0575,3.0604,3.0497,3.043,3.0399,3.0448,3.0494,3.0533,3.0545,3.0535,1.9649,1.9233,1.8927,1.8612,1.8384,1.9267,1.9619,1.9564,1.9719,1.9841,2.0009,2.0489,2.0675,2.069,2.0822,2.121,2.1833,2.1924,2.2652,2.3783,2.3224,2.3628,2.4802,2.4159,2.4273,2.5037,2.4999,2.4591,2.3952,2.4595,2.4138,2.2698,2.3287,2.3162,2.229,2.2659,2.3188,2.3889,2.3212,2.2912,2.2997,2.2561,2.2359,2.2437,2.1311,2.1041,2.1699,2.096,2.0641,2.0886,2.1074,2.0792,1.9965,1.9871,0.0,0.0,0.0,0.0,0.0,0.0,0.0,0.0,0.0,2.1159,2.1766,0.0,2.0925,0.0,2.1995,2.2652,2.2787,2.2811,0.0,0.0,2.2579,2.2672,2.2849,2.3435,2.3848,2.3899,2.4786,2.565,2.6261,2.6524,2.6296,2.5433,2.5956,2.7203,2.9192,2.9156,2.8897,2.8917,2.9175,2.9504,2.9577,2.9781,3.0011,3.0292,3.0343,3.0343,3.0349,3.0937,3.1449,3.1647,3.1531,3.1415,3.137,3.0945,3.0597,3.064,3.0621,3.0606,3.0683,3.0727,3.0764,2.112,2.097,2.1057,2.089,2.056,2.0624,2.0486,2.0259,2.1037,2.1434,2.1482,2.1814,2.2424,2.3191,2.2913,2.3037,2.3427,2.3497,2.3994,2.4795,2.4384,2.4693,2.551,2.5053,2.5082,2.5534,2.5509,2.521,2.4714,2.5162,2.4871,2.3912,2.4475,2.4358,2.3534,2.3113,2.3151,2.3647,2.3564,2.3624,2.3888,2.3519,2.326,2.3093,2.1885,2.1397,2.1732,2.1224,2.0996,2.1166,2.1643,2.1546,2.0795,2.0565,2.0222,0.0,0.0,0.0,0.0,0.0,0.0,0.0,0.0,0.0,0.0,0.0,2.2251,2.1627,2.2834,2.3538,2.3348,2.3319,2.3299,2.3336,2.3369,2.3511,2.3837,2.4313,2.4606,2.4636,2.5379,2.6208,2.7012,2.7136,2.7264,2.7447,2.7682,2.8372,2.973,2.9761,2.9525,2.9635,2.9876,3.0101,3.019,3.0213,3.0266,3.0349,3.0348,3.0354,3.0404,3.0781,3.1178,3.1312,3.1247,3.1179,3.1176,3.0902,3.0632,3.0673,3.066,3.0669,3.0722,3.0767,3.0793,2.2331,2.2318,2.2438,2.2483,2.2436,2.1691,2.1052,2.065,2.2221,2.263,2.218,2.2937,2.3647,2.4254,2.3567,2.3667,2.4352,2.4327,2.4762,2.5575,2.5544,2.5562,2.5608,2.5612,2.5603,2.5595,2.5604,2.5586,2.5518,2.5518,2.5482,2.5363,2.5415,2.5013,2.4128,2.3337,2.2949,2.3008,2.3916,2.4702,2.5387,2.4668,2.4221,2.4033,2.2577,2.1736,2.1725,2.1631,2.1474,2.1294,2.1831,2.2033,2.1819,2.1405,2.1182,0.0,2.0932,0.0,0.0,0.0,0.0,0.0,0.0,0.0,0.0,2.3252,2.3672,2.3002,2.3535,2.3703,2.3234,2.318,2.3428,2.4119,2.4249,2.4577,2.5298,2.5397,2.5386,2.5528,2.611,2.686,2.7812,2.7902,2.8437,2.9771,2.9444,2.9292,3.0107,3.0188,3.011,3.0286,3.0312,3.0253,3.0279,3.0273,3.0286,3.0299,3.0304,3.0336,3.0373,3.0408,3.0417,3.0455,3.0516,3.0553,3.0583,3.0601,3.064,3.068,3.0701,3.073,3.0769,3.0802,3.0796,2.1995,2.1832,2.1858,2.1879,2.1905,2.2473,2.2587,2.2405,2.2805,2.3337,2.3982,2.4815,2.5262,2.5372,2.5182,2.5177,2.5287,2.4568,2.4707,2.5582,2.4883,2.496,2.5662,2.5672,2.5682,2.5698,2.5668,2.5673,2.5677,2.5669,2.5283,2.4544,2.4607,2.4159,2.3277,0.0,0.0,0.0,2.4562,2.5395,2.5485,2.5326,2.5199,2.5113,2.4119,0.0,2.4459,2.385,2.3398,2.3266,2.3311,0.0,0.0,0.0,0.0,0.0,0.0,0.0,0.0,0.0,0.0,0.0,2.4086,2.4344,2.3123,2.4075,2.4484,2.3852,2.3851,2.4139,2.4703,2.4622,2.4866,2.5723,2.5792,2.6147,2.6981,2.6505,2.639,2.7201,2.6857,2.7111,2.8508,2.8259,2.8476,2.995,2.965,2.9484,3.0265,3.0299,3.0279,3.0305,3.026,3.0233,3.0213,3.0207,3.024,3.0233,3.0254,3.0298,3.0329,3.0377,3.0398,3.0398,3.0463,3.0495,3.052,3.0552,3.0618,3.0703,3.0742,3.0779,3.0784,3.079,3.0791,2.2932,0.0,2.295,2.2993,0.0,2.3624,2.3867,2.3943,2.4061,2.4469,2.5039,2.546,2.5644,2.5644,2.5605,2.5605,2.5566,2.5153,2.5187,2.5613,2.5187,2.5249,2.5699,2.5702,2.5918,2.6346,2.6345,2.636,2.6352,2.6768,2.6305,2.5019,2.5449,2.5233,2.4348,2.4351,2.412,2.3633,2.4508,2.5153,2.552,2.554,2.5324,2.4866,2.4387,0.0,0.0,0.0,0.0,0.0,0.0,0.0,0.0,0.0,0.0,2.4183,2.4018,2.4026,2.4345,2.4821,2.506,2.5028,2.5202,2.5193,2.4883,2.5507,2.5863,2.5833,2.5795,2.5786,2.5784,2.6027,2.6207,2.6253,2.6591,2.7001,2.7362,2.7155,2.71,2.7464,2.73,2.7529,2.8733,2.8619,2.8523,2.9098,2.9493,2.98,3.0284,3.0349,3.0292,3.0273,3.0227,3.0206,3.0211,3.0218,3.0219,3.0245,3.0299,3.0324,3.0349,3.0383,3.0403,3.0458,3.0465,3.0491,3.0554,3.0606,3.0664,3.0704,3.0753,3.0789,3.0791,3.079,3.0789,2.3949,2.4036,2.4172,2.4275,2.4355,2.4499,2.4738,2.5025,0.0,0.0,0.0,2.5591,2.5602,2.5599,2.5612,2.5604,2.5579,2.5464,2.5513,2.5633,2.5512,2.5533,2.5676,2.5677,2.6059,2.6754,2.6909,2.701,2.7051,2.7871,2.748,2.6132,2.664,2.6562,2.576,2.57,2.5328,2.4587,2.4529,2.4887,2.5585,2.5602,2.526,2.4518,2.4477,2.4113,2.3396,2.3369,2.3281,2.3152,2.3142,2.347,2.4209,2.4285,2.4719,2.5575,2.5657,2.5864,2.6365,2.6581,2.6954,2.757,2.6486,2.609,2.678,2.7204,2.7508,2.7701,2.7721,2.7396,2.6676,2.7117,2.7255,2.6671,2.7203,2.7634,2.7824,2.7725,2.7759,2.7824,2.7882,2.8094,2.8867,2.891,2.8784,2.8548,2.9257,3.0112,3.0299,3.0299,3.026,3.0221,3.0159,3.015,3.0204,3.019,3.0211,3.0265,3.0298,3.0324,3.038,3.0402,3.0417,3.0444,3.0476,3.0511,3.0558,3.0633,3.0683,3.0697,3.0731,3.0791,3.0798,3.0786,3.0799,2.3795,2.3774,2.3888,2.4029,2.4155,2.4346,2.4674,2.5088,2.5298,2.5394,2.5444,2.5543,2.56,2.5602,2.5608,2.5568,2.5465,2.4749,2.4781,2.5386,2.4729,2.4843,2.5586,2.5614,2.5715,2.5938,2.6666,2.7004,2.7086,2.7828,2.773,2.6931,2.695,2.6579,2.578,2.5702,2.5625,2.5487,2.543,2.5469,2.5603,2.5604,2.5522,2.5348,2.537,2.5332,2.5136,2.5116,2.4782,2.4076,2.4011,2.4292,2.4892,2.5045,2.5638,2.6875,2.7021,2.7063,2.7169,2.7853,2.8415,2.8702,2.8406,2.8042,2.7703,2.9023,2.9303,2.7984,2.7809,2.7631,2.7452,2.7459,2.7691,2.8148,2.8229,2.8568,2.9315,2.8853,2.8733,2.9444,2.9067,2.8946,2.9581,2.9317,2.9172,2.9532,2.947,2.9402,3.0041,3.0213,3.0213,3.0187,3.0045,3.0026,3.0142,3.0135,3.0135,3.0211,3.0271,3.0299,3.0324,3.0367,3.0383,3.0417,3.0436,3.0491,3.0511,3.0572,3.061,3.0626,3.0658,3.0719,3.0774,3.0784,3.08,2.3508,2.3558,2.3768,2.3896,2.4037,2.4337,2.4612,2.4912,2.5084,2.523,2.5339,2.5406,2.5441,2.5432,2.5421,2.5444,2.5417,2.5031,2.5062,2.5398,2.5066,2.5133,2.5523,2.5583,2.6106,2.7045,2.7456,2.766,2.7811,2.8979,2.8725,2.7149,2.7418,2.7242,2.6467,2.6411,2.6632,2.7089,2.6152,2.5662,2.5657,2.5662,2.5623,2.5558,2.5567,2.5594,2.5569,2.5483,2.5476,2.5556,2.5513,2.604,2.7176,2.731,2.7791,2.8829,2.8896,2.8869,2.8877,2.9272,2.9579,2.9754,2.9674,2.9534,2.9346,2.9955,3.0065,2.9304,2.9079,2.8795,2.8346,2.8521,2.8674,2.8527,2.8871,2.9295,2.9658,2.9549,2.9469,2.9794,2.9607,2.9546,2.9883,2.9649,2.9524,2.9915,2.9661,2.9708,3.009,3.0113,3.0113,3.0111,3.0045,3.0042,3.0116,3.0128,3.0128,3.0197,3.0265,3.0298,3.0305,3.0343,3.0367,3.0396,3.0411,3.0458,3.049,3.0506,3.0548,3.0593,3.0611,3.0658,3.073,3.0778,3.0795,2.3536,2.3661,2.3925,2.4013,2.4008,2.4327,2.4583,2.473,2.4907,2.5062,2.5187,2.5273,2.5269,2.5293,2.5303,2.532,2.5363,2.538,2.5397,2.5434,2.5449,2.5564,2.5763,2.5845,2.659,2.7841,2.8264,2.8391,2.8472,2.9968,2.9698,2.7798,2.8006,2.7872,2.728,2.7269,2.7614,2.8156,2.6972,2.6187,2.5979,2.5798,2.5669,2.5632,2.5622,2.5615,2.5615,2.5673,2.603,2.6667,2.6865,2.76,2.8986,2.9115,2.9486,3.0203,3.0248,3.0209,3.0221,3.0292,3.0336,3.039,3.0425,3.0477,3.054,3.0487,3.0436,3.0385,3.017,2.9792,2.9276,2.9488,2.9533,2.8933,2.9349,2.9698,2.9756,2.9816,2.9868,2.977,2.9839,2.9853,2.9859,2.9874,2.988,2.9918,3.0002,3.0046,3.0046,2.9996,2.9984,3.0026,3.0038,3.0057,3.0064,3.0057,3.0079,3.0183,3.0232,3.0278,3.0298,3.0312,3.0311,3.0367,3.039,3.0419,3.0463,3.0491,3.0525,3.0568,3.0585,3.0611,3.0713,3.0749,3.0779,2.4277,2.4424,2.4598,2.4498,2.4191,2.4347,2.4553,2.4764,2.4882,2.4914,2.4955,2.5126,2.5192,2.5208,2.5249,2.5269,2.5224,2.5278,2.5287,2.5247,2.5279,2.5741,2.6374,2.6587,2.6772,2.7178,2.8495,2.8858,2.832,2.9852,3.0179,2.9208,2.8537,2.8196,2.8091,2.8094,2.8148,2.8196,2.8116,2.7675,2.6891,2.6105,2.5688,2.5697,2.5697,2.566,2.568,2.6298,2.6712,2.6835,2.757,2.8341,2.9105,2.9192,2.9562,3.0327,3.0336,3.0286,3.0299,3.0362,3.0396,3.0411,3.051,3.0545,3.0525,3.0519,3.0463,3.0404,3.0267,3.0102,2.9996,2.9926,2.9826,2.9708,2.9731,2.9816,2.9861,2.9895,2.9893,2.9899,2.988,2.9907,2.9899,2.9888,2.9907,2.9918,2.9926,2.9934,2.9943,2.9894,2.9878,2.9899,2.9876,2.991,2.9983,2.9978,3.0014,3.0169,3.0211,3.0232,3.0278,3.0292,3.0305,3.0323,3.0352,3.04,3.0417,3.0449,3.049,3.0535,3.0574,3.0619,3.0688,3.0704,3.0739,2.435,2.4342,2.4664,2.4512,2.4177,2.4651,2.4746,2.4557,2.4645,2.4689,2.4734,2.4847,2.4936,2.5012,2.5037,2.5062,2.5094,2.5131,2.5124,2.5136,2.5174,2.5414,2.5787,2.6414,2.6934,2.7508,2.8753,2.9174,2.9036,2.9609,2.9739,2.9482,2.9557,2.9446,2.9021,2.8938,2.9151,2.9615,2.8727,2.8292,2.8305,2.7147,2.6484,2.6461,2.6456,2.6448,2.6508,2.7205,2.7858,2.836,2.8722,2.9248,3.0051,3.0078,3.0212,3.0487,3.0491,3.0465,3.0436,3.0476,3.0535,3.0516,3.0554,3.0601,3.0564,3.0574,3.0514,3.041,3.0279,3.0178,3.0113,2.998,2.9899,2.9904,2.9859,2.9851,2.9834,2.9885,2.991,2.991,2.9899,2.9916,2.9916,2.9916,2.9907,2.991,2.991,2.9883,2.9857,2.9855,2.988,2.9901,2.9901,2.9918,2.9943,2.9959,3.0014,3.0117,3.0183,3.0218,3.0232,3.0279,3.0299,3.0311,3.0322,3.0352,3.0402,3.0419,3.0455,3.0488,3.0564,3.0616,3.0633,3.0668,3.0711,2.4739,2.4594,2.4936,2.4662,2.4067,2.4847,2.4879,2.4422,2.4471,2.4539,2.459,2.4872,2.4911,2.4823,2.4886,2.4908,2.4985,2.522,2.5234,2.5127,2.531,2.5466,2.5602,2.6206,2.6892,2.7571,2.8438,2.893,2.8993,2.9272,2.9349,2.9492,3.0229,3.0395,2.9849,2.9777,3.0053,3.0528,2.946,2.9194,2.9565,2.8429,2.7569,2.7342,2.7109,2.7108,2.7376,2.812,2.8824,2.9468,2.9674,3.0052,3.0626,3.0711,3.0678,3.063,3.0622,3.0606,3.0554,3.061,3.0607,3.0613,3.061,3.0606,3.0601,3.0602,3.0554,3.0444,3.0311,3.0226,3.0123,3.0019,2.9967,2.9962,2.9945,2.992,2.9876,2.9899,2.9916,2.991,2.9899,2.9916,2.9916,2.9916,2.9907,2.991,2.9893,2.9883,2.9849,2.9864,2.9869,2.9918,2.9983,2.9983,2.9926,2.9951,3.0022,3.008,3.0132,3.0128,3.0171,3.0259,3.0299,3.0292,3.0305,3.0316,3.039,3.0416,3.0444,3.0499,3.0545,3.0588,3.0613,3.0649,3.0676,2.583,2.5407,2.5714,2.5133,2.4008,2.4863,2.4859,2.4321,2.4426,2.4495,2.4662,2.5304,2.5302,2.4687,2.4828,2.491,2.4993,2.5665,2.5622,2.5105,2.5792,2.6231,2.6358,2.6458,2.6535,2.6735,2.7631,2.8062,2.807,2.8787,2.9207,2.9293,3.0178,3.0591,3.0502,3.0533,3.0651,3.0642,3.049,3.0553,3.0489,2.9752,2.8905,2.824,2.7439,2.748,2.8203,2.9016,2.9494,2.9532,3.0269,3.0715,3.0706,3.0691,3.0698,3.07,3.0697,3.0704,3.0701,3.0701,3.0672,3.0614,3.0656,3.0668,3.0613,3.0601,3.0583,3.0504,3.0433,3.0343,3.0219,3.0128,3.0087,3.0072,3.0022,2.998,2.998,2.9972,2.9983,2.9924,2.9916,2.9916,2.9916,2.9916,2.9916,2.9891,2.9861,2.9854,2.9924,2.9829,2.9845,2.998,3.0057,3.0046,2.9948,2.9972,3.0038,3.0087,3.0068,3.0019,3.0121,3.0218,3.0259,3.0279,3.0311,3.0348,3.0385,3.0414,3.0433,3.0476,3.052,3.0559,3.0608,3.0613,3.0641,2.5208,2.5768,2.6951,2.6351,2.4766,2.5525,2.5272,2.4266,2.4247,2.457,2.4949,2.4829,2.4856,2.5107,2.4675,2.4613,2.4794,2.5054,2.5039,2.4855,2.517,2.5357,2.5449,2.6002,2.6295,2.6454,2.7297,2.8063,2.8637,2.9042,2.9497,3.0008,3.0393,3.0608,3.0608,3.0608,3.0632,3.0636,3.0622,3.0622,3.0559,2.9852,2.9516,2.9737,2.9006,2.8758,2.9119,2.9902,3.0312,3.033,3.0635,3.0801,3.0774,3.0762,3.0753,3.0767,3.0769,3.0765,3.0759,3.0754,3.075,3.073,3.0737,3.0739,3.0658,3.0622,3.0563,3.0516,3.0485,3.0419,3.0329,3.024,3.0154,3.0102,3.0087,3.008,3.0065,3.003,2.998,2.9964,2.9932,2.9916,2.9916,2.9916,2.9916,2.9916,2.9901,2.991,2.9932,2.9942,2.9962,3.0042,3.0125,3.0142,3.0104,3.0079,3.0091,3.0106,3.0113,3.0157,3.0245,3.0279,3.0318,3.0299,3.0322,3.0371,3.0414,3.0436,3.0479,3.0525,3.055,3.0554,3.0617,3.0629,3.0665,2.4993,2.6336,2.7445,2.6788,2.5199,2.5919,2.5448,2.4149,2.4084,2.4396,2.4839,2.4904,2.5136,2.5351,2.516,2.5005,2.5003,2.4997,2.4869,2.4722,2.502,2.5062,2.4922,2.5501,2.5797,2.5923,2.674,2.7573,2.8207,2.8802,2.9445,2.9989,3.0376,3.0564,3.0568,3.0583,3.0593,3.0574,3.0573,3.061,3.0527,3.0087,3.0069,3.0523,3.0177,2.9928,3.0003,3.0519,3.0796,3.0798,3.0801,3.0799,3.0796,3.0792,3.0807,3.0825,3.0827,3.0787,3.08,3.0817,3.0831,3.0799,3.0784,3.0784,3.0717,3.0678,3.0603,3.0557,3.054,3.052,3.0439,3.0354,3.0254,3.0199,3.0164,3.015,3.015,3.0094,3.0064,3.003,3.0003,2.9972,2.9956,2.9913,2.9924,2.9932,2.9945,2.9977,2.9996,3.0007,3.0094,3.0128,3.0185,3.0219,3.0214,3.0194,3.018,3.0199,3.0192,3.0266,3.0312,3.0337,3.0343,3.0348,3.0371,3.04,3.0442,3.0483,3.053,3.0598,3.0601,3.0595,3.0629,3.0653,3.0742,2.5279,2.6864,2.7097,2.6315,2.5177,2.5776,2.5251,2.4016,2.3974,2.4125,2.4494,2.576,2.5911,2.5646,2.5986,2.614,2.5486,2.5445,2.5157,2.472,2.5429,2.5412,2.4825,2.4993,2.5079,2.5076,2.5842,2.6315,2.6727,2.8186,2.9059,2.9333,3.013,3.0495,3.051,3.0554,3.0559,3.053,3.0564,3.0612,3.0595,3.0434,3.0447,3.0658,3.0568,3.0544,3.0722,3.0788,3.0798,3.0796,3.0791,3.0799,3.0801,3.0801,3.082,3.0859,3.084,3.0801,3.0796,3.0856,3.0833,3.0798,3.0783,3.0792,3.0791,3.0722,3.0655,3.063,3.0599,3.058,3.054,3.0496,3.0449,3.039,3.0318,3.0286,3.0279,3.0253,3.0174,3.0114,3.0094,3.0076,3.008,2.9972,2.994,3.0003,3.0098,3.013,3.0101,3.0071,3.0092,3.0174,3.0241,3.026,3.0286,3.0299,3.0305,3.0299,3.0292,3.0324,3.0343,3.0373,3.0402,3.04,3.0406,3.0447,3.049,3.053,3.053,3.0573,3.0591,3.0636,3.0688,3.075,3.0913,2.4739,2.5356,2.6159,2.5894,2.5021,2.5343,2.492,2.4049,2.3996,2.4326,2.4923,2.5437,2.557,2.5474,2.5658,2.5349,2.4672,2.4681,2.4632,2.4603,2.485,2.4915,2.4779,2.4776,2.4808,2.5036,2.5724,2.6494,2.7248,2.8341,2.9198,2.9826,3.0213,3.0389,3.0369,3.0474,3.0519,3.05,3.0515,3.0564,3.0515,3.001,2.9997,3.0502,3.0098,3.0079,3.0686,3.0784,3.0786,3.0792,3.0792,3.0784,3.0786,3.0784,3.082,3.0836,3.0812,3.0794,3.0787,3.0813,3.0836,3.0801,3.0797,3.0787,3.0792,3.074,3.0719,3.073,3.0701,3.0661,3.0649,3.0622,3.0576,3.043,3.0375,3.0377,3.0379,3.0324,3.0259,3.0183,3.0169,3.0161,3.0098,2.9984,2.998,3.0106,3.0164,3.0204,3.018,3.02,3.0215,3.0267,3.0305,3.0311,3.0343,3.0349,3.0349,3.0343,3.0362,3.0349,3.0385,3.0431,3.0458,3.0469,3.0469,3.0485,3.0545,3.0564,3.0554,3.0563,3.0608,3.068,3.0769,3.0881,3.102,2.4975,2.5374,2.5853,2.5583,2.4917,2.5056,2.4849,2.4413,2.4408,2.4702,2.5178,2.5567,2.5547,2.5446,2.5383,2.5129,2.4671,2.4413,2.4347,2.4478,2.4505,2.4564,2.4668,2.4746,2.4994,2.5456,2.6182,2.7044,2.793,2.8818,2.9569,3.0095,3.0279,3.0317,3.0317,3.04,3.0463,3.0433,3.0185,3.0191,3.0298,2.9699,2.9698,3.0373,3.0081,3.0133,3.0621,3.0717,3.0737,3.0789,3.079,3.0796,3.0773,3.0763,3.0752,3.075,3.0767,3.0772,3.0769,3.0791,3.0799,3.0788,3.0801,3.0798,3.0793,3.0757,3.076,3.0774,3.0748,3.074,3.0691,3.0704,3.0645,3.0537,3.0496,3.0476,3.0444,3.0408,3.0374,3.0318,3.0299,3.0227,3.0161,3.0082,3.0064,3.0178,3.0211,3.0225,3.0246,3.0299,3.0305,3.0329,3.0355,3.0361,3.0379,3.0398,3.0398,3.0398,3.0392,3.039,3.0394,3.0493,3.0535,3.0535,3.0535,3.054,3.0588,3.0583,3.0574,3.0591,3.0606,3.0649,3.075,3.0939,3.1079,2.5805,2.6677,2.6038,2.5362,2.4818,2.4854,2.4757,2.4743,2.4957,2.5027,2.5248,2.6027,2.6049,2.556,2.5601,2.5548,2.5328,2.4875,2.453,2.4507,2.4497,2.4541,2.4631,2.4768,2.5136,2.5816,2.6801,2.7667,2.8253,2.9288,2.994,3.0087,3.0154,3.0221,3.0292,3.0346,3.0383,3.0288,2.9721,2.983,3.0397,2.966,2.9661,3.0492,3.0265,3.0206,3.0559,3.0599,3.0667,3.0764,3.0777,3.0772,3.072,3.0706,3.0706,3.0686,3.0681,3.0689,3.0718,3.0737,3.078,3.0768,3.0775,3.08,3.08,3.0786,3.0778,3.0784,3.0786,3.0764,3.0728,3.071,3.0695,3.0685,3.0618,3.0558,3.0525,3.0514,3.0483,3.0447,3.0419,3.0373,3.0298,3.0234,3.0207,3.0207,3.0226,3.0272,3.0286,3.033,3.0355,3.0367,3.0373,3.0373,3.0404,3.0404,3.0404,3.0404,3.041,3.0414,3.0422,3.0525,3.0583,3.0588,3.0588,3.0598,3.0602,3.0602,3.0597,3.0617,3.0641,3.0634,3.0785,3.1013,3.1273,2.5338,2.572,2.5265,2.4926,2.4669,2.4313,2.4165,2.423,2.4932,2.5277,2.5424,2.6243,2.6223,2.5594,2.6189,2.5931,2.5087,2.5196,2.5,2.4517,2.4486,2.452,2.4596,2.4718,2.4881,2.53,2.654,2.7366,2.7675,2.9082,2.982,2.9964,3.0064,3.0157,3.0219,3.0299,3.0292,3.028,3.0149,3.0083,3.0165,2.9585,2.9641,3.0307,2.9366,2.941,3.0341,3.0518,3.0583,3.0711,3.073,3.0695,3.0633,3.0672,3.0657,3.0574,3.0591,3.0618,3.0568,3.0621,3.0685,3.0711,3.0744,3.0769,3.08,3.0798,3.0785,3.0791,3.0799,3.0786,3.076,3.0767,3.0751,3.0717,3.0672,3.064,3.0588,3.0579,3.054,3.0463,3.0398,3.0389,3.0359,3.0355,3.0324,3.0299,3.0318,3.0343,3.0336,3.0355,3.0373,3.0379,3.0398,3.0398,3.0404,3.0404,3.0404,3.0404,3.0416,3.0439,3.0463,3.054,3.0583,3.0612,3.0602,3.0607,3.0601,3.0606,3.0617,3.0641,3.0669,3.07,3.0928,3.1156,3.1502,2.6065,2.598,2.5806,2.5541,2.5243,2.489,2.4798,2.4994,2.5761,2.598,2.5998,2.6687,2.6486,2.5553,2.6031,2.5616,2.4614,2.5016,2.4976,2.4605,2.4553,2.4578,2.4687,2.4931,2.5351,2.5695,2.6318,2.7252,2.8161,2.8967,2.9394,2.9828,2.9975,3.008,3.0169,3.0232,3.0221,3.008,2.9679,2.9487,3.0151,2.9137,2.938,3.0004,2.9412,2.9543,3.037,3.0452,3.0511,3.0589,3.0586,3.0561,3.0525,3.055,3.054,3.0417,3.0485,3.0491,3.0487,3.0525,3.0595,3.0652,3.068,3.0744,3.0789,3.08,3.0795,3.079,3.08,3.0786,3.079,3.0791,3.0767,3.0713,3.0701,3.068,3.0615,3.0601,3.0569,3.0505,3.0455,3.0439,3.0431,3.0425,3.0402,3.0359,3.0367,3.0367,3.0367,3.0379,3.0404,3.0404,3.0404,3.0404,3.0404,3.0404,3.0404,3.0404,3.0425,3.0466,3.0509,3.0559,3.0588,3.0617,3.0607,3.0621,3.0615,3.0608,3.0629,3.0645,3.0692,3.0746,3.0936,3.1059,3.1448,2.7329,2.6933,2.701,2.6662,2.6183,2.6117,2.5909,2.6149,2.6943,2.7,2.6622,2.7321,2.6976,2.5607,2.6196,2.5458,2.4737,2.5323,2.5039,2.4933,2.4853,2.4907,2.4908,2.5433,2.6097,2.6689,2.6323,2.7454,2.8586,2.8661,2.8968,2.9526,2.9763,2.9883,3.0007,3.0121,3.0183,2.9906,2.9029,2.9108,2.9825,2.9123,2.9173,3.0108,3.0309,3.0009,3.0196,3.03,3.0408,3.0455,3.0416,3.0419,3.0416,3.0398,3.0349,3.0311,3.0343,3.0371,3.0375,3.0436,3.0525,3.0587,3.0645,3.0724,3.077,3.0797,3.082,3.0818,3.0827,3.0819,3.0788,3.0786,3.0777,3.0731,3.0707,3.0667,3.0622,3.0613,3.061,3.0602,3.053,3.0486,3.049,3.0474,3.0453,3.0385,3.0398,3.0398,3.039,3.0427,3.0416,3.0404,3.0404,3.039,3.0404,3.0404,3.0404,3.041,3.0447,3.0485,3.0559,3.0593,3.0593,3.0602,3.0616,3.061,3.0604,3.0621,3.0641,3.0657,3.0692,3.0699,3.0745,3.0807,3.1079,2.7607,2.7843,2.7298,2.7087,2.7013,2.651,2.6023,2.5748,2.7134,2.7369,2.6941,2.7543,2.7704,2.735,2.734,2.7186,2.634,2.6691,2.6876,2.5578,2.5602,2.5578,2.5528,2.5834,2.6235,2.6888,2.7513,2.7998,2.8437,2.8531,2.8792,2.94,2.9074,2.9217,2.9752,2.9877,2.9991,2.9859,2.949,2.9464,2.9691,2.9601,2.9563,3.0247,3.0348,2.999,2.957,2.9909,3.0227,3.0266,3.0329,3.034,3.0318,3.0311,3.0267,3.0187,3.0214,3.0215,3.0214,3.0292,3.04,3.0506,3.0579,3.0667,3.0786,3.0787,3.0819,3.0859,3.0876,3.085,3.082,3.0798,3.0793,3.0752,3.0719,3.0701,3.0661,3.0633,3.0619,3.0602,3.0554,3.0486,3.0485,3.0461,3.0433,3.041,3.0404,3.0404,3.0421,3.045,3.0444,3.0433,3.0414,3.0419,3.0433,3.0433,3.0439,3.045,3.0479,3.051,3.0583,3.0607,3.0612,3.0616,3.0601,3.0619,3.0617,3.0661,3.068,3.0692,3.0706,3.071,3.0697,3.0697,3.0714,2.7057,2.7815,2.7444,2.761,2.7991,2.7651,2.7093,2.6779,2.7709,2.7864,2.7463,2.807,2.8202,2.7906,2.7966,2.7451,2.6497,2.6367,2.6226,2.5722,2.5823,2.6216,2.6898,2.6907,2.714,2.7455,2.7437,2.7773,2.8091,2.7979,2.7931,2.8389,2.8084,2.8372,2.9065,2.929,2.9288,2.9263,2.9339,2.9224,2.8852,2.8881,2.9254,2.9724,3.0049,3.0024,2.9704,2.9917,3.0097,3.0113,3.0133,3.0168,3.0183,3.018,3.0145,3.0049,3.0072,3.0082,3.0087,3.0152,3.026,3.0395,3.0524,3.0639,3.0733,3.0773,3.0811,3.0857,3.0859,3.0875,3.0846,3.083,3.0812,3.0789,3.0734,3.0695,3.068,3.0641,3.0619,3.0602,3.055,3.0496,3.0465,3.0466,3.0419,3.0419,3.0436,3.0436,3.0406,3.0447,3.0483,3.0458,3.0453,3.0453,3.0442,3.0466,3.0463,3.0504,3.054,3.0574,3.0593,3.0616,3.061,3.0619,3.0604,3.064,3.0661,3.07,3.0695,3.0703,3.071,3.0701,3.0711,3.0698,3.0725,2.6408,2.7541,2.756,2.8031,2.8691,2.8607,2.81,2.7614,2.8328,2.8196,2.7981,2.8574,2.8535,2.811,2.7948,2.7058,2.6001,2.5347,2.5532,2.5652,2.5437,2.6107,2.7047,2.7316,2.7456,2.7807,2.7771,2.7913,2.7951,2.7531,2.727,2.7137,2.6957,2.7412,2.8101,2.8357,2.8382,2.8382,2.8634,2.8387,2.7816,2.7827,2.8396,2.9,2.9791,3.014,3.0004,3.0041,3.0011,2.9945,2.9897,2.9883,2.9899,3.0014,3.0019,2.9885,2.9951,2.9972,3.0014,3.0064,3.0168,3.0277,3.0463,3.0618,3.0689,3.0757,3.0803,3.0832,3.0858,3.0916,3.089,3.0861,3.0827,3.0806,3.0733,3.0694,3.0697,3.0645,3.0619,3.0597,3.0559,3.0545,3.0525,3.0514,3.0469,3.0433,3.0474,3.0479,3.0449,3.0449,3.049,3.0485,3.0479,3.046,3.0474,3.0558,3.0568,3.052,3.0574,3.0616,3.0621,3.0615,3.0613,3.0621,3.0629,3.0661,3.0677,3.0692,3.0703,3.071,3.0697,3.0704,3.0701,3.07,3.0752,2.6615,2.7661,2.7791,2.7977,2.8138,2.8084,2.7679,2.7066,2.7725,2.7981,2.8012,2.8628,2.8893,2.8695,2.807,2.7311,2.6442,2.5909,2.5753,2.5495,2.5134,2.5468,2.6228,2.659,2.6665,2.7314,2.79,2.8377,2.7875,2.7372,2.6786,2.6712,2.6317,2.6526,2.7124,2.7409,2.7468,2.7545,2.7997,2.7928,2.7363,2.7776,2.8255,2.8738,2.9525,2.9969,3.0011,2.9929,2.9836,2.9758,2.9724,2.9616,2.957,2.9758,2.9839,2.9787,2.9851,2.9901,2.991,3.0022,3.0123,3.0241,3.0413,3.0568,3.0678,3.0767,3.0799,3.0811,3.0857,3.0898,3.0894,3.0852,3.086,3.0799,3.0752,3.0717,3.0698,3.0656,3.0637,3.0614,3.0608,3.0582,3.0588,3.0578,3.054,3.0506,3.0525,3.0525,3.0515,3.0515,3.055,3.052,3.0481,3.0486,3.0486,3.0617,3.0675,3.0578,3.0586,3.0633,3.0637,3.061,3.0614,3.0622,3.0645,3.0673,3.0688,3.0703,3.0706,3.071,3.0697,3.0704,3.0713,3.0742,3.0756,2.6095,2.7269,2.7798,2.8285,2.8666,2.8648,2.8175,2.7537,2.7719,2.7624,2.758,2.8,2.8374,2.832,2.8018,2.7155,2.6225,2.5516,2.5397,2.5252,2.5189,2.5402,2.6002,2.6181,2.6469,2.6932,2.7677,2.7726,2.6935,2.6544,2.6154,2.5651,2.5319,2.5606,2.625,2.6481,2.6541,2.6691,2.7244,2.7177,2.6269,2.7144,2.7859,2.828,2.9185,2.979,2.9866,2.976,2.9689,2.9635,2.9608,2.9484,2.9446,2.9532,2.97,2.9636,2.9727,2.9799,2.9835,2.9953,3.0072,3.0169,3.0356,3.0524,3.0646,3.072,3.0796,3.0808,3.083,3.0856,3.084,3.0839,3.0836,3.0805,3.0765,3.0763,3.0757,3.0709,3.0707,3.0688,3.0683,3.0657,3.0649,3.0636,3.0604,3.0595,3.0586,3.0582,3.0573,3.0577,3.061,3.0814,3.0848,3.0978,3.1002,3.1062,3.0851,3.0672,3.0629,3.0676,3.0687,3.0656,3.0649,3.0649,3.0692,3.0692,3.0695,3.071,3.071,3.0694,3.0701,3.0714,3.0751,3.0765,3.0796,2.5646,2.6858,2.7594,2.8191,2.8648,2.8761,2.8384,2.789,2.783,2.7629,2.724,2.7695,2.7981,2.7798,2.7438,2.6657,2.5209,2.4564,2.485,2.501,2.5093,2.5554,2.6037,2.6299,2.6143,2.6014,2.6303,2.62,2.606,2.5902,2.535,2.4939,2.4576,2.4841,2.5535,2.5641,2.5614,2.5891,2.643,2.6112,2.5627,2.6328,2.7232,2.7482,2.8825,2.9663,2.9709,2.9626,2.9561,2.9541,2.9511,2.9431,2.9347,2.9468,2.951,2.9472,2.958,2.9645,2.9719,2.9834,2.9961,3.0078,3.0325,3.0476,3.059,3.0697,3.0791,3.0784,3.0803,3.0805,3.0795,3.0798,3.0801,3.0798,3.079,3.0798,3.0783,3.0765,3.0769,3.0752,3.0748,3.0727,3.0688,3.068,3.0653,3.0657,3.0649,3.0658,3.0651,3.0642,3.0739,3.1123,3.1336,3.1569,3.1658,3.1708,3.13,3.0769,3.0717,3.073,3.0727,3.072,3.0714,3.0688,3.0697,3.0697,3.0697,3.0694,3.0697,3.0701,3.0704,3.073,3.075,3.0786,3.0813,2.5839,2.6812,2.7121,2.686,2.6488,2.6971,2.7059,2.6952,2.7442,2.8172,2.8125,2.8608,2.8271,2.7724,2.7061,2.5874,2.4898,2.4776,2.4719,2.4529,2.4446,2.4529,2.4605,2.4644,2.4958,2.5041,2.5026,2.524,2.5473,2.5613,2.5306,2.4678,2.4586,2.4727,2.4973,2.5027,2.4848,2.5006,2.5614,2.586,2.5804,2.6533,2.7008,2.7587,2.8558,2.9464,2.9522,2.9482,2.9443,2.9433,2.9411,2.9368,2.9323,2.9304,2.9294,2.9307,2.9392,2.9531,2.9598,2.9727,2.9864,3.0045,3.0266,3.0413,3.0568,3.0706,3.0792,3.0799,3.0791,3.0791,3.0786,3.0794,3.0799,3.0801,3.0818,3.0811,3.0821,3.0822,3.0813,3.0824,3.079,3.0752,3.0716,3.0712,3.0707,3.0698,3.0698,3.0717,3.073,3.0703,3.0776,3.1119,3.1813,3.212,3.228,3.2347,3.1982,3.12,3.0998,3.0908,3.0759,3.0751,3.0756,3.0728,3.0716,3.0701,3.0717,3.0714,3.0707,3.0714,3.0733,3.0762,3.0793,3.0804,3.0825,2.5715,2.6219,2.6841,2.685,2.6479,2.6654,2.6417,2.614,2.6722,2.6716,2.6475,2.7248,2.7167,2.6576,2.6035,2.5273,2.4379,2.4498,2.446,2.4195,2.4103,2.4141,2.4255,2.4331,2.4412,2.4482,2.4559,2.4823,2.5078,2.5123,2.4879,2.4714,2.4634,2.4689,2.473,2.4726,2.4711,2.4781,2.4989,2.5296,2.5818,2.6507,2.7158,2.7622,2.8705,2.9227,2.9359,2.9359,2.9359,2.937,2.9388,2.9376,2.9323,2.9283,2.9262,2.9175,2.9265,2.9361,2.9482,2.9682,2.9857,3.003,3.0248,3.0462,3.0603,3.0722,3.0784,3.0788,3.0784,3.079,3.0785,3.0795,3.0785,3.0795,3.082,3.084,3.0858,3.0857,3.0875,3.0872,3.0848,3.0817,3.0785,3.0769,3.0752,3.074,3.074,3.0759,3.0763,3.0767,3.0867,3.1051,3.1882,3.2677,3.2836,3.2947,3.2806,3.2189,3.1657,3.1451,3.0921,3.0777,3.0782,3.0779,3.0767,3.0753,3.0742,3.073,3.0724,3.0742,3.0764,3.0774,3.0796,3.0815,3.0832,2.5178,2.5366,2.6293,2.6544,2.6312,2.6356,2.6018,2.5503,2.6274,2.5873,2.5165,2.5897,2.6054,2.5562,2.5348,2.4742,2.4113,2.4105,2.4103,2.4084,2.4103,2.4161,2.4247,2.4349,2.4455,2.4517,2.4599,2.4703,2.4709,2.4717,2.4743,2.4681,2.4673,2.4704,2.4746,2.47,2.4671,2.4631,2.4603,2.486,2.542,2.6367,2.7053,2.7783,2.8574,2.9229,2.928,2.9291,2.9304,2.9365,2.9357,2.9355,2.9334,2.9302,2.9229,2.9186,2.9232,2.9307,2.9433,2.9617,2.9857,3.0026,3.0241,3.0482,3.0655,3.0753,3.0791,3.0799,3.0774,3.0782,3.0793,3.0786,3.0785,3.0798,3.0826,3.0851,3.0895,3.0878,3.0898,3.0898,3.0897,3.0896,3.0871,3.0845,3.0837,3.0806,3.0788,3.0791,3.0825,3.0837,3.1124,3.1348,3.2276,3.3181,3.3597,3.363,3.3456,3.3127,3.2578,3.1987,3.1445,3.1005,3.0829,3.0823,3.0795,3.0789,3.0765,3.0742,3.0745,3.0755,3.078,3.0778,3.0795,3.0808,3.0837,2.4117,2.4202,2.5206,2.5245,2.4709,2.53,2.5539,2.5379,2.6193,2.6444,2.6072,2.5956,2.5956,2.603,2.5059,2.4423,2.4257,2.421,2.4172,2.4181,2.4209,2.4191,2.4275,2.4375,2.4486,2.452,2.4602,2.4676,2.4692,2.4684,2.4692,2.4681,2.4707,2.4689,2.47,2.4679,2.4572,2.453,2.4498,2.4555,2.5152,2.5987,2.6874,2.73,2.8342,2.9218,2.92,2.9218,2.924,2.9302,2.9323,2.9344,2.9344,2.9302,2.9218,2.9222,2.9257,2.931,2.9421,2.9579,2.9745,2.9953,3.0196,3.0477,3.0656,3.0694,3.074,3.0773,3.0751,3.0756,3.0772,3.0789,3.079,3.0803,3.0813,3.0842,3.0868,3.0892,3.0895,3.0915,3.0917,3.0918,3.0918,3.0895,3.0846,3.0816,3.082,3.0823,3.0921,3.1015,3.1424,3.1892,3.2794,3.3634,3.4371,3.4436,3.4365,3.3879,3.3291,3.2626,3.1978,3.1544,3.089,3.0848,3.0822,3.0819,3.0798,3.079,3.0786,3.0796,3.0789,3.0803,3.0831,3.0857,3.0879,2.3873,2.3915,2.4306,2.4331,2.418,2.4376,2.4446,2.4602,2.5413,2.5864,2.5918,2.517,2.4892,2.491,2.4773,2.4257,2.4209,2.4247,2.421,2.4209,2.4209,2.4238,2.4321,2.4419,2.4539,2.4596,2.4668,2.4681,2.47,2.47,2.4681,2.4707,2.4715,2.4757,2.4726,2.4639,2.4539,2.4444,2.4493,2.4596,2.5301,2.6086,2.697,2.7577,2.839,2.9052,2.9141,2.9152,2.9186,2.9229,2.928,2.9312,2.9334,2.9291,2.9272,2.9257,2.9301,2.9361,2.9491,2.9664,2.9891,3.0114,3.0315,3.0477,3.0633,3.0645,3.0676,3.0704,3.0727,3.0736,3.0784,3.0786,3.0786,3.0792,3.0799,3.0807,3.0815,3.0841,3.0866,3.0867,3.0891,3.0914,3.0917,3.0918,3.0875,3.0824,3.0848,3.091,3.1086,3.1379,3.1847,3.2394,3.3275,3.3881,3.4601,3.4936,3.5254,3.4645,3.3981,3.3296,3.2553,3.1436,3.0923,3.0883,3.0981,3.1078,3.1058,3.0901,3.0844,3.0845,3.0831,3.0817,3.0839,3.0879,3.0897,2.3743,2.3739,2.3761,2.3863,2.3955,2.3896,2.3876,2.399,2.4641,2.5201,2.5419,2.4606,2.4337,2.441,2.4284,2.4238,2.42,2.4257,2.4257,2.4257,2.4266,2.4303,2.4375,2.4462,2.4547,2.4647,2.4687,2.4684,2.4681,2.4692,2.4692,2.47,2.4753,2.4753,2.4695,2.4607,2.4488,2.4392,2.4421,2.4737,2.5437,2.6256,2.7054,2.7776,2.8576,2.8962,2.9062,2.9085,2.91,2.9145,2.9207,2.924,2.9251,2.9272,2.9294,2.9299,2.9332,2.9404,2.9589,2.9816,3.0042,3.026,3.0354,3.0465,3.0568,3.0613,3.0645,3.0699,3.0701,3.072,3.077,3.0764,3.076,3.0765,3.0755,3.0765,3.0761,3.0771,3.0804,3.0813,3.0859,3.0904,3.0934,3.0956,3.0996,3.0933,3.0878,3.1131,3.1598,3.195,3.2478,3.3044,3.3728,3.4237,3.4706,3.5176,3.5547,3.5292,3.4628,3.3983,3.3142,3.2105,3.1634,3.1984,3.1966,3.1598,3.1462,3.1481,3.1189,3.0878,3.0859,3.084,3.0878,3.0895,3.0914,2.3596,2.3618,2.3667,2.3768,2.3904,2.3976,2.4006,2.4036,2.4243,2.4705,2.5213,2.4523,2.4549,2.486,2.4421,2.4219,2.4209,2.4312,2.4321,2.4266,2.4321,2.4384,2.4411,2.4445,2.4539,2.4607,2.4655,2.4695,2.4692,2.4687,2.4695,2.466,2.4663,2.465,2.4599,2.4491,2.4385,2.4321,2.4303,2.4726,2.5396,2.6182,2.6976,2.7794,2.8514,2.8899,2.8975,2.9017,2.9021,2.9067,2.9112,2.9156,2.9211,2.9222,2.9254,2.9326,2.9382,2.9453,2.9541,2.9832,3.0101,3.0299,3.0367,3.0417,3.0535,3.0576,3.0595,3.0621,3.0661,3.0678,3.0695,3.0701,3.0713,3.0719,3.071,3.0713,3.0714,3.0716,3.0754,3.088,3.0872,3.0867,3.0926,3.0993,3.1074,3.1055,3.0956,3.1289,3.1933,3.2695,3.3281,3.3711,3.4316,3.4746,3.5215,3.5605,3.582,3.5625,3.5312,3.4726,3.4257,3.3593,3.3319,3.3259,3.2908,3.248,3.2265,3.2129,3.1914,3.1678,3.1013,3.0875,3.0911,3.091,3.0889,2.3471,2.3471,2.3551,2.3629,2.3711,2.3828,2.3894,2.3986,2.4102,2.4316,2.4482,2.4254,2.4244,2.4353,2.4383,2.4191,2.4218,2.4275,2.4275,2.4284,2.4339,2.4384,2.4429,2.4464,2.4541,2.4599,2.4666,2.4647,2.4621,2.4658,2.4666,2.4631,2.4549,2.45,2.4437,2.4339,2.4219,2.4124,2.4216,2.4556,2.5332,2.6114,2.6918,2.7798,2.8462,2.8797,2.891,2.8929,2.8964,2.8998,2.9044,2.9152,2.9222,2.9254,2.9312,2.9461,2.956,2.9672,2.9806,3.0014,3.0154,3.0279,3.0318,3.0336,3.0447,3.0419,3.0465,3.0511,3.0567,3.0559,3.0578,3.0607,3.0626,3.0637,3.0637,3.0648,3.0672,3.0697,3.0737,3.0951,3.1039,3.1579,3.1822,3.1682,3.1672,3.2006,3.2059,3.1946,3.24,3.3475,3.4276,3.4531,3.4961,3.5332,3.5703,3.5879,3.5976,3.584,3.5801,3.5644,3.5195,3.4746,3.4141,3.3652,3.3516,3.3379,3.3202,3.3044,3.2884,3.2568,3.1845,3.1298,3.1257,3.1079,3.0823,2.3372,2.3441,2.3499,2.3603,2.3674,2.375,2.3818,2.3896,2.3978,2.4026,2.4074,2.4122,2.4084,2.4056,2.4105,2.4163,2.417,2.4229,2.4248,2.4266,2.4284,2.4348,2.4402,2.4465,2.449,2.4557,2.4582,2.459,2.4564,2.4609,2.4584,2.4507,2.4438,2.4339,2.4284,2.4182,2.4124,2.4064,2.4137,2.4639,2.5455,2.6242,2.6964,2.7868,2.8482,2.8761,2.8827,2.8875,2.8899,2.8964,2.9062,2.9175,2.9243,2.931,2.9384,2.9531,2.9718,2.9841,2.9956,3.0038,3.0147,3.0199,3.0174,3.0247,3.033,3.0322,3.0346,3.0392,3.0422,3.0477,3.0501,3.0534,3.0554,3.0567,3.0634,3.0647,3.0835,3.0866,3.1202,3.1377,3.1845,3.2377,3.2742,3.2532,3.2394,3.2843,3.3251,3.3124,3.3055,3.4113,3.5013,3.5212,3.5388,3.5662,3.5838,3.5937,3.5996,3.6016,3.5996,3.5996,3.5917,3.5409,3.4744,3.4256,3.4471,3.4529,3.4193,3.3954,3.3561,3.3128,3.26,3.211,3.1737,3.1405,3.1092,2.3319,2.3492,2.3544,2.3652,2.3761,2.3711,2.3786,2.3886,2.3896,2.3945,2.3996,2.3996,2.4006,2.4016,2.4084,2.4103,2.4113,2.4182,2.4201,2.421,2.4247,2.4284,2.4303,2.4358,2.4411,2.4455,2.4481,2.4507,2.4486,2.4498,2.4465,2.4393,2.433,2.4238,2.4144,2.4086,2.4064,2.4034,2.4049,2.4673,2.5539,2.6152,2.7005,2.7876,2.8499,2.8663,2.8767,2.8827,2.8899,2.8998,2.9119,2.9167,2.9232,2.927,2.9373,2.956,2.9779,2.9891,2.998,3.0053,3.0072,3.0098,3.0078,3.0168,3.0227,3.0228,3.0248,3.0292,3.0346,3.0417,3.046,3.0493,3.0502,3.0565,3.0648,3.0814,3.1067,3.1356,3.1775,3.2204,3.2796,3.3285,3.3583,3.3479,3.3373,3.3853,3.425,3.4374,3.4426,3.4888,3.5615,3.5677,3.5835,3.5913,3.6011,3.6012,3.601,3.601,3.6014,3.5995,3.6013,3.6011,3.5502,3.5267,3.5697,3.5656,3.5086,3.4496,3.3945,3.3572,3.3649,3.3101,3.2787,3.197,3.1598,2.3348,2.3372,2.3383,2.3471,2.3585,2.3618,2.37,2.3818,2.3828,2.3842,2.3876,2.3907,2.3955,2.3996,2.4026,2.4084,2.4123,2.4142,2.4162,2.419,2.4219,2.4219,2.4247,2.4248,2.4303,2.4358,2.4393,2.4411,2.4366,2.4367,2.4348,2.4266,2.4238,2.4134,2.4057,2.4008,2.3996,2.3986,2.3917,2.461,2.5411,2.5968,2.688,2.7695,2.8368,2.8552,2.8718,2.8767,2.8851,2.8998,2.9096,2.9167,2.928,2.9384,2.9513,2.9771,2.9866,2.9926,2.9991,2.9991,2.9983,2.9983,2.9969,3.0034,3.0106,3.015,3.0164,3.02,3.0381,3.0529,3.0656,3.0694,3.0918,3.1186,3.1295,3.1509,3.1805,3.2243,3.2647,3.3127,3.3718,3.4162,3.4447,3.4464,3.4435,3.4912,3.5155,3.5195,3.5442,3.577,3.5957,3.6002,3.6004,3.6003,3.6006,3.6008,3.6004,3.6022,3.6008,3.601,3.6004,3.6019,3.6022,3.6002,3.6022,3.5961,3.5762,3.5211,3.4701,3.5111,3.5168,3.4464,3.376,3.3096,3.2508,2.2826,2.3294,2.3017,2.2956,2.3046,2.3108,2.3196,2.331,2.361,2.3786,2.381,2.3852,2.3894,2.3966,2.3976,2.4016,2.4133,2.4113,2.4141,2.4161,2.4198,2.4209,2.421,2.422,2.4284,2.4339,2.4358,2.4394,2.433,2.4284,2.4284,2.4219,2.417,2.4056,2.3947,2.3884,2.3863,2.3876,2.4003,2.4523,2.5204,2.5922,2.6741,2.7634,2.8276,2.8552,2.87,2.8749,2.8922,2.9082,2.9181,2.9349,2.9463,2.957,2.9645,2.9841,2.9883,2.9907,2.9948,2.9916,2.9916,2.9899,2.9883,2.9926,2.9975,3.0022,3.0046,3.0102,3.0433,3.0725,3.0861,3.1042,3.1543,3.2031,3.2199,3.2372,3.2794,3.3229,3.3657,3.4102,3.456,3.5018,3.5253,3.5262,3.5212,3.5197,3.5053,3.4883,3.5279,3.5841,3.5956,3.6006,3.6009,3.601,3.6016,3.5999,3.6012,3.6006,3.6009,3.601,3.6002,3.6004,3.6007,3.6009,3.6009,3.5949,3.5907,3.5949,3.5733,3.6002,3.5997,3.5387,3.4895,3.4704,3.417,2.215,2.3332,2.2696,2.2586,2.2504,2.2615,2.2668,2.2679,2.3455,2.3743,2.3804,2.3804,2.3831,2.3925,2.3917,2.3996,2.4084,2.4122,2.4112,2.4122,2.4161,2.4181,2.4219,2.4257,2.4294,2.4348,2.4367,2.4339,2.4358,2.433,2.4266,2.4218,2.4084,2.4069,2.4208,2.4046,2.405,2.414,2.4371,2.4813,2.5569,2.626,2.6928,2.7997,2.8463,2.8694,2.8754,2.8902,2.9115,2.9259,2.9412,2.9578,2.9664,2.97,2.9763,2.9806,2.9866,2.9883,2.9899,2.9893,2.9874,2.9866,2.9851,2.9859,2.9893,2.9918,2.9924,3.0362,3.076,3.1207,3.1428,3.1779,3.2251,3.2678,3.2969,3.3286,3.3718,3.4116,3.4449,3.4815,3.5026,3.5423,3.5382,3.5338,3.5311,3.5267,3.5209,3.4947,3.515,3.583,3.5941,3.5979,3.5974,3.5976,3.5995,3.5997,3.5992,3.5986,3.5988,3.599,3.5968,3.5988,3.6005,3.6011,3.6019,3.5994,3.5972,3.5992,3.5972,3.5984,3.5958,3.5951,3.5814,3.5639,3.5376,2.2873,2.2657,2.3189,2.3433,2.3379,2.3444,2.3471,2.3573,2.3694,2.375,2.3743,2.3793,2.3839,2.3915,2.3917,2.3996,2.4132,2.4084,2.4112,2.4132,2.4151,2.4181,2.4201,2.4238,2.4275,2.4275,2.4284,2.4294,2.433,2.4312,2.4275,2.4257,2.4158,2.4255,2.4717,2.4565,2.4577,2.4473,2.5025,2.5086,2.5319,2.6403,2.7332,2.755,2.7688,2.8298,2.8464,2.8679,2.9023,2.9341,2.9461,2.9608,2.9764,2.9726,2.9779,2.9857,2.9841,2.9849,2.9868,2.9851,2.9834,2.9834,2.9816,2.9816,2.9825,2.9815,3.0086,3.0648,3.1172,3.1632,3.2137,3.2537,3.2955,3.3364,3.3727,3.4177,3.4618,3.4896,3.5192,3.5347,3.5495,3.5483,3.5438,3.5419,3.5405,3.5454,3.553,3.5466,3.5446,3.5799,3.5859,3.5891,3.5916,3.5923,3.5955,3.5946,3.5936,3.5941,3.5926,3.5929,3.5914,3.5955,3.5977,3.6003,3.6007,3.5955,3.5929,3.5914,3.5909,3.5916,3.5906,3.5897,3.5914,3.5777,3.5729,2.2765,2.2905,2.3102,2.3202,2.3187,2.3226,2.3306,2.3394,2.3671,2.3803,2.381,2.3891,2.3953,2.3966,2.3958,2.3996,2.4103,2.4074,2.4084,2.4113,2.4142,2.4163,2.4182,2.4201,2.4238,2.4266,2.4275,2.4275,2.4321,2.4247,2.4209,2.4256,2.4263,2.4599,2.5143,2.5174,2.5147,2.4842,2.5626,2.5588,2.5219,2.6123,2.7093,2.7141,2.7375,2.7842,2.8206,2.8466,2.8911,2.9352,2.9626,2.9719,2.9825,2.9823,2.9805,2.9832,2.9815,2.9816,2.9808,2.979,2.9773,2.9782,2.9755,2.9765,2.9877,2.9942,3.045,3.1013,3.1643,3.2131,3.3007,3.3534,3.3993,3.4424,3.4508,3.4732,3.4944,3.5112,3.5283,3.5357,3.5448,3.5462,3.5437,3.5469,3.5457,3.5464,3.5558,3.5612,3.5657,3.5718,3.5769,3.5819,3.583,3.5849,3.5872,3.5866,3.5866,3.5856,3.5875,3.5892,3.5902,3.5926,3.597,3.596,3.5931,3.5883,3.5858,3.5849,3.584,3.5836,3.5852,3.5849,3.5845,3.5864,3.5799,2.2509,2.3461,2.2969,2.2715,2.2692,2.2789,2.2904,2.3042,2.3567,2.3907,2.3939,2.4074,2.4074,2.4036,2.4036,2.4026,2.4026,2.4036,2.4084,2.4133,2.4162,2.42,2.4219,2.4238,2.4257,2.4275,2.4284,2.4303,2.4348,2.4219,2.417,2.4261,2.4572,2.494,2.5234,2.5614,2.5828,2.5536,2.5727,2.5707,2.5722,2.5807,2.6549,2.6947,2.7111,2.7165,2.771,2.8264,2.8736,2.9289,2.9737,2.9816,2.9851,2.9868,2.9841,2.9823,2.979,2.9773,2.9736,2.9719,2.9737,2.9737,2.971,2.9757,2.9879,3.0198,3.0678,3.1261,3.1901,3.275,3.3628,3.4176,3.4609,3.5032,3.5043,3.506,3.5163,3.5254,3.532,3.5364,3.5398,3.5412,3.546,3.5481,3.5494,3.5502,3.5502,3.5534,3.5571,3.5637,3.5678,3.5713,3.5727,3.5745,3.5791,3.5799,3.5783,3.5803,3.5826,3.5862,3.5883,3.5872,3.5879,3.5885,3.5856,3.5806,3.5764,3.5764,3.5767,3.5758,3.5754,3.5754,3.5754,3.5773,3.5782,2.3401,2.3753,2.3712,2.3699,2.3701,2.3769,2.3817,2.3855,2.4012,2.4142,2.4125,2.4144,2.4115,2.3988,2.3937,2.3947,2.4044,2.4064,2.4114,2.4163,2.4181,2.4228,2.4266,2.4257,2.4275,2.4331,2.4349,2.434,2.4552,2.4339,2.4152,2.4244,2.4717,2.5265,2.5988,2.6345,2.6628,2.6266,2.6246,2.6418,2.58,2.5834,2.5965,2.6281,2.652,2.6869,2.7354,2.7951,2.8755,2.9392,2.9755,2.9834,2.9859,2.9859,2.9851,2.9825,2.9792,2.9737,2.97,2.9692,2.9729,2.9719,2.9683,2.9701,2.9833,3.0002,3.0518,3.1063,3.1826,3.2958,3.3734,3.3876,3.4235,3.4726,3.4933,3.5015,3.5111,3.5179,3.5266,3.5297,3.5346,3.5391,3.5486,3.5493,3.5493,3.5494,3.5494,3.5528,3.5515,3.5572,3.5602,3.5626,3.5629,3.5669,3.5708,3.5713,3.5718,3.5741,3.5758,3.5768,3.5784,3.5764,3.5772,3.5807,3.5767,3.5711,3.5698,3.5689,3.5679,3.5674,3.5664,3.5639,3.5664,3.5674,3.5694]}]]